[[{"header":{"parameterUnit":"m.s-1","parameterCategory":1,"la1":31.0,"la2":29.5877,"lo1":-88.7671,"lo2":-86.6584,"dy":0.0162,"dx":0.0185,"nx":115,"ny":88,"refTime":"2023-08-02T00:00:00:Z","depth":0,"parameterNumber":2,"parameterNumberName":"U-component_of_WINDS"},"data":[0.0,0.0,0.0,0.0,0.0,0.0,0.0,0.0,0.0,0.0,0.0,0.0,0.0,0.0,0.0,0.0,0.0,0.0,0.0,0.0,0.0,0.0,0.0,0.0,0.0,0.0,0.0,0.0,0.0,0.0,0.0,0.0,0.0,0.0,0.0,0.0,0.0,0.0,0.0,0.0,0.0,0.0,0.0,0.0,0.0,0.0,0.0,0.0,0.0,0.0,0.0,0.0,0.0,0.0,0.0,0.0,0.0,0.0,0.0,0.0,0.0,0.0,0.0,0.0,0.0,0.0,0.0,0.0,0.0,0.0,0.0,0.0,0.0,0.0,0.0,0.0,0.0,0.0,0.0,0.0,0.0,0.0,0.0,0.0,0.0,0.0,0.0,0.0,0.0,0.0,0.0,0.0,0.0,0.0,0.0,0.0,0.0,0.0,0.0,0.0,0.0,0.0,0.0,0.0,0.0,0.0,0.0,0.0,0.0,0.0,0.0,0.0,0.0,0.0,0.0,0.0,0.0,0.0,0.0,0.0,0.0,0.0,0.0,0.0,0.0,0.0,0.0,0.0,0.0,0.0,0.0,0.0,0.0,0.0,0.0,0.0,0.0,0.0,0.0,0.0,0.0,0.0,0.0,0.0,0.0,0.0,0.0,0.0,0.0,0.0,0.0,0.0,0.0,0.0,0.0,0.0,0.0,0.0,0.0,0.0,0.0,0.0,0.0,0.0,0.0,0.0,0.0,0.0,0.0,0.0,0.0,0.0,0.0,0.0,0.0,0.0,0.0,0.0,0.0,0.0,0.0,0.0,0.0,0.0,0.0,0.0,0.0,0.0,0.0,0.0,0.0,0.0,0.0,0.0,0.0,0.0,0.0,0.0,0.0,0.0,0.0,0.0,0.0,0.0,0.0,0.0,0.0,0.0,0.0,0.0,0.0,0.0,0.0,0.0,0.0,0.0,0.0,0.0,0.0,0.0,0.0,0.0,0.0,0.0,0.0,0.0,0.0,0.0,0.0,0.0,0.0,0.0,0.0,0.0,0.0,0.0,0.0,0.0,0.0,0.0,0.0,0.0,0.0,0.0,0.0,0.0,0.0,0.0,0.0,0.0,0.0,0.0,0.0,0.0,0.0,0.0,0.0,0.0,0.0,0.0,0.0,0.0,0.0,0.0,0.0,0.0,0.0,0.0,0.0,0.0,0.0,0.0,0.0,0.0,0.0,0.0,0.0,0.0,0.0,0.0,0.0,0.0,0.0,0.0,0.0,0.0,0.0,0.0,0.0,0.0,0.0,0.0,0.0,0.0,0.0,0.0,0.0,0.0,0.0,0.0,0.0,0.0,0.0,0.0,0.0,0.0,0.0,0.0,0.0,0.0,0.0,0.0,0.0,0.0,0.0,0.0,0.0,0.0,0.0,0.0,0.0,0.0,0.0,0.0,0.0,0.0,0.0,0.0,0.0,0.0,0.0,0.0,0.0,0.0,0.0,0.0,0.0,0.0,0.0,0.0,0.0,0.0,0.0,0.0,0.0,0.0,0.0,0.0,0.0,0.0,0.0,0.0,0.0,0.0,0.0,0.0,0.0,0.0,0.0,0.0,0.0,0.0,0.0,0.0,0.0,0.0,0.0,0.0,0.0,0.0,0.0,0.0,0.0,0.0,0.0,0.0,0.0,0.0,0.0,0.0,0.0,0.0,0.0,0.0,0.0,0.0,0.0,0.0,0.0,0.0,0.0,0.0,0.0,0.0,0.0,0.0,0.0,0.0,0.0,0.0,0.0,0.0,0.0,0.0,0.0,0.0,0.0,0.0,0.0,0.0,0.0,0.0,0.0,0.0,0.0,0.0,0.0,0.0,0.0,0.0,0.0,0.0,0.0,0.0,0.0,0.0,0.0,0.0,0.0,0.0,0.0,0.0,0.0,0.0,0.0,0.0,0.0,0.0,0.0,0.0,0.0,0.0,0.0,0.0,0.0,0.0,0.0,0.0,0.0,0.0,0.0,0.0,0.0,0.0,0.0,0.0,0.0,0.0,0.0,0.0,0.0,0.0,0.0,0.0,0.0,0.0,0.0,0.0,0.0,0.0,0.0,0.0,0.0,0.0,0.0,0.0,0.0,0.0,0.0,0.0,0.0,0.0,0.0,0.0,0.0,0.0,0.0,0.0,0.0,0.0,0.0,0.0,0.0,0.0,0.0,0.0,0.0,0.0,0.0,0.0,0.0,0.0,0.0,0.0,0.0,0.0,0.0,0.0,0.0,0.0,0.0,0.0,0.0,0.0,0.0,0.0,0.0,0.0,0.0,0.0,0.0,0.0,0.0,0.0,0.0,0.0,0.0,0.0,0.0,0.0,0.0,0.0,0.0,0.0,0.0,0.0,0.0,0.0,0.0,0.0,0.0,0.0,0.0,0.0,0.0,0.0,0.0,0.0,0.0,0.0,0.0,0.0,0.0,0.0,0.0,0.0,0.0,0.0,0.0,0.0,0.0,0.0,0.0,0.0,0.0,0.0,0.0,0.0,0.0,0.0,0.0,0.0,0.0,0.0,0.0,0.0,0.0,0.0,0.0,0.0,0.0,0.0,0.0,0.0,0.0,0.0,0.0,0.0,0.0,0.0,0.0,0.0,0.0,0.0,0.0,0.0,0.0,0.0,0.0,0.0,0.0,0.0,0.0,0.0,0.0,0.0,0.0,0.0,0.0,0.0,0.0,0.0,0.0,0.0,0.0,0.0,0.0,0.0,0.0,0.0,0.0,0.0,0.0,0.0,0.0,0.0,0.0,0.0,0.0,0.0,0.0,0.0,0.0,0.0,0.0,0.0,0.0,0.0,0.0,0.0,0.0,0.0,0.0,0.0,0.0,0.0,0.0,0.0,0.0,0.0,0.0,0.0,0.0,0.0,0.0,0.0,0.0,0.0,0.0,0.0,0.0,0.0,0.0,0.0,0.0,0.0,0.0,0.0,0.0,0.0,0.0,0.0,0.0,0.0,0.0,0.0,0.0,0.0,0.0,0.0,0.0,0.0,0.0,0.0,0.0,0.0,0.0,0.0,0.0,0.0,0.0,0.0,0.0,0.0,0.0,0.0,0.0,0.0,0.0,0.0,0.0,0.0,0.0,0.0,0.0,0.0,0.0,0.0,0.0,0.0,0.0,0.0,0.0,0.0,0.0,0.0,0.0,0.0,0.0,0.0,0.0,0.0,0.0,0.0,0.0,0.0,0.0,0.0,0.0,0.0,0.0,0.0,0.0,0.0,0.0,0.0,0.0,0.0,0.0,0.0,0.0,0.0,0.0,0.0,0.0,0.0,0.0,0.0,0.0,0.0,0.0,0.0,0.0,0.0,0.0,0.0,0.0,0.0,0.0,0.0,0.0,0.0,0.0,0.0,0.0,0.0,0.0,0.0,0.0,0.0,0.0,0.0,0.0,0.0,0.0,0.0,0.0,0.0,0.0,0.0,0.0,0.0,0.0,0.0,0.0,0.0,0.0,0.0,0.0,0.0,0.0,0.0,0.0,0.0,0.0,0.0,0.0,0.0,0.0,0.0,0.0,0.0,0.0,0.0,0.0,0.0,0.0,0.0,0.0,0.0,0.0,0.0,0.0,0.0,0.0,0.0,0.0,0.0,0.0,0.0,0.0,0.0,0.0,0.0,0.0,0.0,0.0,0.0,0.0,0.0,0.0,0.0,0.0,0.0,0.0,0.0,0.0,0.0,0.0,0.0,0.0,0.0,0.0,0.0,0.0,0.0,0.0,0.0,0.0,0.0,0.0,0.0,0.0,0.0,0.0,0.0,0.0,0.0,0.0,0.0,0.0,0.0,0.0,0.0,0.0,0.0,0.0,0.0,0.0,0.0,0.0,0.0,0.0,0.0,0.0,0.0,0.0,0.0,0.0,0.0,0.0,0.0,0.0,0.0,0.0,0.0,0.0,0.0,0.0,0.0,0.0,0.0,0.0,0.0,0.0,0.0,0.0,0.0,0.0,0.0,0.0,0.0,0.0,0.0,0.0,0.0,0.0,0.0,0.0,0.0,0.0,0.0,0.0,0.0,0.0,0.0,0.0,0.0,0.0,0.0,0.0,0.0,0.0,0.0,0.0,0.0,0.0,0.0,0.0,0.0,0.0,0.0,0.0,0.0,0.0,0.0,0.0,0.0,0.0,0.0,0.0,0.0,0.0,0.0,0.0,0.0,0.0,0.0,0.0,0.0,0.0,0.0,0.0,0.0,0.0,0.0,0.0,0.0,0.0,0.0,0.0,0.0,0.0,0.0,0.0,0.0,2.0797,0.0,0.0,0.0,0.0,0.0,0.0,0.0,0.0,0.0,0.0,0.0,0.0,0.0,0.0,0.0,0.0,0.0,0.0,0.0,0.0,0.0,0.0,0.0,0.0,0.0,0.0,0.0,0.0,0.0,0.0,0.0,0.0,0.0,0.0,0.0,0.0,0.0,0.0,0.0,0.0,0.0,0.0,0.0,0.0,0.0,0.0,0.0,0.0,0.0,0.0,0.0,0.0,0.0,0.0,0.0,0.0,0.0,0.0,0.0,0.0,0.0,0.0,0.0,0.0,0.0,0.0,0.0,0.0,0.0,0.0,0.0,0.0,0.0,0.0,0.0,0.0,0.0,0.0,0.0,0.0,0.0,0.0,0.0,0.0,0.0,0.0,0.0,0.0,0.0,0.0,0.0,0.0,0.0,0.0,0.0,0.0,0.0,0.0,0.0,0.0,0.0,0.0,0.0,0.0,0.0,0.0,0.0,0.0,0.0,0.0,1.4015,1.4049,1.501,1.6652,1.8951,0.0,0.0,0.0,0.0,0.0,0.0,0.0,0.0,0.0,0.0,0.0,0.0,0.0,0.0,0.0,0.0,0.0,0.0,0.0,0.0,0.0,0.0,0.0,0.0,0.0,0.0,0.0,0.0,0.0,0.0,0.0,0.0,0.0,0.0,0.0,0.0,0.0,0.0,0.0,0.0,0.0,0.0,0.0,0.0,0.0,0.0,0.0,0.0,0.0,0.0,0.0,0.0,0.0,0.0,0.0,0.0,0.0,0.0,0.0,0.0,0.0,0.0,0.0,0.0,0.0,0.0,0.0,0.0,0.0,0.0,0.0,0.0,0.0,0.0,0.0,0.0,0.0,0.0,0.0,0.0,0.0,0.0,0.0,0.0,0.0,0.0,0.0,0.0,0.0,0.0,0.0,0.0,0.0,0.0,0.0,0.0,0.0,0.0,0.0,0.0,0.0,0.0,0.0,0.0,0.0,0.0,0.0,0.0,0.0,0.0,0.0,0.0,0.9902,1.1853,1.5139,0.0,0.0,0.0,0.0,0.0,0.0,0.0,0.0,0.0,0.0,0.0,0.0,0.0,0.0,0.0,0.0,0.0,0.0,0.0,0.0,0.0,0.0,0.0,0.0,0.0,0.0,0.0,0.0,0.0,0.0,0.0,0.0,0.0,0.0,0.0,0.0,0.0,0.0,0.0,0.0,0.0,0.0,0.0,0.0,0.0,0.0,0.0,0.0,0.0,0.0,0.0,0.0,0.0,0.0,0.0,0.0,0.0,0.0,0.0,0.0,0.0,0.0,0.0,0.0,0.0,0.0,0.0,0.0,0.0,0.0,0.0,0.0,0.0,0.0,0.0,0.0,0.0,0.0,0.0,0.0,0.0,0.0,0.0,0.0,0.0,0.0,0.0,0.0,0.0,0.0,0.0,0.0,0.0,0.0,0.0,0.0,0.0,0.0,0.0,0.0,0.0,0.0,0.0,0.0,0.0,0.0,0.0,0.0,0.0,0.0,0.437,0.3229,0.2547,0.0,0.7867,0.0,0.0,0.0,0.0,0.0,0.0,0.0,0.0,0.0,0.0,0.0,0.0,0.0,0.0,0.0,0.0,0.0,0.0,0.0,0.0,0.0,0.0,0.0,0.0,0.0,0.0,0.0,0.0,0.0,0.0,0.0,0.0,0.0,0.0,0.0,0.0,0.0,0.0,0.0,0.0,0.0,0.0,0.0,0.0,0.0,0.0,0.0,0.0,0.0,0.0,0.0,0.0,0.0,0.0,0.0,0.0,0.0,0.0,0.0,0.0,0.0,0.0,0.0,0.0,0.0,0.0,0.0,0.0,0.0,0.0,0.0,0.0,0.0,0.0,0.0,0.0,0.0,0.0,0.0,0.0,0.0,0.0,0.0,0.0,0.0,0.0,0.0,0.0,0.0,0.0,0.0,0.0,0.0,0.0,0.0,0.0,0.0,0.0,0.0,0.0,0.0,0.0,0.0,0.0,0.0,0.0,0.0,0.0,0.0,0.0,-0.2512,-0.3857,-0.2996,-0.1331,0.0,0.0,0.0,0.0,0.0,0.0,0.0,0.0,0.0,0.0,0.0,0.0,0.0,0.0,0.0,0.0,0.0,0.0,0.0,0.0,0.0,0.0,0.0,0.0,0.0,0.0,0.0,0.0,0.0,0.0,0.0,0.0,0.0,0.0,0.0,0.0,0.0,0.0,0.0,0.0,0.0,0.0,0.0,0.0,0.0,0.0,0.0,0.0,0.0,0.0,0.0,0.0,0.0,0.0,0.0,0.0,0.0,0.0,0.0,0.0,0.0,0.0,0.0,0.0,0.0,0.0,0.0,0.0,0.0,0.0,0.0,0.0,0.0,0.0,0.0,0.0,0.0,0.0,0.0,0.0,0.0,0.0,0.0,0.0,0.0,0.0,0.0,0.0,0.0,0.0,0.0,0.0,0.0,0.0,0.0,0.0,0.0,0.0,0.0,0.0,0.0,0.0,0.0,0.0,0.0,0.0,0.0,0.0,0.0,0.0,-0.6541,-0.9579,-1.1557,-1.0656,-0.8953,-0.6584,0.0,0.0,0.0,0.0,0.0,0.0,0.0,0.0,0.0,0.0,0.0,0.0,0.0,0.0,0.0,0.0,0.0,0.0,0.0,0.0,0.0,0.0,0.0,0.0,0.0,0.0,0.0,0.0,0.0,0.0,0.0,0.0,0.0,0.0,0.0,0.0,0.0,0.0,0.0,0.0,0.0,0.0,0.0,0.0,0.0,0.0,0.0,0.0,0.0,0.0,0.0,0.0,0.0,0.0,0.0,0.0,0.0,0.0,0.0,0.0,0.0,0.0,0.0,0.0,0.0,0.0,0.0,0.0,0.0,0.0,0.0,0.0,0.0,0.0,0.0,0.0,0.0,0.0,0.0,0.0,0.0,0.0,0.0,0.0,0.0,0.0,0.0,0.0,0.0,0.0,0.0,0.0,0.0,0.0,0.0,0.0,0.0,0.0,0.0,0.0,0.0,0.0,0.0,0.0,0.0,0.0,0.0,0.0,-0.7801,-1.2309,-1.6515,-2.0311,-2.1851,-2.0384,0.0,0.0,0.0,0.0,0.0,0.0,0.0,0.0,0.0,0.0,0.0,0.0,0.0,0.0,0.0,0.0,0.0,0.0,0.0,0.0,0.0,0.0,0.0,0.0,0.0,0.0,0.0,0.0,0.0,0.0,0.0,0.0,0.0,0.0,0.0,0.0,0.0,0.0,0.0,0.0,0.0,0.0,0.0,0.0,0.0,0.0,0.0,0.0,0.0,0.0,0.0,0.0,0.0,0.0,0.0,0.0,0.0,0.0,0.0,0.0,0.0,0.0,0.0,0.0,0.0,0.0,0.0,0.0,0.0,0.0,0.0,0.0,0.0,0.0,0.0,0.0,0.0,0.0,0.0,0.0,0.0,0.0,0.0,0.0,0.0,0.0,0.0,0.0,0.0,0.0,0.0,0.0,0.0,0.0,0.0,0.0,0.0,0.0,0.0,0.0,0.0,0.0,0.0,0.0,0.0,0.0,0.0,0.0,0.0,-1.3176,-1.8889,-2.2775,-2.468,-2.4923,-2.3733,0.0,0.0,0.0,0.0,0.0,0.0,0.0,0.0,0.0,0.0,0.0,0.0,0.0,0.0,0.0,0.0,0.0,0.0,0.0,0.0,0.0,0.0,0.0,0.0,0.0,0.0,0.0,0.0,0.0,0.0,0.0,0.0,0.0,0.0,0.0,0.0,0.0,0.0,0.0,0.0,0.0,0.0,0.0,0.0,0.0,0.0,0.0,0.0,0.0,0.0,0.0,0.0,0.0,0.0,0.0,0.0,0.0,0.0,0.0,0.0,0.0,0.0,0.0,0.0,0.0,0.0,0.0,0.0,0.0,0.0,0.0,0.0,0.0,0.0,0.0,0.0,0.0,0.0,0.0,0.0,0.0,0.0,0.0,0.0,0.0,0.0,0.0,0.0,0.0,0.0,0.0,0.0,0.0,0.0,0.0,0.0,0.0,0.0,0.0,0.0,0.0,0.0,0.0,0.0,0.0,0.0,0.0,0.0,0.0,-1.9771,0.0,-2.7363,-2.7896,-2.7218,-2.6039,0.0,0.0,0.0,0.0,0.0,0.0,0.0,0.0,0.0,0.0,0.0,0.0,0.0,0.0,0.0,0.0,0.0,0.0,0.0,0.0,0.0,0.0,0.0,0.0,0.0,0.0,0.0,0.0,0.0,0.0,0.0,0.0,0.0,0.0,0.0,0.0,0.0,0.0,0.0,0.0,0.0,0.0,0.0,0.0,0.0,0.0,0.0,0.0,0.0,0.0,0.0,0.0,0.0,0.0,0.0,0.0,0.0,0.0,0.0,0.0,0.0,0.0,0.0,0.0,0.0,0.0,0.0,0.0,0.0,0.0,0.0,0.0,0.0,0.0,0.0,0.0,0.0,0.0,0.0,0.0,0.0,0.0,0.0,0.0,0.0,0.0,0.0,0.0,0.0,0.0,0.0,0.0,0.0,0.0,0.0,0.0,0.0,0.0,0.0,0.0,0.0,0.0,0.0,0.0,0.0,0.0,0.0,0.0,-1.8693,-2.7482,-2.9168,-2.9995,-3.0289,-2.9298,-2.7736,0.0,0.0,0.0,0.0,0.0,0.0,0.0,0.0,0.0,0.0,0.0,0.0,0.0,0.0,0.0,0.0,0.0,0.0,0.0,0.0,0.0,0.0,0.0,0.0,0.0,0.0,0.0,0.0,0.0,0.0,0.0,0.0,0.0,0.0,0.0,0.0,0.0,0.0,0.0,0.0,0.0,0.0,0.0,0.0,0.0,0.0,0.0,0.0,0.0,0.0,0.0,0.0,0.0,0.0,0.0,0.0,0.0,0.0,0.0,0.0,0.0,0.0,0.0,0.0,0.0,0.0,0.0,0.0,0.0,0.0,0.0,0.0,0.0,0.0,0.0,0.0,0.0,0.0,0.0,0.0,0.0,0.0,0.0,0.0,0.0,0.0,0.0,0.0,0.0,0.0,0.0,0.0,0.0,0.0,0.0,0.0,0.0,0.0,0.0,0.0,0.0,0.0,0.0,0.0,0.0,0.0,0.0,0.0,0.0,-2.9506,-3.1032,-3.187,-3.2033,-3.0393,-2.8449,0.0,0.0,0.0,0.0,0.0,0.0,0.0,0.0,0.0,0.0,0.0,0.0,0.0,0.0,0.0,0.0,0.0,0.0,0.0,0.0,0.0,0.0,0.0,0.0,0.0,0.0,0.0,0.0,0.0,0.0,0.0,0.0,0.0,0.0,0.0,0.0,0.0,0.0,0.0,0.0,0.0,0.0,0.0,0.0,0.0,0.0,0.0,0.0,0.0,0.0,0.0,0.0,0.0,0.0,0.0,0.0,0.0,0.0,0.0,0.0,0.0,0.0,0.0,0.0,0.0,0.0,0.0,0.0,0.0,0.0,0.0,0.0,0.0,0.0,0.0,0.0,0.0,0.0,0.0,0.0,0.0,0.0,0.0,0.0,0.0,0.0,0.0,0.0,0.0,0.0,0.0,0.0,0.0,0.0,0.0,0.0,0.0,0.0,0.0,0.0,0.0,0.0,0.0,0.0,0.0,0.0,0.0,0.0,0.0,-3.2976,-3.3765,-3.4339,-3.4679,-3.2672,-3.0396,-2.7901,0.0,0.0,0.0,0.0,0.0,0.0,0.0,0.0,0.0,0.0,0.0,0.0,0.0,0.0,0.0,0.0,0.0,0.0,0.0,0.0,0.0,0.0,0.0,0.0,0.0,0.0,0.0,0.0,0.0,0.0,0.0,0.0,0.0,0.0,0.0,0.0,0.0,0.0,0.0,0.0,0.0,0.0,0.0,0.0,0.0,0.0,0.0,0.0,0.0,0.0,0.0,0.0,0.0,0.0,0.0,0.0,0.0,0.0,0.0,0.0,0.0,0.0,0.0,0.0,0.0,0.0,0.0,0.0,0.0,0.0,0.0,0.0,0.0,0.0,0.0,0.0,0.0,0.0,0.0,0.0,0.0,0.0,0.0,0.0,0.0,0.0,0.0,0.0,0.0,0.0,0.0,0.0,0.0,0.0,0.0,0.0,0.0,0.0,0.0,0.0,0.0,0.0,0.0,0.0,0.0,0.0,0.0,0.0,-3.7615,-3.7381,-3.7467,-3.7834,-3.5759,-3.324,0.0,0.0,0.0,0.0,0.0,0.0,0.0,0.0,0.0,0.0,0.0,0.0,0.0,0.0,0.0,0.0,0.0,0.0,0.0,0.0,0.0,0.0,0.0,0.0,0.0,0.0,0.0,0.0,0.0,0.0,0.0,0.0,0.0,0.0,0.0,0.0,0.0,0.0,0.0,0.0,0.0,0.0,0.0,0.0,0.0,0.0,0.0,0.0,0.0,0.0,0.0,0.0,0.0,0.0,0.0,0.0,0.0,0.0,0.0,0.0,0.0,0.0,0.0,0.0,0.0,0.0,0.0,0.0,0.0,0.0,0.0,0.0,0.0,0.0,0.0,0.0,0.0,0.0,0.0,0.0,0.0,0.0,0.0,0.0,0.0,0.0,0.0,0.0,0.0,0.0,0.0,0.0,0.0,0.0,0.0,0.0,0.0,0.0,0.0,0.0,0.0,0.0,0.0,0.0,0.0,0.0,0.0,0.0,0.0,-3.9468,-4.1534,-4.184,-4.0286,-3.7065,-3.4139,0.0,0.0,0.0,0.0,0.0,0.0,0.0,0.0,0.0,0.0,0.0,0.0,0.0,0.0,0.0,0.0,0.0,0.0,0.0,0.0,0.0,0.0,0.0,0.0,0.0,0.0,0.0,0.0,0.0,0.0,0.0,0.0,0.0,0.0,0.0,0.0,0.0,0.0,0.0,0.0,0.0,0.0,0.0,0.0,0.0,0.0,0.0,0.0,0.0,0.0,0.0,0.0,0.0,0.0,0.0,0.0,0.0,0.0,0.0,0.0,0.0,0.0,0.0,0.0,0.0,0.0,0.0,0.0,0.0,0.0,0.0,0.0,0.0,0.0,0.0,0.0,0.0,0.0,0.0,0.0,0.0,0.0,0.0,0.0,0.0,0.0,0.0,0.0,0.0,0.0,0.0,0.0,0.0,0.0,0.0,0.0,0.0,0.0,0.0,0.0,0.0,0.0,0.0,0.0,0.0,0.0,0.0,0.0,-3.7642,-4.0404,-4.3474,-4.4471,-4.3152,-3.991,-3.6686,0.0,0.0,0.0,0.0,0.0,0.0,0.0,0.0,0.0,0.0,0.0,0.0,0.0,0.0,0.0,0.0,0.0,0.0,0.0,0.0,0.0,0.0,0.0,0.0,0.0,0.0,0.0,0.0,0.0,0.0,0.0,0.0,0.0,0.0,0.0,0.0,0.0,0.0,0.0,0.0,0.0,0.0,0.0,0.0,0.0,0.0,0.0,0.0,0.0,0.0,0.0,0.0,0.0,0.0,0.0,0.0,0.0,0.0,0.0,0.0,0.0,0.0,0.0,0.0,0.0,0.0,0.0,0.0,0.0,0.0,0.0,0.0,0.0,0.0,0.0,0.0,0.0,0.0,0.0,0.0,0.0,0.0,0.0,0.0,0.0,0.0,0.0,0.0,0.0,0.0,0.0,0.0,0.0,0.0,0.0,0.0,0.0,0.0,0.0,0.0,0.0,0.0,0.0,0.0,0.0,0.0,0.0,0.0,-3.8918,-4.0746,-4.4142,-4.5893,-4.5738,-4.3066,-3.9751,0.0,0.0,0.0,0.0,0.0,0.0,0.0,0.0,0.0,0.0,0.0,0.0,0.0,0.0,0.0,0.0,0.0,0.0,0.0,0.0,0.0,0.0,0.0,0.0,0.0,0.0,0.0,0.0,0.0,0.0,0.0,0.0,0.0,0.0,0.0,0.0,0.0,0.0,0.0,0.0,0.0,0.0,0.0,0.0,0.0,0.0,0.0,0.0,0.0,0.0,0.0,0.0,0.0,0.0,0.0,0.0,0.0,0.0,0.0,0.0,0.0,0.0,0.0,0.0,0.0,0.0,0.0,0.0,0.0,0.0,0.0,0.0,0.0,0.0,0.0,0.0,0.0,0.0,0.0,0.0,0.0,0.0,0.0,0.0,0.0,0.0,0.0,0.0,0.0,0.0,0.0,0.0,0.0,0.0,0.0,0.0,0.0,0.0,0.0,0.0,0.0,0.0,0.0,0.0,0.0,0.0,0.0,0.0,-3.9882,-4.1707,-4.5013,-4.6451,-4.5806,-4.2476,-3.9581,0.0,0.0,0.0,0.0,0.0,0.0,0.0,0.0,0.0,0.0,0.0,0.0,0.0,0.0,0.0,0.0,0.0,0.0,0.0,0.0,0.0,0.0,0.0,0.0,0.0,0.0,0.0,0.0,0.0,0.0,0.0,0.0,0.0,0.0,0.0,0.0,0.0,0.0,0.0,0.0,0.0,0.0,0.0,0.0,0.0,0.0,0.0,0.0,-4.1232,0.0,0.0,0.0,0.0,0.0,0.0,0.0,0.0,0.0,0.0,0.0,0.0,0.0,0.0,0.0,0.0,0.0,0.0,0.0,0.0,0.0,0.0,0.0,0.0,0.0,0.0,0.0,0.0,0.0,0.0,0.0,0.0,0.0,0.0,0.0,0.0,0.0,0.0,0.0,0.0,0.0,0.0,0.0,0.0,0.0,0.0,0.0,0.0,0.0,0.0,0.0,0.0,0.0,0.0,0.0,0.0,0.0,0.0,0.0,-4.0184,-4.2045,-4.486,-4.6167,-4.5738,-4.3122,-4.0603,0.0,0.0,0.0,0.0,0.0,0.0,0.0,0.0,0.0,0.0,0.0,0.0,0.0,0.0,0.0,0.0,0.0,0.0,0.0,0.0,0.0,0.0,0.0,0.0,0.0,0.0,0.0,0.0,0.0,0.0,0.0,0.0,0.0,0.0,0.0,0.0,0.0,0.0,0.0,0.0,0.0,0.0,0.0,0.0,0.0,0.0,0.0,0.0,0.0,0.0,0.0,0.0,0.0,0.0,0.0,0.0,0.0,0.0,0.0,0.0,0.0,0.0,0.0,0.0,0.0,0.0,0.0,0.0,0.0,0.0,0.0,0.0,0.0,0.0,0.0,0.0,0.0,0.0,0.0,0.0,0.0,0.0,0.0,0.0,0.0,0.0,0.0,0.0,0.0,0.0,0.0,0.0,0.0,0.0,0.0,0.0,0.0,0.0,0.0,0.0,0.0,0.0,0.0,0.0,0.0,0.0,0.0,-3.7762,-4.0461,-4.2471,-4.4467,-4.5604,-4.5768,-4.3979,-4.1753,-3.9049,0.0,0.0,0.0,0.0,0.0,0.0,0.0,0.0,0.0,0.0,0.0,0.0,0.0,0.0,0.0,0.0,0.0,0.0,0.0,0.0,0.0,0.0,0.0,0.0,0.0,0.0,0.0,0.0,0.0,0.0,0.0,0.0,0.0,0.0,0.0,0.0,0.0,0.0,-3.451,-3.8482,0.0,0.0,0.0,0.0,0.0,0.0,0.0,0.0,-4.4476,0.0,0.0,0.0,0.0,0.0,0.0,0.0,0.0,0.0,0.0,0.0,0.0,0.0,0.0,0.0,0.0,0.0,0.0,0.0,0.0,0.0,0.0,0.0,0.0,0.0,0.0,0.0,0.0,0.0,0.0,0.0,0.0,0.0,0.0,0.0,0.0,0.0,0.0,0.0,0.0,0.0,0.0,0.0,0.0,0.0,0.0,0.0,0.0,0.0,0.0,0.0,0.0,0.0,0.0,0.0,0.0,-3.6026,-3.8936,-4.1647,-4.4206,-4.487,-4.5365,-4.5722,-4.3772,-4.153,-3.9102,0.0,0.0,0.0,0.0,0.0,0.0,0.0,0.0,0.0,0.0,0.0,0.0,0.0,0.0,0.0,0.0,0.0,0.0,0.0,0.0,0.0,0.0,0.0,0.0,0.0,0.0,0.0,0.0,0.0,0.0,0.0,0.0,0.0,0.0,0.0,0.0,0.0,0.0,0.0,-4.2783,-4.5228,0.0,0.0,0.0,0.0,0.0,0.0,0.0,0.0,-4.6661,0.0,0.0,0.0,0.0,0.0,0.0,0.0,0.0,0.0,0.0,0.0,0.0,0.0,0.0,0.0,0.0,0.0,0.0,0.0,0.0,0.0,0.0,0.0,0.0,0.0,0.0,0.0,0.0,0.0,0.0,0.0,0.0,0.0,0.0,0.0,0.0,0.0,0.0,0.0,0.0,0.0,0.0,0.0,0.0,0.0,0.0,0.0,0.0,0.0,0.0,0.0,0.0,0.0,0.0,0.0,-3.5844,-3.9472,-4.22,-4.3975,-4.4739,-4.5152,-4.5146,-4.3509,-4.13,0.0,0.0,0.0,0.0,0.0,0.0,0.0,0.0,0.0,0.0,0.0,0.0,0.0,0.0,0.0,0.0,0.0,0.0,0.0,0.0,0.0,0.0,0.0,0.0,0.0,0.0,0.0,0.0,0.0,0.0,0.0,0.0,0.0,0.0,0.0,0.0,0.0,0.0,0.0,0.0,-4.5298,-4.7769,-4.9671,0.0,0.0,0.0,0.0,0.0,0.0,-4.8825,-4.8279,0.0,0.0,0.0,0.0,0.0,0.0,0.0,0.0,0.0,0.0,0.0,0.0,0.0,0.0,0.0,0.0,0.0,0.0,0.0,0.0,0.0,0.0,0.0,0.0,0.0,0.0,0.0,0.0,0.0,0.0,0.0,0.0,0.0,0.0,0.0,0.0,0.0,0.0,0.0,0.0,0.0,0.0,0.0,0.0,0.0,0.0,0.0,0.0,0.0,0.0,0.0,0.0,0.0,0.0,0.0,-3.5579,-3.9646,-4.2225,-4.3276,-4.4229,-4.4507,-4.3992,-4.2821,-4.0716,0.0,0.0,0.0,0.0,0.0,0.0,0.0,0.0,0.0,0.0,0.0,0.0,0.0,0.0,0.0,0.0,0.0,0.0,0.0,0.0,0.0,0.0,0.0,0.0,0.0,0.0,0.0,0.0,0.0,0.0,0.0,0.0,0.0,0.0,0.0,0.0,0.0,0.0,0.0,0.0,0.0,-4.9722,-5.2532,-5.1011,0.0,0.0,0.0,0.0,-5.0104,-5.0392,0.0,0.0,0.0,0.0,0.0,0.0,0.0,0.0,0.0,0.0,0.0,0.0,0.0,0.0,0.0,0.0,0.0,0.0,0.0,0.0,0.0,0.0,0.0,0.0,0.0,0.0,0.0,0.0,0.0,0.0,0.0,0.0,0.0,0.0,0.0,0.0,0.0,0.0,0.0,0.0,0.0,0.0,0.0,0.0,0.0,0.0,0.0,0.0,0.0,0.0,0.0,0.0,0.0,0.0,0.0,0.0,-3.644,-3.9346,-4.1507,-4.2811,-4.3278,-4.3024,-4.1988,-4.1115,-3.9426,0.0,0.0,0.0,0.0,0.0,0.0,0.0,0.0,0.0,0.0,0.0,0.0,0.0,0.0,0.0,0.0,0.0,0.0,0.0,0.0,0.0,0.0,0.0,0.0,0.0,0.0,0.0,0.0,0.0,0.0,0.0,0.0,0.0,0.0,0.0,0.0,0.0,0.0,0.0,0.0,0.0,-5.0842,-5.4079,-5.3138,-5.2044,0.0,0.0,-5.1841,-5.2722,-5.3455,0.0,0.0,0.0,0.0,0.0,0.0,0.0,0.0,0.0,0.0,0.0,0.0,0.0,0.0,0.0,0.0,0.0,0.0,0.0,0.0,0.0,0.0,0.0,0.0,0.0,0.0,0.0,0.0,0.0,0.0,0.0,0.0,0.0,0.0,0.0,0.0,0.0,0.0,0.0,0.0,0.0,0.0,0.0,0.0,0.0,0.0,0.0,0.0,0.0,0.0,0.0,0.0,0.0,0.0,0.0,-3.3699,-3.5981,-3.9126,-4.1179,-4.204,-4.2414,-4.2152,-4.1218,-4.0156,-3.8474,0.0,0.0,0.0,0.0,0.0,0.0,0.0,0.0,0.0,0.0,0.0,0.0,0.0,0.0,0.0,0.0,0.0,0.0,0.0,0.0,0.0,0.0,0.0,0.0,0.0,0.0,0.0,0.0,0.0,0.0,0.0,0.0,0.0,0.0,0.0,0.0,0.0,0.0,0.0,0.0,0.0,0.0,-5.5247,-5.5003,0.0,0.0,0.0,-5.328,-5.2665,0.0,0.0,0.0,0.0,0.0,0.0,0.0,0.0,0.0,0.0,0.0,0.0,0.0,0.0,0.0,0.0,0.0,0.0,0.0,0.0,0.0,0.0,0.0,0.0,0.0,0.0,0.0,0.0,0.0,0.0,0.0,0.0,0.0,0.0,0.0,0.0,0.0,0.0,0.0,0.0,0.0,0.0,0.0,0.0,0.0,0.0,0.0,0.0,0.0,0.0,0.0,0.0,0.0,0.0,0.0,0.0,0.0,-3.5839,-3.8812,-4.0558,-4.1031,-4.1651,-4.14,-4.0185,-3.9551,0.0,0.0,0.0,0.0,0.0,0.0,0.0,0.0,0.0,0.0,0.0,0.0,0.0,0.0,0.0,0.0,0.0,0.0,0.0,0.0,0.0,0.0,0.0,0.0,0.0,0.0,0.0,-3.2362,0.0,0.0,0.0,0.0,0.0,0.0,0.0,0.0,0.0,0.0,0.0,0.0,0.0,0.0,-5.3327,-5.5886,-5.6328,-5.6364,0.0,0.0,-5.4304,-5.255,-5.3338,-5.3087,0.0,0.0,0.0,0.0,0.0,0.0,0.0,0.0,0.0,0.0,0.0,0.0,0.0,0.0,0.0,0.0,0.0,0.0,0.0,0.0,0.0,0.0,0.0,0.0,0.0,0.0,0.0,0.0,0.0,0.0,0.0,0.0,0.0,0.0,0.0,0.0,0.0,0.0,0.0,0.0,0.0,0.0,0.0,0.0,0.0,0.0,0.0,0.0,0.0,0.0,0.0,0.0,0.0,0.0,-3.4961,-3.6699,-3.8291,-3.9327,-3.9766,-4.0974,-4.051,-3.8231,-3.921,-3.812,0.0,0.0,0.0,0.0,0.0,0.0,0.0,0.0,0.0,0.0,0.0,0.0,0.0,0.0,0.0,0.0,0.0,0.0,0.0,0.0,0.0,0.0,0.0,0.0,0.0,0.0,0.0,0.0,0.0,0.0,0.0,0.0,0.0,0.0,0.0,0.0,0.0,0.0,0.0,0.0,0.0,-5.3284,-5.5663,-5.6703,-5.7144,0.0,-5.6248,-5.5111,-5.3396,-5.5126,-5.5068,-5.0183,0.0,0.0,0.0,0.0,0.0,0.0,0.0,0.0,0.0,0.0,0.0,0.0,0.0,0.0,0.0,0.0,0.0,0.0,0.0,0.0,0.0,0.0,0.0,0.0,0.0,0.0,0.0,0.0,0.0,0.0,0.0,0.0,0.0,0.0,0.0,0.0,0.0,0.0,0.0,0.0,0.0,0.0,0.0,0.0,0.0,0.0,0.0,0.0,0.0,0.0,0.0,0.0,0.0,-3.5053,-3.6532,-3.8125,-3.907,-3.9296,-3.9509,-3.8935,-3.7524,-3.7718,-3.6579,0.0,0.0,0.0,0.0,0.0,0.0,0.0,0.0,0.0,0.0,0.0,0.0,0.0,0.0,0.0,0.0,0.0,0.0,0.0,0.0,0.0,0.0,0.0,0.0,0.0,0.0,0.0,0.0,-3.4513,-3.4994,-3.4609,0.0,0.0,0.0,0.0,0.0,0.0,0.0,0.0,0.0,0.0,-5.2363,-5.4812,-5.5803,0.0,0.0,-5.5609,-5.5147,-5.3453,-5.3549,-5.2837,-4.9875,-4.7375,0.0,0.0,0.0,0.0,0.0,0.0,0.0,0.0,0.0,0.0,0.0,0.0,0.0,0.0,0.0,0.0,0.0,0.0,0.0,0.0,0.0,0.0,0.0,0.0,0.0,0.0,0.0,0.0,0.0,0.0,0.0,0.0,0.0,0.0,0.0,0.0,0.0,0.0,0.0,0.0,0.0,0.0,0.0,0.0,0.0,0.0,0.0,0.0,0.0,0.0,0.0,0.0,-3.5165,-3.7065,-3.8072,-3.8864,-3.9434,-3.8891,-3.8158,-3.7228,-3.6974,-3.5887,0.0,0.0,0.0,0.0,0.0,0.0,0.0,0.0,0.0,0.0,0.0,0.0,0.0,0.0,0.0,0.0,0.0,0.0,0.0,0.0,0.0,0.0,0.0,0.0,0.0,0.0,0.0,0.0,-3.6178,-3.652,-3.5528,0.0,0.0,0.0,0.0,0.0,0.0,0.0,0.0,0.0,0.0,-5.1892,-5.3602,-5.4477,-5.4741,-5.4184,-5.4145,-5.3799,-5.2626,-5.1722,-5.0587,-4.8933,0.0,0.0,0.0,0.0,0.0,0.0,0.0,0.0,0.0,0.0,0.0,0.0,0.0,0.0,0.0,0.0,0.0,0.0,0.0,0.0,0.0,0.0,0.0,0.0,0.0,0.0,0.0,0.0,0.0,0.0,-3.307,0.0,0.0,0.0,0.0,0.0,0.0,0.0,0.0,0.0,0.0,0.0,0.0,0.0,0.0,0.0,0.0,0.0,0.0,0.0,0.0,0.0,0.0,-3.535,-3.8572,-3.8188,-3.8707,-4.0161,-3.9487,-3.8456,-3.7243,-3.744,-3.6569,-3.4532,0.0,0.0,0.0,0.0,0.0,0.0,0.0,0.0,0.0,0.0,0.0,0.0,0.0,0.0,0.0,0.0,0.0,0.0,0.0,0.0,0.0,0.0,0.0,0.0,0.0,0.0,-3.7559,-3.7508,-3.7013,0.0,0.0,0.0,0.0,0.0,0.0,0.0,0.0,0.0,0.0,-5.0012,-5.2082,-5.2124,-5.2762,-5.3203,-5.3203,-5.1856,-5.0818,-5.0818,-5.0048,-4.8875,0.0,0.0,0.0,0.0,0.0,0.0,0.0,0.0,0.0,0.0,0.0,0.0,0.0,0.0,0.0,0.0,0.0,0.0,0.0,0.0,0.0,0.0,0.0,0.0,0.0,0.0,0.0,-3.7472,-3.7778,0.0,0.0,0.0,0.0,0.0,0.0,0.0,0.0,0.0,0.0,0.0,-3.9585,-3.903,0.0,0.0,0.0,0.0,0.0,0.0,0.0,0.0,0.0,0.0,0.0,0.0,-3.6274,-3.8139,-3.8527,-3.896,-3.9469,-3.842,-3.7476,-3.6701,-3.6405,-3.5725,-3.4523,0.0,0.0,0.0,0.0,0.0,0.0,0.0,0.0,0.0,0.0,0.0,0.0,0.0,0.0,0.0,0.0,0.0,0.0,0.0,0.0,0.0,0.0,0.0,0.0,0.0,-3.6853,0.0,0.0,0.0,0.0,0.0,0.0,0.0,0.0,0.0,0.0,0.0,-4.5336,-4.7561,-4.8771,-4.9643,-5.0183,-5.0491,-5.0875,0.0,0.0,0.0,0.0,0.0,0.0,0.0,0.0,0.0,0.0,0.0,0.0,0.0,0.0,-4.5893,-4.4201,-4.3662,-4.3624,-4.4201,0.0,0.0,0.0,0.0,0.0,0.0,0.0,0.0,0.0,0.0,0.0,0.0,0.0,0.0,-3.949,0.0,-3.8798,0.0,0.0,0.0,0.0,0.0,0.0,0.0,0.0,-4.0752,-4.12,-4.1289,-4.0919,-4.0602,0.0,-3.9751,-3.8118,0.0,0.0,0.0,0.0,0.0,0.0,0.0,0.0,-3.6517,-3.7832,-3.8405,-3.8829,-3.9029,-3.7676,-3.6764,-3.6416,-3.5898,-3.522,-3.4413,-3.4024,-3.3532,0.0,0.0,0.0,0.0,0.0,0.0,0.0,0.0,0.0,0.0,0.0,0.0,0.0,0.0,0.0,0.0,0.0,0.0,0.0,0.0,0.0,0.0,0.0,-3.7147,0.0,0.0,0.0,0.0,0.0,0.0,0.0,0.0,0.0,-4.3263,-4.4088,-4.5435,-4.7665,-4.803,-4.8145,-4.8394,0.0,0.0,0.0,0.0,0.0,0.0,0.0,-4.7413,-4.6586,-4.6701,-4.7009,-4.7278,-4.7528,-4.7413,-4.6586,0.0,0.0,-4.5105,-4.522,-4.572,-4.599,-4.5817,-4.572,-4.599,-4.5355,-4.4662,0.0,0.0,0.0,0.0,0.0,0.0,0.0,0.0,-4.1276,-4.0794,0.0,-4.0385,0.0,0.0,0.0,0.0,0.0,-4.0288,0.0,0.0,-4.3169,-4.3768,-4.2814,-4.2449,-4.2146,-4.1698,-4.0659,-4.005,-3.9731,-3.686,0.0,0.0,0.0,0.0,0.0,0.0,-3.6157,-3.7692,-3.7908,-3.8325,-3.8977,-3.7369,-3.6416,-3.6374,-3.5898,-3.5232,-3.4372,-3.4996,-3.4654,-3.3091,-3.3526,0.0,0.0,0.0,0.0,0.0,0.0,0.0,0.0,0.0,0.0,0.0,0.0,0.0,0.0,0.0,0.0,0.0,0.0,0.0,0.0,-3.7385,0.0,0.0,0.0,0.0,0.0,0.0,0.0,0.0,0.0,0.0,-4.3672,-4.4436,-4.562,-4.7247,0.0,0.0,0.0,0.0,-4.6874,-4.6932,-4.6182,-4.5932,-4.6817,-4.6894,-4.6586,-4.574,0.0,0.0,-4.8202,-4.7451,-4.6721,-4.5817,-4.6432,-4.6644,-4.574,-4.6817,-4.7663,-4.7086,-4.7432,-4.7721,-4.7086,-4.624,-4.5413,-4.6086,0.0,0.0,0.0,0.0,-4.1819,-4.2409,-4.3388,-4.2853,-4.2784,-4.2986,-4.224,0.0,0.0,0.0,0.0,0.0,0.0,-4.1808,-4.3335,-4.4075,-4.4528,-4.4727,-4.3551,-4.2938,-4.2799,-4.1464,-4.0515,-3.9877,-3.8437,-3.7043,-3.5781,0.0,0.0,0.0,0.0,-3.7497,-3.8416,-3.848,-3.8515,-3.8592,-3.7542,-3.6603,-3.5854,-3.6071,-3.6059,-3.5775,-3.556,-3.5236,-3.4607,-3.343,0.0,0.0,0.0,0.0,0.0,0.0,0.0,0.0,0.0,0.0,0.0,0.0,0.0,0.0,0.0,0.0,0.0,0.0,0.0,-3.6508,-3.6447,-3.6737,0.0,0.0,0.0,0.0,0.0,0.0,0.0,0.0,0.0,-4.3687,-4.444,-4.5328,0.0,0.0,-4.5972,-4.5821,-4.5898,-4.6182,-4.6817,-4.6163,0.0,0.0,-4.6374,-4.5893,-4.5624,-4.6721,-4.7548,-4.7298,-4.7528,-4.749,-4.6663,-4.7221,-4.7298,-4.597,-4.6471,-4.7298,-4.7625,-4.7509,-4.7413,-4.7625,-4.7105,-4.6451,-4.8182,-4.6201,-4.4701,-4.4068,-4.3957,-4.3309,-4.3632,-4.4595,-4.4136,-4.3992,-4.4058,-4.3829,-4.2889,-4.1478,-4.0989,0.0,0.0,0.0,-4.271,-4.3888,-4.4196,-4.4429,-4.453,-4.349,-4.291,-4.2743,-4.1444,-4.0664,-4.0359,-3.9239,-3.826,-3.7316,0.0,0.0,-3.5763,-3.6979,-3.7834,-3.8254,-3.7858,-3.7736,-3.7901,-3.7246,-3.6527,-3.5759,-3.6348,-3.6663,-3.6541,-3.6165,-3.5728,-3.5178,-3.4,-3.3136,0.0,0.0,0.0,0.0,0.0,0.0,0.0,0.0,0.0,0.0,0.0,-3.4366,-3.4365,0.0,0.0,0.0,-3.5154,-3.5703,-3.5639,-3.6073,0.0,0.0,0.0,0.0,0.0,0.0,0.0,-4.2184,-4.2772,-4.3304,-4.3689,-4.4181,-4.485,-4.5802,-4.5428,-4.5159,-4.54,0.0,-4.5778,-4.6317,-4.5951,-4.5778,-4.6297,-4.624,-4.622,-4.6528,-4.674,-4.6894,-4.6932,-4.7317,-4.7317,-4.6682,-4.6778,-4.6797,-4.5778,-4.6028,-4.6644,-4.7451,-4.7509,-4.7471,-4.7625,-4.724,-4.6817,-4.949,-4.9279,-4.6817,-4.5759,-4.5607,-4.44,-4.4372,-4.5118,-4.5096,-4.4636,-4.395,-4.5093,-4.4664,-4.3111,-4.3107,0.0,-4.2066,-4.3528,-4.3816,-4.3201,-4.3893,-4.3816,-4.3088,-4.2642,-4.2259,-4.1982,-4.0772,-4.0463,-4.0845,-3.9405,-3.8707,-3.8652,-3.7147,-3.6395,-3.6431,-3.714,-3.7496,-3.7496,-3.6548,-3.6362,-3.7053,-3.6509,-3.608,-3.5842,-3.6643,-3.6898,-3.6618,-3.6576,-3.6046,-3.4962,-3.4724,-3.3862,-3.232,0.0,0.0,0.0,0.0,0.0,0.0,0.0,0.0,0.0,0.0,0.0,0.0,0.0,0.0,0.0,-3.5321,0.0,-3.4183,-3.6195,0.0,0.0,0.0,-4.0163,-4.0348,-4.1705,-4.2699,-4.2754,0.0,0.0,-4.3634,-4.3749,-4.4296,-4.5463,-4.5199,-4.503,-4.5438,-4.555,-4.5586,-4.5643,-4.5605,-4.5566,-4.5528,-4.6047,-4.6624,-4.7124,-4.7124,-4.6605,-4.6471,-4.649,-4.622,-4.549,-4.5393,-4.5374,-4.5374,-4.5316,-4.5643,-4.6374,-4.7221,-4.7586,-4.6701,-4.649,-4.6278,-5.0375,-5.0202,-4.8317,-4.7144,-4.6491,-4.53,-4.5051,-4.5438,-4.522,-4.5107,-4.5169,-4.5472,-4.5009,-4.3934,-4.3374,-4.3316,-4.3701,-4.3489,-4.3605,-4.397,-4.3566,-4.3278,-4.3049,-4.2068,-4.1549,-4.1407,-4.0065,-3.9454,-3.9556,-3.8988,-3.8707,-3.8652,-3.7698,-3.7202,-3.7202,-3.7386,-3.7496,-3.7496,-3.6656,-3.6105,-3.589,-3.5072,-3.4756,-3.4958,-3.5595,-3.5867,-3.5786,-3.5539,-3.4997,-3.4119,-3.2908,-3.1986,-3.1482,-3.1356,0.0,0.0,0.0,0.0,0.0,0.0,0.0,0.0,0.0,-3.4431,-3.4636,0.0,-3.5308,0.0,-3.4877,-3.5373,-3.6523,-3.7158,0.0,0.0,-3.9234,-3.9866,-4.1673,-4.1673,-4.2023,-4.3277,-4.3523,-4.36,-4.3513,-4.3566,-4.3897,-4.4737,-4.4815,-4.4985,-4.5381,-4.5513,-4.5586,-4.5547,-4.5528,-4.5355,-4.4759,-4.4778,-4.4816,-4.4335,-4.4643,-4.4701,-4.4105,-4.4008,-4.3912,-4.3739,-4.3701,-4.3701,-4.3701,-4.3682,-4.3778,-4.4066,-4.5163,-4.574,-4.4335,-4.4509,-4.4701,-4.9875,-4.9433,-4.8125,-4.7298,-4.6818,-4.5764,-4.5419,-4.5586,-4.54,-4.5419,-4.5586,-4.5586,-4.5336,-4.4855,-4.4412,-4.4239,-4.4259,-4.3835,-4.347,-4.3162,-4.272,-4.2316,-4.1931,-4.1257,-4.0883,-4.073,-3.9406,-3.8714,-3.854,-3.794,-3.7643,-3.7606,-3.7184,-3.6964,-3.6964,-3.6945,-3.6945,-3.6945,-3.6291,-3.546,-3.4537,-3.4621,-3.4764,-3.4828,-3.5444,-3.5605,-3.526,-3.502,-3.454,-3.3735,-3.2865,-3.2163,-3.1728,-3.1601,-3.1299,0.0,0.0,0.0,0.0,0.0,0.0,0.0,0.0,0.0,0.0,0.0,-3.4902,-3.4688,-3.5026,-3.5782,-3.7025,-3.7476,-3.8154,-3.9276,-3.9307,-3.9829,-4.114,-4.1213,-4.1489,-4.239,-4.2466,-4.2433,-4.2415,-4.2433,-4.2659,-4.3175,-4.346,-4.3908,-4.4691,-4.4685,-4.4489,-4.4489,-4.4489,-4.4335,-4.3816,-4.3758,-4.3624,-4.3239,-4.347,-4.3489,-4.2681,-4.2527,-4.2393,-4.2027,-4.1931,-4.195,-4.195,-4.2297,-4.2431,-4.22,-4.2989,-4.3605,-4.322,-4.3143,-4.3008,-4.8779,-4.8029,-4.724,-4.6913,-4.6817,-4.597,-4.5586,-4.5586,-4.5586,-4.5586,-4.5586,-4.5586,-4.5547,-4.5432,-4.5432,-4.497,-4.4162,-4.4028,-4.3201,-4.1835,-4.1681,-4.1239,-4.0508,-4.0392,-4.0219,-3.9948,-3.8793,-3.8108,-3.7779,-3.6786,-3.6285,-3.6285,-3.6174,-3.6138,-3.6138,-3.6028,-3.5973,-3.5973,-3.5447,-3.4573,-3.3327,-3.4519,-3.5102,-3.4871,-3.5465,-3.5454,-3.4778,-3.4655,-3.4262,-3.3468,-3.3413,-3.2956,-3.1991,-3.2004,-3.1577,0.0,-3.1191,0.0,0.0,0.0,0.0,0.0,0.0,0.0,0.0,-3.455,-3.4428,-3.48,-3.5541,-3.6202,-3.669,-3.7424,-3.8099,-3.8645,-3.9239,-3.9662,-3.9863,-4.0451,-4.0836,-4.0946,-4.0946,-4.0946,-4.0983,-4.0965,-4.107,-4.1464,-4.1668,-4.2132,-4.3234,-4.3319,-4.322,-4.3085,-4.2989,-4.3008,-4.2931,-4.2931,-4.2835,-4.2643,-4.2604,-4.2412,-4.1393,-4.1239,-4.1046,-4.0354,-4.0181,-4.0181,-4.0162,-4.0777,-4.1008,-4.0335,-4.0816,-4.1546,-4.2162,-4.1912,-4.1489,-4.8259,-4.8029,-4.724,-4.6913,-4.6836,-4.5951,-4.5586,-4.5586,-4.5586,-4.5586,-4.5586,-4.5586,-4.522,-4.4566,-4.4547,-4.4105,-4.3297,-4.2604,-4.2104,-4.1777,-4.1066,-4.0662,-4.045,-3.9831,-3.9512,-3.9353,-3.8021,-3.7313,-3.7246,-3.6618,-3.6285,-3.6285,-3.5605,-3.5247,-3.5192,0.0,0.0,0.0,-3.3844,-3.3669,-3.3671,-3.3651,-3.3789,-3.4,-3.4092,0.0,-3.387,-3.3767,-3.3346,-3.2545,-3.235,0.0,0.0,0.0,0.0,0.0,0.0,0.0,0.0,0.0,0.0,0.0,-3.1965,-3.2735,-3.4329,-3.5448,-3.5941,-3.5563,-3.6215,-3.6712,-3.671,-3.7408,-3.8117,-3.8609,-3.8267,-3.845,-3.968,-3.9478,-3.9405,-4.0029,-4.012,-4.012,-4.0065,-4.012,-4.0204,-4.0449,-4.0246,-3.9977,-3.9986,-4.1714,-4.2989,-4.3047,-4.2335,-4.2027,-4.2047,-4.1989,-4.1431,-4.0527,-4.0604,-4.0354,-3.9123,-3.8777,-3.8738,-3.8411,-3.8469,-3.8411,-3.843,-3.8623,-3.8661,-3.8488,-3.8604,-3.8988,-3.9815,-3.9892,-3.9565,-4.724,0.0,-4.6432,-4.6259,0.0,-4.5778,-4.5586,-4.5586,-4.5586,-4.5586,-4.5566,-4.5143,-4.4701,-4.4278,-4.3893,-4.3258,-4.245,-4.2008,-4.1566,-4.1123,-4.0296,-3.9892,-3.9892,-3.9046,-3.8597,-3.8408,-3.7128,-3.6424,-3.6269,-3.5047,-3.4468,-3.4449,-3.3642,-3.322,-3.322,-3.2816,-3.2999,-3.3788,-3.3597,-3.3578,-3.378,-3.3606,-3.3578,-3.3788,0.0,0.0,0.0,0.0,0.0,0.0,0.0,0.0,0.0,0.0,0.0,-3.0436,-3.0924,-3.1215,-3.107,-3.0671,-3.0771,-3.1449,-3.1842,-3.2415,-3.3421,-3.4404,-3.4902,-3.4605,-3.4938,-3.5353,-3.574,-3.6112,-3.6705,-3.7369,-3.7147,-3.7257,-3.7918,-3.7771,-3.7661,-3.8028,-3.8138,-3.812,-3.812,-3.812,-3.8261,-3.8505,-3.8445,-3.8291,-3.8347,-3.9533,-4.0566,-4.0585,-4.0277,-3.9931,-3.9912,-3.9931,-3.9738,-3.8911,-3.8988,-3.8527,-3.7046,-3.6757,-3.6507,-3.5757,-3.5488,-3.5468,-3.5507,-3.5815,-3.6122,-3.6122,-3.6122,-3.6238,-3.6719,-3.7123,-3.7315,-4.624,-4.5586,-4.5586,-4.5586,-4.5586,-4.5586,-4.5586,-4.5586,0.0,0.0,0.0,-4.4682,-4.422,-4.4028,-4.3239,-4.2335,-4.1393,-4.1373,-4.0893,-4.0027,-3.9373,-3.9065,-3.9027,-3.818,-3.7613,-3.7315,-3.6234,-3.5453,-3.5011,-3.34,-3.2515,-3.2339,-3.1715,-3.1403,-3.1403,-3.1403,-3.2027,-3.3293,-3.3366,-3.3385,-3.3385,-3.3385,-3.3385,-3.3366,-3.3232,-3.3063,-3.2865,-3.2585,-3.2314,-3.2072,-3.1933,-3.1724,-3.1516,-3.1498,-3.1114,-3.0282,-3.0209,-3.015,-3.0003,-2.9442,-2.9593,-3.0734,-3.136,-3.1896,-3.231,-3.2981,-3.3355,-3.322,-3.3322,-3.3791,-3.473,-3.4659,-3.493,-3.5776,-3.5844,-3.5844,-3.5881,-3.6009,-3.6119,-3.6064,-3.6138,-3.6083,-3.6138,-3.6138,-3.6187,-3.6452,-3.6813,-3.6914,-3.7164,-3.7785,-3.8315,-3.8315,-3.8392,-3.8123,-3.8027,-3.793,-3.7738,-3.7584,-3.7392,-3.6757,-3.5493,-3.5045,-3.4468,-3.3449,-3.2929,-3.3026,-3.3006,-3.3641,-3.3949,-3.3949,-3.3968,-3.3968,-3.4007,-3.441,-3.4853,-4.5701,-4.5586,-4.5586,-4.5586,-4.5586,-4.5586,-4.5586,-4.5586,-4.5586,-4.5586,-4.5528,-4.4682,-4.3912,-4.322,-4.2354,-4.1123,-3.9681,-3.9642,-3.9181,0.0,-3.8238,-3.818,-3.8123,-3.7296,-3.6731,-3.6401,-3.54,-3.4341,-3.338,-3.2822,-3.2265,-3.1623,-3.1439,-3.1384,-3.1403,-3.1403,-3.1494,-3.1715,-3.1733,-3.1715,-3.1733,-3.1733,-3.1733,-3.1733,-3.1338,-3.1394,-3.1882,-3.0906,-3.0582,-3.1045,-3.0419,-2.9676,-2.8953,-2.942,-2.9228,-2.8353,-2.8827,-2.92,-2.9163,-2.9062,-2.9096,-2.9299,-2.9417,-3.001,-3.1297,-3.2611,-3.3136,-3.2544,-3.2916,-3.3791,-3.4605,-3.4076,-3.3806,-3.4091,-3.4137,-3.4156,-3.4156,-3.4761,-3.5128,-3.5045,-3.5174,-3.5137,-3.5073,-3.5064,-3.5174,-3.5547,-3.5675,-3.595,-3.5978,-3.7055,-3.7911,-3.8007,-3.8007,-3.8007,-3.7584,-3.7296,-3.6565,-3.5968,-3.5276,-3.4603,-3.3583,-3.3314,-3.3141,-3.291,-3.2602,-3.2641,-3.2699,-3.2968,-3.2891,-3.2833,-3.2872,-3.2929,-3.2929,-3.2718,-3.2564,-4.5586,-4.5586,-4.5586,-4.5586,-4.5586,-4.5586,-4.5316,-4.4893,-4.4893,-4.4893,-4.4739,-4.3508,-4.2739,-4.2297,-4.1046,-4.0046,-3.9277,-3.8796,-3.8373,-3.7969,-3.7526,-3.7296,-3.7161,-3.5949,-3.5215,-3.4876,-3.3866,-3.2989,-3.2356,-3.166,-3.1109,-3.0723,-3.032,-3.0099,-3.0099,-3.0099,-3.0099,-3.0118,-3.0944,-3.1309,-3.1128,-3.1128,-3.1011,-3.0802,-3.0586,-3.051,-3.0536,-3.0062,-2.978,-2.9849,-2.9522,-2.9109,-2.8732,-2.8968,-2.8744,-2.7892,-2.7757,-2.7926,-2.8332,-2.8738,-2.845,-2.7317,-2.8298,-2.8704,-2.818,-2.9922,-3.0852,-3.0531,-3.0818,-3.1356,-3.2206,-3.1986,-3.1946,-3.247,-3.2485,-3.2485,-3.2577,-3.322,-3.3513,-3.3201,-3.3431,-3.355,-3.3109,-3.3054,-3.3147,-3.345,-3.3823,-3.408,-3.4101,-3.4699,-3.5411,-3.5776,-3.5545,-3.5238,-3.5257,-3.493,-3.4507,-3.4122,-3.3776,-3.316,-3.2391,-3.1929,-3.1583,-3.1448,-3.0891,-3.0448,-3.0737,-3.0448,-3.041,-3.0775,-3.0833,-3.0948,-3.1295,-3.1218,-3.1179,-4.5586,-4.5586,-4.5586,-4.5586,-4.5566,-4.5374,-4.4913,-4.4297,-4.3912,-4.3624,-4.3278,-4.2258,-4.17,-4.1354,-3.995,-3.9084,-3.8661,-3.8007,-3.7603,-3.7373,-3.6757,-3.6334,-3.6065,-3.4949,-3.4146,-3.3456,-3.275,-3.2123,-3.1407,-3.0604,-3.0099,-2.9879,-2.9127,-2.8741,-2.8741,-2.8517,-2.8421,-2.8429,-2.9564,-3.0225,-3.0351,-3.0342,-3.014,-2.9775,-2.949,-2.9365,-2.9294,-2.8935,-2.863,-2.8469,-2.8315,-2.8129,-2.8029,-2.8012,-2.7706,-2.7097,-2.6522,-2.6437,-2.7029,-2.7621,-2.7215,-2.5558,-2.6962,-2.7215,-2.5778,-2.6945,-2.8096,-2.8213,-2.8772,-2.9315,-2.9796,-2.9849,-3.0131,-3.0888,-3.0991,-3.1071,-3.1201,-3.1843,-3.2118,-3.1586,-3.1953,-3.21,-3.1568,-3.1403,-3.1537,-3.1736,-3.1762,-3.19,-3.2231,-3.2083,-3.2141,-3.2756,-3.291,-3.3103,-3.2872,-3.2564,-3.2526,-3.2545,-3.2045,-3.1506,-3.0929,-3.0371,-2.991,-2.9737,-2.889,-2.8506,-2.8717,-2.8448,-2.839,-2.8909,-2.9228,-2.9525,-3.0371,-3.0275,-3.0256,-4.5586,-4.5586,-4.5584,-4.5586,-4.5449,-4.4757,-4.4372,-4.4047,-4.2701,-4.1585,-4.1004,-4.1508,-4.1296,-4.0566,-3.9642,-3.843,-3.7065,-3.6873,-3.6449,-3.5815,-3.5661,-3.5199,-3.4564,-3.4993,-3.4301,-3.2655,-3.2864,-3.2042,-3.0457,-3.0197,-2.9806,-2.9108,-2.8319,-2.7915,-2.7842,-2.7218,-2.6684,-2.6385,-2.6512,-2.7242,-2.8546,-2.8637,-2.8479,-2.8138,-2.7105,-2.7178,-2.8295,-2.6871,-2.625,-2.6776,-2.6302,-2.5625,-2.5099,-2.4963,-2.4929,-2.4847,-2.4794,-2.476,-2.4814,-2.4847,-2.4913,-2.4659,-2.4845,-2.4963,-2.4577,-2.4797,-2.522,-2.6015,-2.7757,-2.8647,-2.8687,-2.856,-2.8798,-2.9485,-2.9644,-2.9904,-3.0192,-3.1017,-3.1458,-3.1421,-3.1201,-3.1439,-3.1054,-3.1005,-3.1076,-3.0716,-3.0083,-2.9889,-3.0398,-2.966,-2.9121,-2.9948,-3.1275,-3.2564,-3.2449,-3.1525,-3.1044,-3.1352,-2.9871,-2.9159,-2.9159,-2.8813,-2.8179,-2.8563,-2.7986,-2.7755,-2.7909,-2.789,-2.7813,-2.7986,-2.8525,-2.9294,-3.0025,-2.9756,-2.9525,-4.5651,-4.5665,-4.5167,-4.4645,-4.4158,-4.3866,-4.3447,-4.2811,-4.1672,-4.0662,-3.9857,-3.9663,-3.9354,-3.8969,-3.8142,-3.7353,-3.668,-3.6199,-3.5545,-3.4776,-3.4718,-3.4257,-3.3487,-3.3091,-3.2501,-3.1661,-3.128,-3.0592,-2.9765,-2.9108,-2.8613,-2.8227,-2.7493,-2.709,-2.7053,-2.6778,-2.653,-2.6407,-2.6385,-2.6517,-2.6629,-2.6535,-2.6279,-2.5905,-2.542,-2.5432,-2.5948,-2.5331,-2.5084,-2.5338,-2.5084,-2.4797,-2.454,-2.4523,-2.4523,-2.4523,-2.4523,-2.4133,-2.3257,-2.3985,-2.4103,-2.3274,-2.4002,-2.4184,-2.3342,-2.3968,-2.4306,-2.3951,-2.5287,-2.6328,-2.6459,-2.6467,-2.6753,-2.7356,-2.7525,-2.7701,-2.8036,-2.8796,-2.9108,-2.8705,-2.8998,-2.909,-2.8709,-2.8673,-2.878,-2.8817,-2.8401,-2.8401,-2.8772,-2.8313,-2.8102,-2.8409,-2.9352,-2.9813,-2.9967,-2.9467,-2.9179,-2.9179,-2.864,-2.814,-2.8121,-2.7678,-2.7294,-2.7755,-2.7082,-2.6774,-2.7063,-2.6678,-2.6467,-2.7005,-2.7794,-2.8525,-2.8871,-2.864,-2.864,-4.4986,-4.4989,-4.4389,-4.3789,-4.3189,-4.3028,-4.2462,-4.1532,-4.0688,-3.9714,-3.862,-3.7698,-3.718,-3.6911,-3.6526,-3.6257,-3.593,-3.5161,-3.4468,-3.3872,-3.3833,-3.3372,-3.2551,-3.2062,-3.1416,-3.0839,-3.0226,-2.9565,-2.8957,-2.7951,-2.7475,-2.7365,-2.6686,-2.6264,-2.6245,-2.6098,-2.5892,-2.5792,-2.5829,-2.5475,-2.4938,-2.4576,-2.4459,-2.4469,-2.4394,-2.4377,-2.4506,-2.432,-2.4188,-2.4218,-2.4188,-2.4086,-2.393,-2.3883,-2.3883,-2.3883,-2.3883,-2.3427,-2.2378,-2.3291,-2.3444,-2.2547,-2.3342,-2.3444,-2.275,-2.3274,-2.3376,-2.2665,-2.3274,-2.4117,-2.4569,-2.4798,-2.5222,-2.5821,-2.5943,-2.6121,-2.664,-2.7163,-2.731,-2.6759,-2.7328,-2.7273,-2.6783,-2.6765,-2.6906,-2.7104,-2.7007,-2.6955,-2.7127,-2.714,-2.7121,-2.7178,-2.7198,-2.7467,-2.7736,-2.7775,-2.764,-2.7698,-2.7621,-2.714,-2.739,-2.6794,-2.6294,-2.6524,-2.5736,-2.5553,-2.6082,-2.5726,-2.563,-2.637,-2.6967,-2.7486,-2.8044,-2.7755,-2.7698,-4.3254,-4.3324,-4.3266,-4.3143,-4.3111,-4.2179,-4.1343,-4.0448,-3.9668,-3.8402,-3.6953,-3.6007,-3.518,-3.4564,-3.5161,-3.5064,-3.4276,-3.3506,-3.3103,-3.2968,-3.2949,-3.2526,-3.1833,-3.2436,-3.1685,-2.9857,-3.0186,-2.9606,-2.7926,-2.7074,-2.6649,-2.6594,-2.5841,-2.5458,-2.5384,-2.4795,-2.42,-2.4106,-2.4064,-2.3746,-2.3389,-2.3072,-2.3443,-2.4245,-2.4087,-2.4036,-2.4299,-2.3799,-2.3444,-2.3444,-2.3444,-2.3156,-2.253,-2.2479,-2.2513,-2.2496,-2.2479,-2.2446,-2.2344,-2.2462,-2.2446,-2.2344,-2.2462,-2.2429,-2.2361,-2.2496,-2.2513,-2.2344,-2.2462,-2.2846,-2.3464,-2.4062,-2.4678,-2.5305,-2.5453,-2.5769,-2.6439,-2.641,-2.6631,-2.6502,-2.6484,-2.6468,-2.6489,-2.6264,-2.6089,-2.601,-2.5729,-2.5543,-2.5668,-2.5572,-2.562,-2.564,-2.5717,-2.6005,-2.7371,-2.714,-2.7063,-2.7121,-2.6544,-2.5832,-2.5986,-2.6043,-2.5755,-2.5534,-2.5399,-2.5341,-2.536,-2.5495,-2.5736,-2.5986,-2.5822,-2.6255,-2.7082,-2.6928,-2.689,-4.3025,-4.2583,-4.2031,-4.1485,-4.0889,-4.0091,-3.9478,-3.9034,-3.819,-3.748,-3.6636,-3.531,-3.4487,-3.4173,-3.3372,-3.3179,-3.3333,-3.3026,-3.2641,-3.2179,-3.2122,-3.1391,-3.0129,-3.0216,-2.956,-2.8334,-2.8276,-2.7921,-2.7077,-2.6209,-2.5823,-2.5695,-2.5034,-2.463,-2.4595,-2.4337,-2.4132,-2.4016,-2.3816,-2.3544,-2.3253,-2.3093,-2.3076,-2.3078,-2.2949,-2.296,-2.3088,-2.2835,-2.2716,-2.2699,-2.2699,-2.2581,-2.2344,-2.2327,-2.2327,-2.2327,-2.2327,-2.2327,-2.2327,-2.2327,-2.2327,-2.2327,-2.2327,-2.2327,-2.2327,-2.2327,-2.2327,-2.2327,-2.2327,-2.2479,-2.2688,-2.3102,-2.3527,-2.3947,-2.4248,-2.459,-2.4933,-2.5071,-2.5071,-2.5052,-2.5071,-2.517,-2.5408,-2.5321,-2.5329,-2.5487,-2.5395,-2.5312,-2.5313,-2.5313,-2.5313,-2.5313,-2.5322,-2.5514,-2.5986,-2.6005,-2.587,-2.5947,-2.5678,-2.5563,-2.5601,-2.5659,-2.5418,-2.5418,-2.5313,-2.5313,-2.5322,-2.536,-2.562,-2.5563,-2.536,-2.5582,-2.6101,-2.612,-2.6101,-4.1746,-4.1007,-4.0403,-3.9837,-3.9259,-3.8726,-3.8268,-3.7805,-3.6968,-3.639,-3.5776,-3.4199,-3.3403,-3.3173,-3.191,-3.1564,-3.2064,-3.2083,-3.1795,-3.1295,-3.1006,-3.0217,-2.9194,-2.8638,-2.8004,-2.7226,-2.6637,-2.6334,-2.6137,-2.5401,-2.5035,-2.4962,-2.4447,-2.419,-2.419,-2.419,-2.419,-2.4151,-2.3976,-2.3714,-2.3392,-2.3253,-2.2982,-2.249,-2.2349,-2.2327,-2.2327,-2.2327,-2.2327,-2.2327,-2.2327,-2.2327,-2.2327,-2.2327,-2.2327,-2.2327,-2.2327,-2.2327,-2.2327,-2.2327,-2.2327,-2.2327,-2.2327,-2.2327,-2.2327,-2.2327,-2.2327,-2.2327,-2.2327,-2.2327,-2.2349,-2.2554,-2.2848,-2.3141,-2.3392,-2.3732,-2.4113,-2.4226,-2.4245,-2.4301,-2.4395,-2.4482,-2.4654,-2.4785,-2.4981,-2.5173,-2.5234,-2.5284,-2.5313,-2.5313,-2.5313,-2.5313,-2.5313,-2.5303,-2.5543,-2.5543,-2.5476,-2.5505,-2.5543,-2.537,-2.5313,-2.5313,-2.5313,-2.5313,-2.5313,-2.5313,-2.5313,-2.5313,-2.5313,-2.5313,-2.5313,-2.5447,-2.5543,-2.5428,-2.5563,-3.9275,-3.8654,-3.8417,-3.8459,-3.8358,-3.8082,-3.7669,-3.6832,-3.6008,-3.5154,-3.4303,-3.2638,-3.2046,-3.1677,-3.0987,-3.0475,-3.0487,-3.0513,-3.0506,-3.0352,-2.964,-2.9179,-2.8832,-2.7994,-2.7371,-2.6906,-2.5931,-2.5421,-2.5348,-2.4685,-2.4318,-2.4263,-2.4245,-2.419,-2.419,-2.419,-2.419,-2.4151,-2.4094,-2.3955,-2.3674,-2.3323,-2.2972,-2.266,-2.2426,-2.2327,-2.2327,-2.2327,-2.2327,-2.2327,-2.2327,-2.2327,-2.2327,-2.2327,-2.2327,-2.2327,-2.2327,-2.2327,-2.2327,-2.2327,-2.2327,-2.2327,-2.2327,-2.2327,-2.2327,-2.2327,-2.2327,-2.2327,-2.2327,-2.2327,-2.2349,-2.25,-2.2815,-2.3159,-2.3253,-2.3566,-2.3996,-2.419,-2.419,-2.4228,-2.4321,-2.4497,-2.4575,-2.4766,-2.4993,-2.5077,-2.5203,-2.5313,-2.5313,-2.5313,-2.5313,-2.5313,-2.5313,-2.5313,-2.5313,-2.5313,-2.5313,-2.5332,-2.5351,-2.5313,-2.5313,-2.5313,-2.5313,-2.5313,-2.5313,-2.5313,-2.5313,-2.5313,-2.5313,-2.5313,-2.5313,-2.5313,-2.5313,-2.5313,-2.5313,-3.8784,-3.8472,-3.7886,-3.7652,-3.7476,-3.6355,-3.5633,-3.5266,-3.4428,-3.386,-3.3371,-3.2307,-3.1787,-3.1544,-3.0802,-3.0063,-2.9544,-2.9506,-2.9506,-2.9429,-2.9179,-2.8459,-2.7514,-2.7059,-2.6447,-2.5567,-2.4912,-2.4575,-2.4538,-2.4318,-2.419,-2.419,-2.419,-2.419,-2.419,-2.419,-2.4094,-2.3858,-2.3858,-2.3588,-2.3069,-2.2923,-2.2712,-2.2436,-2.2349,-2.2327,-2.2327,-2.2327,-2.2327,-2.2327,-2.2327,-2.2327,-2.2327,-2.2327,-2.2327,-2.2327,-2.2327,-2.2327,-2.2327,-2.2327,-2.2327,-2.2327,-2.2327,-2.2327,-2.2327,-2.2327,-2.2327,-2.2327,-2.2327,-2.2327,-2.231,-2.236,-2.2554,-2.2822,-2.3259,-2.3588,-2.3876,-2.4074,-2.419,-2.419,-2.4247,-2.441,-2.4639,-2.4855,-2.4956,-2.5171,-2.5264,-2.5303,-2.5313,-2.5313,-2.5313,-2.5313,-2.5313,-2.5313,-2.5313,-2.5313,-2.5313,-2.5313,-2.5313,-2.5313,-2.5313,-2.5313,-2.5313,-2.5313,-2.5313,-2.5313,-2.5313,-2.5313,-2.5313,-2.5313,-2.5313,-2.5313,-2.5313,-2.5313,-2.5313,-3.7637,-3.75,-3.6348,-3.6055,-3.6172,-3.4785,-3.4197,-3.3971,-3.2914,-3.2365,-3.206,-3.0976,-3.042,-3.0277,-2.9767,-2.9203,-2.867,-2.8651,-2.8497,-2.8217,-2.8159,-2.7544,-2.6561,-2.6098,-2.5545,-2.4794,-2.4357,-2.419,-2.419,-2.419,-2.419,-2.419,-2.419,-2.419,-2.419,-2.419,-2.4036,-2.3753,-2.371,-2.3369,-2.2848,-2.2695,-2.259,-2.2349,-2.2327,-2.2327,-2.2327,-2.2327,-2.2327,-2.2327,-2.2327,-2.2327,-2.2327,-2.2327,-2.2327,-2.2327,-2.2327,-2.2327,-2.2327,-2.2327,-2.2327,-2.2327,-2.2327,-2.2327,-2.2327,-2.2327,-2.2327,-2.2327,-2.2327,-2.2327,-2.2327,-2.2327,-2.2388,-2.2554,-2.3111,-2.3588,-2.3816,-2.4074,-2.419,-2.4209,-2.4266,-2.4442,-2.47,-2.4869,-2.4987,-2.5243,-2.5313,-2.5313,-2.5313,-2.5313,-2.5313,-2.5313,-2.5313,-2.5313,-2.5313,-2.5313,-2.5313,-2.5313,-2.5313,-2.5313,-2.5313,-2.5313,-2.5313,-2.5313,-2.5313,-2.5313,-2.5313,-2.5313,-2.5313,-2.5313,-2.5313,-2.5313,-2.5313,-2.5313,-2.5313,-3.5859,-3.5664,-3.4121,-3.4023,-3.457,-3.3711,-3.3262,-3.2969,-3.1582,-3.0796,-3.027,-2.9159,-2.8369,-2.8155,-2.8321,-2.8116,-2.7845,-2.7813,-2.7371,-2.6813,-2.664,-2.6476,-2.6241,-2.5425,-2.4873,-2.4547,-2.4303,-2.4209,-2.419,-2.419,-2.419,-2.419,-2.4151,-2.417,-2.4113,-2.4151,-2.3917,-2.3671,-2.3649,-2.3323,-2.2746,-2.2695,-2.2573,-2.231,-2.2327,-2.2327,-2.2327,-2.2327,-2.2327,-2.2327,-2.2327,-2.2327,-2.2327,-2.2327,-2.2327,-2.2327,-2.2327,-2.2327,-2.2327,-2.2327,-2.2327,-2.2327,-2.2327,-2.2327,-2.2327,-2.2327,-2.2327,-2.2327,-2.2327,-2.2327,-2.2327,-2.2327,-2.2321,-2.2443,-2.2958,-2.3477,-2.4074,-2.4208,-2.419,-2.4247,-2.4375,-2.4559,-2.4775,-2.4904,-2.5084,-2.5243,-2.5313,-2.5313,-2.5313,-2.5313,-2.5313,-2.5313,-2.5313,-2.5313,-2.5313,-2.5313,-2.5313,-2.5313,-2.5313,-2.5313,-2.5313,-2.5313,-2.5313,-2.5313,-2.5313,-2.5313,-2.5313,-2.5313,-2.5313,-2.5313,-2.5313,-2.5313,-2.5313,-2.5313,-2.5313,-3.4082,-3.4023,-3.3574,-3.3535,-3.3613,-3.2871,-3.2129,-3.1465,-3.043,-2.9531,-2.8922,-2.8457,-2.8083,-2.8106,-2.7995,-2.7658,-2.714,-2.6969,-2.6467,-2.5745,-2.5659,-2.5559,-2.5421,-2.5029,-2.4685,-2.4495,-2.4303,-2.419,-2.419,-2.419,-2.419,-2.419,-2.3996,-2.3858,-2.3798,-2.3649,-2.3455,-2.3346,-2.3346,-2.3141,-2.2772,-2.2695,-2.2563,-2.2338,-2.2327,-2.2327,-2.2327,-2.2327,-2.2327,-2.2327,-2.2327,-2.2327,-2.2327,-2.2327,-2.2327,-2.2327,-2.2327,-2.2327,-2.2327,-2.2327,-2.2327,-2.2327,-2.2327,-2.2327,-2.2327,-2.2327,-2.2327,-2.2327,-2.2327,-2.2293,-2.2293,-2.2276,-2.2463,-2.2908,-2.3135,-2.35,-2.4016,-2.419,-2.419,-2.4228,-2.4393,-2.4575,-2.4771,-2.493,-2.5077,-2.5234,-2.5313,-2.5313,-2.5313,-2.5313,-2.5313,-2.5313,-2.5313,-2.5313,-2.5313,-2.5313,-2.5313,-2.5313,-2.5313,-2.5313,-2.5313,-2.5313,-2.5313,-2.5313,-2.5313,-2.5313,-2.5313,-2.5313,-2.5313,-2.5313,-2.5313,-2.5313,-2.5313,-2.5313,-2.5313,-3.3105,-3.334,-3.2656,-3.2559,-3.2715,-3.1621,-3.082,-3.0176,-2.9043,-2.8262,-2.7734,-2.73,-2.7151,-2.7095,-2.6971,-2.6655,-2.6165,-2.6082,-2.5774,-2.5428,-2.5332,-2.5222,-2.5005,-2.478,-2.4607,-2.4495,-2.4284,-2.4209,-2.419,-2.419,-2.419,-2.417,-2.4014,-2.3837,-2.3714,-2.3522,-2.3236,-2.3045,-2.2996,-2.2822,-2.2581,-2.251,-2.2463,-2.2338,-2.2327,-2.2327,-2.2327,-2.2327,-2.2327,-2.2327,-2.2327,-2.2327,-2.2327,-2.2327,-2.2327,-2.2327,-2.2327,-2.2327,-2.2327,-2.2327,-2.2327,-2.2327,-2.2327,-2.2327,-2.2327,-2.2327,-2.2327,-2.2327,-2.2057,-2.187,-2.1864,-2.1956,-2.2384,-2.2999,-2.3323,-2.361,-2.4151,-2.419,-2.4247,-2.4321,-2.4426,-2.4588,-2.4836,-2.4949,-2.5069,-2.5234,-2.5313,-2.5313,-2.5313,-2.5313,-2.5313,-2.5313,-2.5313,-2.5313,-2.5313,-2.5313,-2.5313,-2.5313,-2.5313,-2.5313,-2.5313,-2.5313,-2.5313,-2.5313,-2.5313,-2.5313,-2.5313,-2.5313,-2.5313,-2.5313,-2.5313,-2.5313,-2.5313,-2.5313,-2.5313,-3.248,-3.3008,-3.1523,-3.1309,-3.1621,-3.0293,-2.957,-2.9023,-2.7812,-2.7051,-2.6738,-2.6074,-2.5937,-2.5605,-2.5866,-2.5554,-2.5439,-2.5474,-2.538,-2.5274,-2.5214,-2.5107,-2.4937,-2.4708,-2.4526,-2.4445,-2.4266,-2.4209,-2.419,-2.419,-2.417,-2.4074,-2.4054,-2.3876,-2.3522,-2.3455,-2.323,-2.2822,-2.2686,-2.2616,-2.2453,-2.2371,-2.2338,-2.231,-2.2327,-2.2327,-2.2327,-2.2299,-2.2282,-2.2209,-2.2265,-2.231,-2.2327,-2.2327,-2.2327,-2.2327,-2.2327,-2.2327,-2.2276,-2.2209,-2.2141,-2.209,-2.2023,-2.213,-2.204,-2.1938,-2.1843,-2.204,-2.1481,-2.1211,-2.1332,-2.149,-2.2143,-2.2971,-2.3477,-2.3816,-2.4113,-2.419,-2.4266,-2.4459,-2.4512,-2.4697,-2.4866,-2.4958,-2.4985,-2.5206,-2.5197,-2.5043,-2.5159,-2.5313,-2.5313,-2.5313,-2.5313,-2.5313,-2.5313,-2.5313,-2.5313,-2.5313,-2.5313,-2.5313,-2.5313,-2.5313,-2.5313,-2.5313,-2.5313,-2.5313,-2.5313,-2.5313,-2.5313,-2.5313,-2.5313,-2.5313,-2.5313,-2.5313,-2.5313,-3.1269,-3.1406,-3.1055,-3.0605,-3.0137,-2.9726,-2.8828,-2.7598,-2.7187,-2.6602,-2.6074,-2.5781,-2.5684,-2.5664,-2.5558,-2.5484,-2.5446,-2.5363,-2.5313,-2.5283,-2.5019,-2.4915,-2.4842,-2.4727,-2.4561,-2.4358,-2.4228,-2.419,-2.419,-2.417,-2.4074,-2.3855,-2.3649,-2.3259,-2.3021,-2.2805,-2.2669,-2.2617,-2.2466,-2.2354,-2.2382,-2.2218,-2.2192,-2.2243,-2.226,-2.2293,-2.231,-2.2327,-2.2106,-2.1928,-2.2056,-2.2198,-2.2209,-2.2254,-2.2254,-2.2254,-2.2282,-2.2327,-2.2226,-2.1837,-2.1448,-2.1465,-2.1059,-2.0771,-2.1346,-2.0906,-2.0923,-2.1092,-2.0737,-2.0534,-2.0985,-2.1412,-2.2052,-2.2893,-2.3454,-2.3801,-2.4113,-2.419,-2.4284,-2.4461,-2.4639,-2.4799,-2.4948,-2.4539,-2.4667,-2.5072,-2.4966,-2.4736,-2.4851,-2.5043,-2.5063,-2.4928,-2.5043,-2.5043,-2.5313,-2.5313,-2.5313,-2.5313,-2.5313,-2.5313,-2.5313,-2.5313,-2.5313,-2.5313,-2.5313,-2.5313,-2.5313,-2.5313,-2.5313,-2.5313,-2.5313,-2.5313,-2.5313,-2.5313,-2.5313,-3.0017,-2.9687,-2.9687,-2.9414,-2.8965,-2.8555,-2.7851,-2.7012,-2.6543,-2.6133,-2.5781,-2.5703,-2.5703,-2.5684,-2.5579,-2.552,-2.5482,-2.5363,-2.5313,-2.5243,-2.5024,-2.4883,-2.4775,-2.4685,-2.4495,-2.4209,-2.419,-2.419,-2.419,-2.4171,-2.4132,-2.3935,-2.3552,-2.3346,-2.2825,-2.2272,-2.2005,-2.1806,-2.147,-2.1317,-2.1387,-2.13,-2.1498,-2.1718,-2.182,-2.1904,-2.2276,-2.2327,-2.218,-2.1977,-2.1815,-2.1742,-2.1761,-2.1886,-2.1974,-2.2003,-2.2209,-2.2282,-2.2141,-2.1651,-2.1237,-2.116,-2.0467,-2.0365,-2.0483,-2.0187,-2.0204,-2.0365,-2.0044,-1.9738,-2.0301,-2.0999,-2.1759,-2.2642,-2.3172,-2.3595,-2.4041,-2.419,-2.4266,-2.4478,-2.4689,-2.4842,-2.4777,-2.4321,-2.4188,-2.4524,-2.3889,-2.3639,-2.362,-2.3851,-2.4274,-2.4351,-2.4582,-2.4793,-2.5178,-2.5313,-2.5313,-2.5313,-2.5313,-2.5313,-2.5313,-2.5313,-2.5313,-2.5313,-2.5313,-2.5313,-2.5313,-2.5313,-2.5313,-2.5313,-2.5313,-2.5313,-2.5313,-2.5313,-2.5313,-2.8891,-2.8281,-2.8281,-2.8223,-2.8008,-2.7344,-2.6973,-2.666,-2.6035,-2.5762,-2.5703,-2.5703,-2.5703,-2.5684,-2.5605,-2.5547,-2.5453,-2.5379,-2.5313,-2.5264,-2.4828,-2.4765,-2.4653,-2.4251,-2.3945,-2.4007,-2.4153,-2.4153,-2.3988,-2.3969,-2.3617,-2.3595,-2.334,-2.2696,-2.2406,-2.1875,-2.1224,-2.1002,-2.0543,-2.0247,-2.0221,-2.0213,-2.0568,-2.116,-2.1532,-2.1803,-2.2226,-2.2282,-2.2175,-2.1967,-2.1351,-2.0904,-2.0713,-2.125,-2.1546,-2.1609,-2.1957,-2.2032,-2.1761,-2.1234,-2.072,-2.0877,-2.0018,-1.9723,-1.9706,-1.963,-1.9596,-1.9519,-1.9273,-1.8926,-1.9324,-2.0153,-2.128,-2.228,-2.2828,-2.3364,-2.3969,-2.4228,-2.4357,-2.4526,-2.4697,-2.4812,-2.4534,-2.413,-2.4005,-2.3764,-2.3081,-2.2716,-2.2754,-2.3004,-2.3601,-2.4033,-2.4293,-2.4024,-2.4274,-2.4389,-2.4505,-2.4639,-2.4774,-2.4889,-2.4928,-2.4909,-2.4889,-2.5255,-2.5313,-2.5313,-2.5313,-2.5313,-2.5313,-2.5313,-2.5313,-2.5313,-2.5313,-2.5313,-2.5313,-2.8275,-2.8227,-2.8207,-2.7846,-2.7246,-2.7051,-2.6562,-2.5977,-2.5781,-2.5703,-2.5703,-2.5684,-2.5625,-2.5605,-2.5545,-2.542,-2.5163,-2.5023,-2.5101,-2.4937,-2.4419,-2.4151,-2.4261,-2.3307,-2.2858,-2.3309,-2.3657,-2.3694,-2.3309,-2.318,-2.2737,-2.1785,-2.1569,-2.1286,-2.0925,-2.0331,-2.0297,-2.0196,-1.9883,-1.9765,-1.9765,-1.9816,-2.0137,-2.0889,-2.1312,-2.1803,-2.2062,-2.2153,-2.1707,-2.054,-2.0302,-1.9513,-1.917,-2.0241,-2.1064,-2.1398,-2.1513,-2.1497,-2.1138,-2.0056,-1.9572,-1.9328,-1.865,-1.8425,-1.868,-1.8616,-1.8684,-1.8792,-1.8579,-1.837,-1.9221,-1.9832,-2.0805,-2.194,-2.2755,-2.3198,-2.3842,-2.4118,-2.4234,-2.4294,-2.4507,-2.4528,-2.4068,-2.3621,-2.3342,-2.2908,-2.2235,-2.2312,-2.2697,-2.3032,-2.3533,-2.3879,-2.4129,-2.3648,-2.3235,-2.3254,-2.3312,-2.3447,-2.362,-2.3908,-2.4005,-2.4206,-2.4399,-2.4582,-2.5024,-2.5313,-2.5313,-2.5293,-2.5313,-2.5313,-2.5313,-2.5293,-2.5313,-2.5313,-2.5313,-2.7157,-2.6825,-2.6844,-2.6637,-2.6266,-2.626,-2.6023,-2.5661,-2.5633,-2.5638,-2.5504,-2.5234,-2.5019,-2.4902,-2.4445,-2.4207,-2.4161,-2.4021,-2.4014,-2.3842,-2.3443,-2.3208,-2.3526,-2.2395,-2.2229,-2.2407,-2.274,-2.2795,-2.2409,-2.2391,-2.1862,-2.1394,-2.0993,-2.067,-2.0192,-1.976,-1.9486,-1.9384,-1.9089,-1.8903,-1.8903,-1.8903,-1.9333,-1.9925,-2.0382,-2.072,-2.1039,-2.0921,-2.0528,-1.9796,-1.9212,-1.8749,-1.8688,-1.8927,-1.9808,-2.036,-2.0632,-2.0694,-2.0284,-1.9212,-1.8522,-1.8513,-1.7756,-1.7566,-1.7883,-1.795,-1.7991,-1.8155,-1.8352,-1.8241,-1.8863,-1.9548,-2.0442,-2.1261,-2.199,-2.252,-2.2904,-2.3151,-2.3397,-2.3752,-2.4308,-2.4138,-2.3313,-2.292,-2.2583,-2.2043,-2.1389,-2.1754,-2.2427,-2.262,-2.2889,-2.3043,-2.3158,-2.3004,-2.2524,-2.2447,-2.237,-2.2447,-2.2562,-2.2851,-2.3139,-2.3351,-2.3514,-2.3658,-2.4235,-2.4928,-2.5245,-2.5226,-2.5264,-2.5236,-2.5207,-2.5187,-2.5274,-2.5313,-2.5313,-2.6047,-2.5473,-2.5524,-2.5543,-2.5503,-2.5382,-2.5301,-2.5234,-2.5074,-2.4974,-2.5,-2.4453,-2.4141,-2.3984,-2.3511,-2.3093,-2.297,-2.2933,-2.2956,-2.2862,-2.2487,-2.2258,-2.2235,-2.1755,-2.1448,-2.1489,-2.1272,-2.1382,-2.1511,-2.1477,-2.1225,-2.0602,-2.0418,-2.0236,-1.9694,-1.8988,-1.8731,-1.8488,-1.8143,-1.7805,-1.7805,-1.798,-1.8285,-1.8877,-1.9029,-1.9529,-1.9974,-1.9867,-1.9443,-1.893,-1.8382,-1.7964,-1.819,-1.7924,-1.8055,-1.8765,-1.9342,-1.9575,-1.9213,-1.8456,-1.7701,-1.7852,-1.7448,-1.7298,-1.7408,-1.7685,-1.785,-1.7905,-1.8057,-1.833,-1.88,-1.9435,-2.0191,-2.0875,-2.1365,-2.1709,-2.2197,-2.2418,-2.2332,-2.2918,-2.3864,-2.364,-2.268,-2.2297,-2.1996,-2.1466,-2.0812,-2.1081,-2.162,-2.1504,-2.1658,-2.1831,-2.1966,-2.21,-2.1947,-2.1812,-2.1716,-2.1639,-2.1754,-2.1927,-2.2235,-2.2524,-2.2697,-2.2947,-2.3601,-2.4274,-2.4688,-2.4803,-2.4428,-2.4332,-2.4784,-2.4966,-2.4832,-2.5082,-2.5313,-2.5443,-2.5408,-2.5383,-2.544,-2.5328,-2.4724,-2.4436,-2.435,-2.3716,-2.3338,-2.3569,-2.3306,-2.3257,-2.3144,-2.3013,-2.2887,-2.2804,-2.2609,-2.2485,-2.2352,-2.1819,-2.1703,-2.1884,-2.0535,-2.0515,-2.0565,-2.0058,-2.0079,-2.0486,-2.0497,-1.9939,-1.9248,-1.8959,-1.8469,-1.8512,-1.8246,-1.7929,-1.7929,-1.7839,-1.7789,-1.7873,-1.8335,-1.8657,-1.8944,-1.9309,-1.9538,-1.941,-1.9194,-1.8806,-1.7817,-1.7581,-1.7014,-1.6466,-1.6668,-1.6819,-1.7273,-1.7823,-1.8408,-1.7989,-1.7319,-1.7039,-1.7202,-1.7077,-1.7057,-1.732,-1.7618,-1.79,-1.8146,-1.8208,-1.843,-1.8789,-1.9092,-2.0026,-2.0619,-2.096,-2.1631,-2.2171,-2.1841,-2.1727,-2.1796,-2.2669,-2.2496,-2.1856,-2.1633,-2.137,-2.0812,-2.0446,-2.0716,-2.0869,-2.085,-2.0869,-2.1119,-2.1139,-2.1254,-2.1331,-2.1196,-2.1158,-2.1004,-2.1062,-2.1158,-2.1408,-2.1735,-2.2081,-2.2408,-2.2966,-2.3101,-2.3139,-2.3139,-2.3101,-2.3466,-2.3947,-2.4139,-2.4197,-2.4601,-2.4947,-2.3906,-2.3937,-2.3978,-2.3992,-2.3934,-2.363,-2.3494,-2.3386,-2.3112,-2.2975,-2.287,-2.2489,-2.2141,-2.1855,-2.1581,-2.1487,-2.1471,-2.142,-2.1389,-2.1389,-2.0936,-2.0795,-2.0747,-2.0181,-1.9929,-1.9748,-1.9589,-1.9528,-1.9721,-1.9609,-1.9129,-1.871,-1.8348,-1.8168,-1.7833,-1.7789,-1.7789,-1.7805,-1.7789,-1.7789,-1.7873,-1.8099,-1.8285,-1.8302,-1.8616,-1.8673,-1.8543,-1.8091,-1.7769,-1.6995,-1.6775,-1.6331,-1.5976,-1.6068,-1.6204,-1.6248,-1.6592,-1.697,-1.7028,-1.6518,-1.65,-1.6707,-1.6823,-1.7059,-1.7455,-1.7726,-1.7944,-1.8166,-1.8351,-1.8622,-1.8931,-1.9101,-1.9545,-2.0065,-2.0519,-2.0659,-2.1229,-2.1421,-2.1287,-2.1343,-2.1388,-2.1308,-2.1292,-2.1308,-2.1075,-2.0639,-2.035,-2.0465,-2.0562,-2.0542,-2.0581,-2.0677,-2.06,-2.0504,-2.0581,-2.0581,-2.0677,-2.06,-2.06,-2.0677,-2.0696,-2.0966,-2.1312,-2.1312,-2.137,-2.1466,-2.1504,-2.2062,-2.262,-2.2889,-2.312,-2.3235,-2.3379,-2.3447,-2.387,-2.237,-2.2224,-2.2658,-2.2856,-2.2772,-2.2639,-2.2516,-2.2472,-2.2253,-2.2224,-2.2122,-2.1666,-2.1126,-2.0625,-2.0365,-2.0207,-2.013,-1.9812,-1.9687,-1.9658,-1.9619,-1.9484,-1.9411,-1.9249,-1.9344,-1.9285,-1.9434,-1.9402,-1.928,-1.912,-1.895,-1.8603,-1.833,-1.8061,-1.7861,-1.7789,-1.7789,-1.7789,-1.7789,-1.7789,-1.7805,-1.7805,-1.7839,-1.7822,-1.7789,-1.7721,-1.7479,-1.7191,-1.6863,-1.6456,-1.6141,-1.5916,-1.5829,-1.5873,-1.5903,-1.5903,-1.6052,-1.6187,-1.6293,-1.6128,-1.6029,-1.6285,-1.6747,-1.7224,-1.7794,-1.7922,-1.8078,-1.843,-1.8566,-1.8825,-1.9034,-1.923,-1.957,-1.9824,-2.0023,-1.9853,-1.9807,-2.0325,-2.0629,-2.0621,-2.0649,-2.0698,-2.0743,-2.0957,-2.08,-2.043,-2.0292,-2.0292,-2.0312,-2.035,-2.0345,-2.0422,-2.04,-2.0257,-2.0205,-2.0233,-2.0249,-2.0292,-2.0292,-2.0331,-2.0446,-2.0446,-2.0619,-2.0446,-2.035,-2.0485,-2.0908,-2.16,-2.2177,-2.2023,-2.1985,-2.2331,-2.2504,-2.2581,-2.2889,-2.1158,-2.06,-2.2128,-2.2714,-2.2639,-2.1916,-2.1589,-2.1543,-2.0858,-2.0655,-2.0748,-2.0591,-2.0676,-2.0351,-1.9754,-1.9372,-1.9246,-1.8353,-1.8248,-1.8073,-1.7791,-1.8064,-1.8241,-1.8533,-1.8737,-1.8677,-1.911,-1.9376,-1.9289,-1.915,-1.8878,-1.8604,-1.8181,-1.8013,-1.7798,-1.763,-1.754,-1.7507,-1.7473,-1.7518,-1.7569,-1.762,-1.7687,-1.7743,-1.7732,-1.7542,-1.6942,-1.6789,-1.6554,-1.6095,-1.5913,-1.5799,-1.5814,-1.5814,-1.5814,-1.5814,-1.5814,-1.5903,-1.5933,-1.5933,-1.6013,-1.6367,-1.691,-1.7539,-1.8018,-1.8146,-1.841,-1.877,-1.8861,-1.8999,-1.9164,-1.9344,-1.9565,-1.973,-1.9819,-1.9776,-1.9693,-1.9674,-1.994,-1.9888,-2.0075,-2.0415,-2.0577,-2.0857,-2.0642,-2.0295,-2.0285,-2.0292,-2.0292,-2.0304,-2.0225,-2.0235,-2.0288,-2.0214,-2.0106,-2.0124,-2.0249,-2.0292,-2.0292,-2.0292,-2.0331,-2.0292,-2.0292,-2.0465,-2.0523,-2.0408,-2.0323,-2.0927,-2.1216,-2.0869,-2.0908,-2.1408,-2.185,-2.2081,-2.235,-2.0383,-2.0192,-2.0833,-2.1156,-2.1254,-2.0908,-2.0754,-2.0735,-2.0427,-2.0321,-2.0337,-2.0447,-2.0246,-1.9766,-1.9464,-1.888,-1.8432,-1.8058,-1.7774,-1.796,-1.8112,-1.8049,-1.8206,-1.8421,-1.9073,-1.8677,-1.9072,-1.9394,-1.9289,-1.9141,-1.8616,-1.8216,-1.7823,-1.7576,-1.7394,-1.7148,-1.6936,-1.6576,-1.6492,-1.6458,-1.6542,-1.6931,-1.7117,-1.7134,-1.7432,-1.7375,-1.7076,-1.667,-1.6394,-1.6108,-1.5913,-1.5842,-1.5814,-1.5814,-1.5814,-1.5814,-1.5814,-1.5814,-1.5814,-1.5856,-1.6039,-1.667,-1.7335,-1.7936,-1.8208,-1.833,-1.8603,-1.8878,-1.9019,-1.9117,-1.9243,-1.9289,-1.9399,-1.9583,-1.9687,-1.9663,-1.9634,-1.9549,-1.9822,-2.0043,-2.0346,-2.0641,-2.0779,-2.0889,-2.0532,-2.0184,-2.0246,-2.0292,-2.0292,-2.0277,-2.0197,-2.0152,-2.0225,-2.0225,-2.0106,-2.0188,-2.0285,-2.0292,-2.0292,-2.0389,-2.0408,-2.0292,-2.0331,-2.0523,-2.0677,-2.0562,-2.0485,-2.0438,-2.0438,-2.0458,-2.0504,-2.0658,-2.1081,-2.1504,-2.1754,-1.9954,-1.9993,-1.9993,-2.0115,-2.0285,-2.0292,-2.0292,-2.0292,-2.0312,-2.016,-1.9998,-1.984,-1.9461,-1.8945,-1.8492,-1.8168,-1.753,-1.7177,-1.7049,-1.7098,-1.7271,-1.7472,-1.7653,-1.8083,-1.8592,-1.8478,-1.9089,-1.9462,-1.939,-1.9096,-1.8538,-1.7892,-1.7161,-1.673,-1.6678,-1.6447,-1.6106,-1.5731,-1.5595,-1.5595,-1.5731,-1.6219,-1.6562,-1.6653,-1.6974,-1.7044,-1.6876,-1.6528,-1.6274,-1.6095,-1.5942,-1.5842,-1.5814,-1.5814,-1.5814,-1.5814,-1.5814,-1.5814,-1.5827,-1.6067,-1.6355,-1.6935,-1.7532,-1.8023,-1.833,-1.8526,-1.8698,-1.9069,-1.9101,-1.9132,-1.9286,-1.9305,-1.9289,-1.9452,-1.9452,-1.943,-1.9412,-1.9405,-1.9887,-2.0304,-2.0399,-2.0209,-2.0292,-2.0321,-2.0342,-2.0088,-2.0246,-2.0285,-2.0292,-2.0269,-2.0188,-2.0171,-2.0208,-2.0171,-2.0134,-2.0225,-2.0277,-2.0292,-2.035,-2.0581,-2.06,-2.0446,-2.0562,-2.0946,-2.1004,-2.0773,-2.0581,-2.04,-2.0342,-2.0304,-2.0369,-2.0446,-2.0504,-2.0908,-2.1004,-1.988,-1.9984,-1.9984,-2.0087,-2.0192,-2.0292,-2.0292,-2.0139,-2.0096,-1.9735,-1.9068,-1.8491,-1.8139,-1.787,-1.7402,-1.6989,-1.6629,-1.6013,-1.5694,-1.585,-1.6179,-1.568,-1.6144,-1.7018,-1.8155,-1.8013,-1.8779,-1.9526,-1.9411,-1.8886,-1.832,-1.734,-1.6268,-1.5559,-1.585,-1.5729,-1.5595,-1.5544,-1.5426,-1.5358,-1.5421,-1.5725,-1.5917,-1.6028,-1.6257,-1.6317,-1.6307,-1.6138,-1.5955,-1.5898,-1.5856,-1.5814,-1.5814,-1.5814,-1.5814,-1.5814,-1.5814,-1.5814,-1.5856,-1.6436,-1.6876,-1.7231,-1.7738,-1.8128,-1.8469,-1.866,-1.8807,-1.9198,-1.9243,-1.9259,-1.9286,-1.9286,-1.9286,-1.9286,-1.9286,-1.9286,-1.9286,-1.9305,-1.9767,-2.0207,-1.9748,-1.9375,-1.9493,-1.9647,-1.9892,-1.9982,-2.0199,-2.026,-2.0233,-2.0209,-2.0127,-2.0279,-2.0298,-2.0279,-2.026,-2.0257,-2.0269,-2.0277,-2.035,-2.0523,-2.0619,-2.0504,-2.0773,-2.1312,-2.1235,-2.0946,-2.0619,-2.0331,-2.0312,-2.0292,-2.0292,-2.0331,-2.0331,-2.0408,-2.0639,-1.9676,-1.9738,-1.9824,-1.9598,-1.9307,-2.0005,-1.9985,-1.9403,-1.8899,-1.8493,-1.8274,-1.7955,-1.7556,-1.7143,-1.6835,-1.6386,-1.5838,-1.5709,-1.5394,-1.5424,-1.5742,-1.5661,-1.5986,-1.6896,-1.7824,-1.7872,-1.8678,-1.9077,-1.8536,-1.8382,-1.7512,-1.6413,-1.5282,-1.4397,-1.4467,-1.4554,-1.4699,-1.4226,-1.4108,-1.4124,-1.4224,-1.4621,-1.4891,-1.492,-1.5151,-1.5393,-1.565,-1.5553,-1.5533,-1.5767,-1.5814,-1.5814,-1.5814,-1.5814,-1.5814,-1.5814,-1.5814,-1.6039,-1.6394,-1.6876,-1.7134,-1.7469,-1.7876,-1.8293,-1.8585,-1.8912,-1.913,-1.9243,-1.9271,-1.9286,-1.9286,-1.9286,-1.9286,-1.9286,-1.9286,-1.9286,-1.9305,-1.9308,-1.9546,-1.995,-1.984,-1.9418,-1.9361,-1.9509,-1.9701,-1.979,-1.996,-2.0011,-1.9982,-2.0047,-2.002,-2.0312,-2.0445,-2.0414,-2.0372,-2.0251,-2.0199,-2.0197,-2.0241,-2.035,-2.0408,-2.0639,-2.0946,-2.1466,-2.1293,-2.1081,-2.0773,-2.0504,-2.035,-2.0292,-2.0408,-2.0369,-2.0312,-2.0427,-2.0639,-1.9541,-1.9609,-1.9695,-1.9303,-1.8787,-1.9438,-1.9312,-1.8463,-1.7671,-1.73,-1.7297,-1.7106,-1.6731,-1.6334,-1.6187,-1.6074,-1.541,-1.5408,-1.5369,-1.5442,-1.5806,-1.5616,-1.5958,-1.6864,-1.7349,-1.7587,-1.7975,-1.8301,-1.8254,-1.8066,-1.6848,-1.525,-1.4432,-1.4127,-1.3969,-1.3905,-1.3954,-1.3616,-1.3599,-1.3566,-1.3682,-1.3891,-1.415,-1.4202,-1.4349,-1.4621,-1.4975,-1.5099,-1.5094,-1.5559,-1.5784,-1.5784,-1.5799,-1.5799,-1.5814,-1.5814,-1.5871,-1.6151,-1.6659,-1.6917,-1.715,-1.7509,-1.8128,-1.8469,-1.8623,-1.8913,-1.9132,-1.9277,-1.9289,-1.9286,-1.9286,-1.9286,-1.9286,-1.9286,-1.9286,-1.9286,-1.9305,-1.9289,-1.9326,-1.973,-1.9803,-1.9473,-1.9305,-1.9438,-1.9604,-1.965,-1.9713,-1.9731,-1.9778,-1.983,-1.9907,-2.0176,-2.0308,-2.0212,-2.0157,-2.0143,-2.0098,-2.0106,-2.0216,-2.0323,-2.085,-2.1177,-2.1389,-2.1466,-2.1177,-2.0966,-2.0869,-2.0688,-2.0562,-2.0581,-2.0696,-2.0581,-2.035,-2.0542,-2.0831,-1.9409,-1.9582,-1.9564,-1.9126,-1.8612,-1.8479,-1.8124,-1.7483,-1.6643,-1.6343,-1.6411,-1.5743,-1.5569,-1.5483,-1.5452,-1.5462,-1.541,-1.541,-1.5365,-1.5321,-1.5491,-1.5319,-1.5524,-1.612,-1.6759,-1.7189,-1.7479,-1.7727,-1.8019,-1.6772,-1.5248,-1.4584,-1.4591,-1.4154,-1.3779,-1.3564,-1.3565,-1.343,-1.3396,-1.3396,-1.3497,-1.3613,-1.3746,-1.3779,-1.3826,-1.4139,-1.447,-1.4647,-1.4926,-1.5319,-1.5649,-1.5694,-1.5739,-1.5784,-1.5799,-1.5842,-1.5871,-1.6246,-1.6686,-1.6866,-1.7199,-1.7625,-1.8044,-1.8351,-1.8604,-1.8895,-1.9166,-1.9259,-1.9286,-1.9286,-1.9286,-1.9286,-1.9286,-1.9286,-1.9286,-1.9286,-1.9286,-1.9305,-1.9305,-1.9415,-1.9399,-1.9289,-1.9259,-1.9383,-1.9471,-1.9481,-1.9532,-1.9585,-1.9638,-1.9657,-1.9756,-1.9931,-1.9999,-1.9888,-1.9896,-2.0069,-2.004,-2.0079,-2.0274,-2.0477,-2.1081,-2.16,-2.1696,-2.1581,-2.1081,-2.1023,-2.1658,-2.1427,-2.0812,-2.0908,-2.1323,-2.1062,-2.0927,-2.0985,-2.1216,-1.9353,-1.9357,-1.8923,-1.8229,-1.7275,-1.6232,-1.6005,-1.6374,-1.57,-1.5419,-1.5428,-1.5357,-1.5319,-1.5326,-1.5379,-1.5394,-1.5405,-1.5409,-1.539,-1.5363,-1.5336,-1.5307,-1.5506,-1.5907,-1.6328,-1.663,-1.6884,-1.686,-1.6368,-1.5196,-1.5129,-1.5205,-1.4538,-1.4071,-1.3798,-1.3603,-1.3494,-1.3396,-1.3379,-1.3363,-1.3243,-1.3223,-1.3279,-1.3254,-1.2921,-1.326,-1.3682,-1.3691,-1.3945,-1.4333,-1.4884,-1.5079,-1.5109,-1.5499,-1.5856,-1.6151,-1.6207,-1.6382,-1.6763,-1.7027,-1.7327,-1.7766,-1.8173,-1.845,-1.8698,-1.8948,-1.923,-1.9305,-1.9305,-1.9305,-1.932,-1.9301,-1.9286,-1.9286,-1.9286,-1.9286,-1.9323,-1.9455,-1.9455,-1.9426,-1.9426,-1.9196,-1.9198,-1.9261,-1.932,-1.932,-1.935,-1.9438,-1.9495,-1.9518,-1.9611,-1.9763,-1.9759,-1.9679,-1.997,-2.0188,-2.0091,-2.006,-2.0359,-2.077,-2.135,-2.1773,-2.1908,-2.19,-2.1718,-2.2284,-2.3148,-2.2534,-2.15,-2.1929,-2.2284,-2.1842,-2.1523,-2.163,-2.1985,-1.8372,-1.8294,-1.7958,-1.7285,-1.6279,-1.5038,-1.4918,-1.5356,-1.5098,-1.4962,-1.5009,-1.5168,-1.5275,-1.5311,-1.5342,-1.5375,-1.5416,-1.5404,-1.541,-1.5382,-1.535,-1.5607,-1.581,-1.5855,-1.6433,-1.663,-1.6501,-1.6172,-1.571,-1.4971,-1.4684,-1.4724,-1.4125,-1.3894,-1.368,-1.3542,-1.3478,-1.3379,-1.3311,-1.326,-1.3085,-1.285,-1.2797,-1.2684,-1.2174,-1.2491,-1.3012,-1.2963,-1.3264,-1.384,-1.4502,-1.4875,-1.4983,-1.5409,-1.5812,-1.6039,-1.6067,-1.6328,-1.6712,-1.6942,-1.7375,-1.7837,-1.8316,-1.8585,-1.8843,-1.9082,-1.9274,-1.9409,-1.935,-1.932,-1.9335,-1.935,-1.9301,-1.9286,-1.9286,-1.9286,-1.9436,-1.9638,-1.9646,-1.9618,-1.9441,-1.9191,-1.9119,-1.9166,-1.9212,-1.9274,-1.9305,-1.9316,-1.9346,-1.9376,-1.9468,-1.9604,-1.9582,-1.953,-1.9875,-2.0158,-2.0088,-2.0231,-2.0785,-2.1201,-2.1729,-2.2136,-2.2434,-2.2562,-2.2603,-2.3084,-2.3407,-2.3006,-2.2354,-2.2776,-2.3064,-2.2891,-2.2556,-2.242,-2.2929,-1.6945,-1.6963,-1.6835,-1.6334,-1.5545,-1.4811,-1.4536,-1.4522,-1.4776,-1.4928,-1.4985,-1.5127,-1.5199,-1.5241,-1.5287,-1.5339,-1.5375,-1.5392,-1.5408,-1.5419,-1.5394,-1.5623,-1.5746,-1.5697,-1.6131,-1.6747,-1.6621,-1.5589,-1.612,-1.5378,-1.4301,-1.3959,-1.3973,-1.3827,-1.3557,-1.3493,-1.3462,-1.3379,-1.3139,-1.2979,-1.2942,-1.2776,-1.2588,-1.2569,-1.241,-1.2426,-1.2901,-1.3166,-1.3298,-1.3898,-1.4384,-1.4799,-1.5221,-1.5424,-1.5752,-1.5856,-1.5942,-1.6179,-1.657,-1.6815,-1.7294,-1.7842,-1.8413,-1.8716,-1.8982,-1.9148,-1.9335,-1.9394,-1.935,-1.9335,-1.935,-1.9335,-1.9286,-1.9433,-1.951,-1.9433,-1.9399,-1.9549,-1.9614,-1.9565,-1.9386,-1.9155,-1.9069,-1.9117,-1.9227,-1.9274,-1.9286,-1.9286,-1.9289,-1.9289,-1.9329,-1.9439,-1.943,-1.945,-1.9679,-1.9912,-2.0026,-2.0335,-2.0981,-2.1678,-2.2213,-2.2626,-2.2998,-2.3237,-2.3476,-2.3103,-2.3094,-2.308,-2.3225,-2.3195,-2.3493,-2.38,-2.3686,-2.3339,-2.3669,-1.6908,-1.6835,-1.6243,-1.5509,-1.4829,-1.4579,-1.4488,-1.4511,-1.4666,-1.4747,-1.4803,-1.4962,-1.5082,-1.5101,-1.5241,-1.5323,-1.5326,-1.5373,-1.5397,-1.541,-1.5408,-1.5607,-1.5677,-1.5532,-1.578,-1.5555,-1.5308,-1.5131,-1.5258,-1.4818,-1.4387,-1.4149,-1.4096,-1.3888,-1.3524,-1.3509,-1.3478,-1.3379,-1.3033,-1.2871,-1.2906,-1.2588,-1.2352,-1.2372,-1.2277,-1.2252,-1.2515,-1.2439,-1.277,-1.3268,-1.3809,-1.4562,-1.5499,-1.5709,-1.5911,-1.6095,-1.5942,-1.6095,-1.6355,-1.6686,-1.7109,-1.7664,-1.8246,-1.8753,-1.9064,-1.9227,-1.9305,-1.9335,-1.935,-1.9365,-1.9438,-1.9408,-1.9421,-1.9641,-1.9858,-1.9675,-1.9455,-1.9481,-1.9581,-1.9425,-1.9297,-1.9139,-1.9053,-1.9067,-1.9212,-1.9274,-1.9271,-1.9286,-1.9289,-1.9274,-1.9243,-1.9316,-1.9344,-1.9394,-1.9599,-1.983,-1.9996,-2.048,-2.1147,-2.1905,-2.2744,-2.3343,-2.3894,-2.4195,-2.4331,-2.3879,-2.3771,-2.4209,-2.4252,-2.3869,-2.3894,-2.419,-2.4363,-2.4151,-2.45,-1.5788,-1.565,-1.5134,-1.4694,-1.4417,-1.4375,-1.4399,-1.4499,-1.4589,-1.4622,-1.4666,-1.4863,-1.5014,-1.5028,-1.5188,-1.5279,-1.5302,-1.5352,-1.5375,-1.54,-1.5467,-1.5719,-1.5662,-1.5535,-1.6148,-1.5998,-1.5656,-1.5418,-1.4821,-1.4624,-1.4474,-1.4162,-1.4069,-1.3917,-1.3572,-1.3492,-1.3477,-1.3379,-1.2944,-1.2834,-1.2815,-1.2396,-1.2107,-1.2086,-1.2086,-1.2071,-1.2293,-1.2292,-1.2574,-1.2969,-1.3431,-1.4536,-1.5394,-1.5784,-1.587,-1.5955,-1.5926,-1.5926,-1.6231,-1.6549,-1.6946,-1.7603,-1.8011,-1.8516,-1.9146,-1.9305,-1.938,-1.9409,-1.9335,-1.9353,-1.9963,-2.0077,-2.0254,-2.046,-2.0747,-2.0814,-2.025,-1.9833,-1.9704,-1.9408,-1.916,-1.8788,-1.8678,-1.8566,-1.8771,-1.9117,-1.9148,-1.9227,-1.9243,-1.9162,-1.9146,-1.913,-1.913,-1.9316,-1.9577,-1.982,-2.0085,-2.0642,-2.1366,-2.262,-2.3716,-2.4316,-2.4826,-2.4666,-2.4576,-2.4538,-2.4561,-2.4588,-2.4543,-2.4163,-2.4284,-2.4561,-2.467,-2.4648,-2.4738,-1.438,-1.4136,-1.4001,-1.4042,-1.4188,-1.4201,-1.4307,-1.4476,-1.4488,-1.4499,-1.4556,-1.4811,-1.4943,-1.504,-1.5159,-1.521,-1.5284,-1.5315,-1.5342,-1.537,-1.5389,-1.5603,-1.574,-1.5786,-1.6127,-1.6329,-1.6125,-1.547,-1.4775,-1.4677,-1.4456,-1.402,-1.3842,-1.3774,-1.3528,-1.3396,-1.3396,-1.3346,-1.3086,-1.2871,-1.2533,-1.2133,-1.1961,-1.1854,-1.1848,-1.194,-1.2349,-1.2567,-1.2638,-1.3365,-1.3881,-1.4818,-1.5518,-1.5942,-1.5926,-1.5968,-1.5983,-1.608,-1.6246,-1.634,-1.6995,-1.7597,-1.7881,-1.8346,-1.896,-1.9274,-1.935,-1.9413,-1.9338,-1.9522,-2.0132,-2.0633,-2.0822,-2.0843,-2.1152,-2.1571,-2.0898,-2.0154,-1.9807,-1.9451,-1.9094,-1.868,-1.8586,-1.8447,-1.8487,-1.8825,-1.9,-1.9084,-1.9099,-1.8963,-1.8876,-1.8842,-1.8842,-1.9093,-1.9405,-2.0007,-2.0372,-2.1116,-2.1972,-2.3419,-2.4524,-2.4651,-2.4663,-2.4508,-2.4442,-2.4372,-2.4265,-2.4155,-2.4154,-2.4096,-2.4079,-2.41,-2.4247,-2.4264,-2.4418,-1.3997,-1.3955,-1.3913,-1.4011,-1.4175,-1.4188,-1.4307,-1.4476,-1.4488,-1.4488,-1.4545,-1.4666,-1.4804,-1.4928,-1.5133,-1.5212,-1.5234,-1.527,-1.5293,-1.5311,-1.5332,-1.5485,-1.5564,-1.5542,-1.5553,-1.5652,-1.5669,-1.5224,-1.4841,-1.4737,-1.453,-1.4136,-1.3941,-1.3783,-1.3588,-1.3494,-1.3396,-1.3312,-1.3191,-1.2961,-1.2813,-1.2431,-1.206,-1.1912,-1.1826,-1.2113,-1.2399,-1.2401,-1.3304,-1.4317,-1.5111,-1.5622,-1.5927,-1.6095,-1.6052,-1.6039,-1.6039,-1.6052,-1.6136,-1.6093,-1.6652,-1.7172,-1.7502,-1.8025,-1.8554,-1.8964,-1.9099,-1.9289,-1.9261,-1.9335,-1.9822,-2.0395,-2.0679,-2.0353,-2.0407,-2.1097,-2.1138,-2.0481,-1.9911,-1.9661,-1.938,-1.9207,-1.9202,-1.8912,-1.8498,-1.875,-1.8825,-1.8895,-1.8807,-1.8699,-1.8589,-1.8658,-1.8673,-1.8753,-1.9034,-2.0262,-2.0872,-2.1624,-2.2492,-2.3793,-2.453,-2.4557,-2.4493,-2.4284,-2.4059,-2.3903,-2.3819,-2.3759,-2.3613,-2.357,-2.3437,-2.3464,-2.3681,-2.3885,-2.4025]},{"header":{"parameterUnit":"m.s-1","parameterCategory":1,"la1":31.0,"la2":29.5877,"lo1":-88.7671,"lo2":-86.6584,"dy":0.0162,"dx":0.0185,"nx":115,"ny":88,"refTime":"2023-08-02T00:00:00:Z","depth":0,"parameterNumber":3,"parameterNumberName":"V-component_of_WINDS"},"data":[0.0,0.0,0.0,0.0,0.0,0.0,0.0,0.0,0.0,0.0,0.0,0.0,0.0,0.0,0.0,0.0,0.0,0.0,0.0,0.0,0.0,0.0,0.0,0.0,0.0,0.0,0.0,0.0,0.0,0.0,0.0,0.0,0.0,0.0,0.0,0.0,0.0,0.0,0.0,0.0,0.0,0.0,0.0,0.0,0.0,0.0,0.0,0.0,0.0,0.0,0.0,0.0,0.0,0.0,0.0,0.0,0.0,0.0,0.0,0.0,0.0,0.0,0.0,0.0,0.0,0.0,0.0,0.0,0.0,0.0,0.0,0.0,0.0,0.0,0.0,0.0,0.0,0.0,0.0,0.0,0.0,0.0,0.0,0.0,0.0,0.0,0.0,0.0,0.0,0.0,0.0,0.0,0.0,0.0,0.0,0.0,0.0,0.0,0.0,0.0,0.0,0.0,0.0,0.0,0.0,0.0,0.0,0.0,0.0,0.0,0.0,0.0,0.0,0.0,0.0,0.0,0.0,0.0,0.0,0.0,0.0,0.0,0.0,0.0,0.0,0.0,0.0,0.0,0.0,0.0,0.0,0.0,0.0,0.0,0.0,0.0,0.0,0.0,0.0,0.0,0.0,0.0,0.0,0.0,0.0,0.0,0.0,0.0,0.0,0.0,0.0,0.0,0.0,0.0,0.0,0.0,0.0,0.0,0.0,0.0,0.0,0.0,0.0,0.0,0.0,0.0,0.0,0.0,0.0,0.0,0.0,0.0,0.0,0.0,0.0,0.0,0.0,0.0,0.0,0.0,0.0,0.0,0.0,0.0,0.0,0.0,0.0,0.0,0.0,0.0,0.0,0.0,0.0,0.0,0.0,0.0,0.0,0.0,0.0,0.0,0.0,0.0,0.0,0.0,0.0,0.0,0.0,0.0,0.0,0.0,0.0,0.0,0.0,0.0,0.0,0.0,0.0,0.0,0.0,0.0,0.0,0.0,0.0,0.0,0.0,0.0,0.0,0.0,0.0,0.0,0.0,0.0,0.0,0.0,0.0,0.0,0.0,0.0,0.0,0.0,0.0,0.0,0.0,0.0,0.0,0.0,0.0,0.0,0.0,0.0,0.0,0.0,0.0,0.0,0.0,0.0,0.0,0.0,0.0,0.0,0.0,0.0,0.0,0.0,0.0,0.0,0.0,0.0,0.0,0.0,0.0,0.0,0.0,0.0,0.0,0.0,0.0,0.0,0.0,0.0,0.0,0.0,0.0,0.0,0.0,0.0,0.0,0.0,0.0,0.0,0.0,0.0,0.0,0.0,0.0,0.0,0.0,0.0,0.0,0.0,0.0,0.0,0.0,0.0,0.0,0.0,0.0,0.0,0.0,0.0,0.0,0.0,0.0,0.0,0.0,0.0,0.0,0.0,0.0,0.0,0.0,0.0,0.0,0.0,0.0,0.0,0.0,0.0,0.0,0.0,0.0,0.0,0.0,0.0,0.0,0.0,0.0,0.0,0.0,0.0,0.0,0.0,0.0,0.0,0.0,0.0,0.0,0.0,0.0,0.0,0.0,0.0,0.0,0.0,0.0,0.0,0.0,0.0,0.0,0.0,0.0,0.0,0.0,0.0,0.0,0.0,0.0,0.0,0.0,0.0,0.0,0.0,0.0,0.0,0.0,0.0,0.0,0.0,0.0,0.0,0.0,0.0,0.0,0.0,0.0,0.0,0.0,0.0,0.0,0.0,0.0,0.0,0.0,0.0,0.0,0.0,0.0,0.0,0.0,0.0,0.0,0.0,0.0,0.0,0.0,0.0,0.0,0.0,0.0,0.0,0.0,0.0,0.0,0.0,0.0,0.0,0.0,0.0,0.0,0.0,0.0,0.0,0.0,0.0,0.0,0.0,0.0,0.0,0.0,0.0,0.0,0.0,0.0,0.0,0.0,0.0,0.0,0.0,0.0,0.0,0.0,0.0,0.0,0.0,0.0,0.0,0.0,0.0,0.0,0.0,0.0,0.0,0.0,0.0,0.0,0.0,0.0,0.0,0.0,0.0,0.0,0.0,0.0,0.0,0.0,0.0,0.0,0.0,0.0,0.0,0.0,0.0,0.0,0.0,0.0,0.0,0.0,0.0,0.0,0.0,0.0,0.0,0.0,0.0,0.0,0.0,0.0,0.0,0.0,0.0,0.0,0.0,0.0,0.0,0.0,0.0,0.0,0.0,0.0,0.0,0.0,0.0,0.0,0.0,0.0,0.0,0.0,0.0,0.0,0.0,0.0,0.0,0.0,0.0,0.0,0.0,0.0,0.0,0.0,0.0,0.0,0.0,0.0,0.0,0.0,0.0,0.0,0.0,0.0,0.0,0.0,0.0,0.0,0.0,0.0,0.0,0.0,0.0,0.0,0.0,0.0,0.0,0.0,0.0,0.0,0.0,0.0,0.0,0.0,0.0,0.0,0.0,0.0,0.0,0.0,0.0,0.0,0.0,0.0,0.0,0.0,0.0,0.0,0.0,0.0,0.0,0.0,0.0,0.0,0.0,0.0,0.0,0.0,0.0,0.0,0.0,0.0,0.0,0.0,0.0,0.0,0.0,0.0,0.0,0.0,0.0,0.0,0.0,0.0,0.0,0.0,0.0,0.0,0.0,0.0,0.0,0.0,0.0,0.0,0.0,0.0,0.0,0.0,0.0,0.0,0.0,0.0,0.0,0.0,0.0,0.0,0.0,0.0,0.0,0.0,0.0,0.0,0.0,0.0,0.0,0.0,0.0,0.0,0.0,0.0,0.0,0.0,0.0,0.0,0.0,0.0,0.0,0.0,0.0,0.0,0.0,0.0,0.0,0.0,0.0,0.0,0.0,0.0,0.0,0.0,0.0,0.0,0.0,0.0,0.0,0.0,0.0,0.0,0.0,0.0,0.0,0.0,0.0,0.0,0.0,0.0,0.0,0.0,0.0,0.0,0.0,0.0,0.0,0.0,0.0,0.0,0.0,0.0,0.0,0.0,0.0,0.0,0.0,0.0,0.0,0.0,0.0,0.0,0.0,0.0,0.0,0.0,0.0,0.0,0.0,0.0,0.0,0.0,0.0,0.0,0.0,0.0,0.0,0.0,0.0,0.0,0.0,0.0,0.0,0.0,0.0,0.0,0.0,0.0,0.0,0.0,0.0,0.0,0.0,0.0,0.0,0.0,0.0,0.0,0.0,0.0,0.0,0.0,0.0,0.0,0.0,0.0,0.0,0.0,0.0,0.0,0.0,0.0,0.0,0.0,0.0,0.0,0.0,0.0,0.0,0.0,0.0,0.0,0.0,0.0,0.0,0.0,0.0,0.0,0.0,0.0,0.0,0.0,0.0,0.0,0.0,0.0,0.0,0.0,0.0,0.0,0.0,0.0,0.0,0.0,0.0,0.0,0.0,0.0,0.0,0.0,0.0,0.0,0.0,0.0,0.0,0.0,0.0,0.0,0.0,0.0,0.0,0.0,0.0,0.0,0.0,0.0,0.0,0.0,0.0,0.0,0.0,0.0,0.0,0.0,0.0,0.0,0.0,0.0,0.0,0.0,0.0,0.0,0.0,0.0,0.0,0.0,0.0,0.0,0.0,0.0,0.0,0.0,0.0,0.0,0.0,0.0,0.0,0.0,0.0,0.0,0.0,0.0,0.0,0.0,0.0,0.0,0.0,0.0,0.0,0.0,0.0,0.0,0.0,0.0,0.0,0.0,0.0,0.0,0.0,0.0,0.0,0.0,0.0,0.0,0.0,0.0,0.0,0.0,0.0,0.0,0.0,0.0,0.0,0.0,0.0,0.0,0.0,0.0,0.0,0.0,0.0,0.0,0.0,0.0,0.0,0.0,0.0,0.0,0.0,0.0,0.0,0.0,0.0,0.0,0.0,0.0,0.0,0.0,0.0,0.0,0.0,0.0,0.0,0.0,0.0,0.0,0.0,0.0,0.0,0.0,0.0,0.0,0.0,0.0,0.0,0.0,0.0,0.0,0.0,0.0,0.0,0.0,0.0,0.0,0.0,0.0,0.0,0.0,0.0,0.0,0.0,0.0,0.0,0.0,0.0,0.0,0.0,0.0,0.0,0.0,0.0,0.0,0.0,0.0,0.0,0.0,0.0,0.0,0.0,0.0,0.0,0.0,0.0,0.0,0.0,0.0,0.0,0.0,0.0,0.0,0.0,0.0,0.0,0.0,0.0,0.0,0.0,0.0,0.0,0.0,0.0,0.0,0.0,0.0,0.0,0.0,0.0,0.0,0.0,0.0,0.0,0.0,0.0,0.0,0.0,1.436,0.0,0.0,0.0,0.0,0.0,0.0,0.0,0.0,0.0,0.0,0.0,0.0,0.0,0.0,0.0,0.0,0.0,0.0,0.0,0.0,0.0,0.0,0.0,0.0,0.0,0.0,0.0,0.0,0.0,0.0,0.0,0.0,0.0,0.0,0.0,0.0,0.0,0.0,0.0,0.0,0.0,0.0,0.0,0.0,0.0,0.0,0.0,0.0,0.0,0.0,0.0,0.0,0.0,0.0,0.0,0.0,0.0,0.0,0.0,0.0,0.0,0.0,0.0,0.0,0.0,0.0,0.0,0.0,0.0,0.0,0.0,0.0,0.0,0.0,0.0,0.0,0.0,0.0,0.0,0.0,0.0,0.0,0.0,0.0,0.0,0.0,0.0,0.0,0.0,0.0,0.0,0.0,0.0,0.0,0.0,0.0,0.0,0.0,0.0,0.0,0.0,0.0,0.0,0.0,0.0,0.0,0.0,0.0,0.0,0.0,2.0584,2.0442,1.965,1.8014,1.5484,0.0,0.0,0.0,0.0,0.0,0.0,0.0,0.0,0.0,0.0,0.0,0.0,0.0,0.0,0.0,0.0,0.0,0.0,0.0,0.0,0.0,0.0,0.0,0.0,0.0,0.0,0.0,0.0,0.0,0.0,0.0,0.0,0.0,0.0,0.0,0.0,0.0,0.0,0.0,0.0,0.0,0.0,0.0,0.0,0.0,0.0,0.0,0.0,0.0,0.0,0.0,0.0,0.0,0.0,0.0,0.0,0.0,0.0,0.0,0.0,0.0,0.0,0.0,0.0,0.0,0.0,0.0,0.0,0.0,0.0,0.0,0.0,0.0,0.0,0.0,0.0,0.0,0.0,0.0,0.0,0.0,0.0,0.0,0.0,0.0,0.0,0.0,0.0,0.0,0.0,0.0,0.0,0.0,0.0,0.0,0.0,0.0,0.0,0.0,0.0,0.0,0.0,0.0,0.0,0.0,0.0,0.0,0.0,0.0,0.0,0.0,0.0,2.1114,1.8339,1.3631,0.0,0.0,0.0,0.0,0.0,0.0,0.0,0.0,0.0,0.0,0.0,0.0,0.0,0.0,0.0,0.0,0.0,0.0,0.0,0.0,0.0,0.0,0.0,0.0,0.0,0.0,0.0,0.0,0.0,0.0,0.0,0.0,0.0,0.0,0.0,0.0,0.0,0.0,0.0,0.0,0.0,0.0,0.0,0.0,0.0,0.0,0.0,0.0,0.0,0.0,0.0,0.0,0.0,0.0,0.0,0.0,0.0,0.0,0.0,0.0,0.0,0.0,0.0,0.0,0.0,0.0,0.0,0.0,0.0,0.0,0.0,0.0,0.0,0.0,0.0,0.0,0.0,0.0,0.0,0.0,0.0,0.0,0.0,0.0,0.0,0.0,0.0,0.0,0.0,0.0,0.0,0.0,0.0,0.0,0.0,0.0,0.0,0.0,0.0,0.0,0.0,0.0,0.0,0.0,0.0,0.0,0.0,0.0,0.0,0.0,2.2748,2.2267,2.0743,0.0,0.5982,0.0,0.0,0.0,0.0,0.0,0.0,0.0,0.0,0.0,0.0,0.0,0.0,0.0,0.0,0.0,0.0,0.0,0.0,0.0,0.0,0.0,0.0,0.0,0.0,0.0,0.0,0.0,0.0,0.0,0.0,0.0,0.0,0.0,0.0,0.0,0.0,0.0,0.0,0.0,0.0,0.0,0.0,0.0,0.0,0.0,0.0,0.0,0.0,0.0,0.0,0.0,0.0,0.0,0.0,0.0,0.0,0.0,0.0,0.0,0.0,0.0,0.0,0.0,0.0,0.0,0.0,0.0,0.0,0.0,0.0,0.0,0.0,0.0,0.0,0.0,0.0,0.0,0.0,0.0,0.0,0.0,0.0,0.0,0.0,0.0,0.0,0.0,0.0,0.0,0.0,0.0,0.0,0.0,0.0,0.0,0.0,0.0,0.0,0.0,0.0,0.0,0.0,0.0,0.0,0.0,0.0,0.0,0.0,0.0,0.0,2.2045,2.0559,1.5971,1.0285,0.0,0.0,0.0,0.0,0.0,0.0,0.0,0.0,0.0,0.0,0.0,0.0,0.0,0.0,0.0,0.0,0.0,0.0,0.0,0.0,0.0,0.0,0.0,0.0,0.0,0.0,0.0,0.0,0.0,0.0,0.0,0.0,0.0,0.0,0.0,0.0,0.0,0.0,0.0,0.0,0.0,0.0,0.0,0.0,0.0,0.0,0.0,0.0,0.0,0.0,0.0,0.0,0.0,0.0,0.0,0.0,0.0,0.0,0.0,0.0,0.0,0.0,0.0,0.0,0.0,0.0,0.0,0.0,0.0,0.0,0.0,0.0,0.0,0.0,0.0,0.0,0.0,0.0,0.0,0.0,0.0,0.0,0.0,0.0,0.0,0.0,0.0,0.0,0.0,0.0,0.0,0.0,0.0,0.0,0.0,0.0,0.0,0.0,0.0,0.0,0.0,0.0,0.0,0.0,0.0,0.0,0.0,0.0,0.0,0.0,2.1732,1.997,1.6894,1.075,0.5195,0.0475,0.0,0.0,0.0,0.0,0.0,0.0,0.0,0.0,0.0,0.0,0.0,0.0,0.0,0.0,0.0,0.0,0.0,0.0,0.0,0.0,0.0,0.0,0.0,0.0,0.0,0.0,0.0,0.0,0.0,0.0,0.0,0.0,0.0,0.0,0.0,0.0,0.0,0.0,0.0,0.0,0.0,0.0,0.0,0.0,0.0,0.0,0.0,0.0,0.0,0.0,0.0,0.0,0.0,0.0,0.0,0.0,0.0,0.0,0.0,0.0,0.0,0.0,0.0,0.0,0.0,0.0,0.0,0.0,0.0,0.0,0.0,0.0,0.0,0.0,0.0,0.0,0.0,0.0,0.0,0.0,0.0,0.0,0.0,0.0,0.0,0.0,0.0,0.0,0.0,0.0,0.0,0.0,0.0,0.0,0.0,0.0,0.0,0.0,0.0,0.0,0.0,0.0,0.0,0.0,0.0,0.0,0.0,0.0,2.1146,1.9415,1.6159,1.1259,0.606,0.0534,0.0,0.0,0.0,0.0,0.0,0.0,0.0,0.0,0.0,0.0,0.0,0.0,0.0,0.0,0.0,0.0,0.0,0.0,0.0,0.0,0.0,0.0,0.0,0.0,0.0,0.0,0.0,0.0,0.0,0.0,0.0,0.0,0.0,0.0,0.0,0.0,0.0,0.0,0.0,0.0,0.0,0.0,0.0,0.0,0.0,0.0,0.0,0.0,0.0,0.0,0.0,0.0,0.0,0.0,0.0,0.0,0.0,0.0,0.0,0.0,0.0,0.0,0.0,0.0,0.0,0.0,0.0,0.0,0.0,0.0,0.0,0.0,0.0,0.0,0.0,0.0,0.0,0.0,0.0,0.0,0.0,0.0,0.0,0.0,0.0,0.0,0.0,0.0,0.0,0.0,0.0,0.0,0.0,0.0,0.0,0.0,0.0,0.0,0.0,0.0,0.0,0.0,0.0,0.0,0.0,0.0,0.0,0.0,0.0,1.9171,1.4429,1.0021,0.6211,0.1688,-0.2704,0.0,0.0,0.0,0.0,0.0,0.0,0.0,0.0,0.0,0.0,0.0,0.0,0.0,0.0,0.0,0.0,0.0,0.0,0.0,0.0,0.0,0.0,0.0,0.0,0.0,0.0,0.0,0.0,0.0,0.0,0.0,0.0,0.0,0.0,0.0,0.0,0.0,0.0,0.0,0.0,0.0,0.0,0.0,0.0,0.0,0.0,0.0,0.0,0.0,0.0,0.0,0.0,0.0,0.0,0.0,0.0,0.0,0.0,0.0,0.0,0.0,0.0,0.0,0.0,0.0,0.0,0.0,0.0,0.0,0.0,0.0,0.0,0.0,0.0,0.0,0.0,0.0,0.0,0.0,0.0,0.0,0.0,0.0,0.0,0.0,0.0,0.0,0.0,0.0,0.0,0.0,0.0,0.0,0.0,0.0,0.0,0.0,0.0,0.0,0.0,0.0,0.0,0.0,0.0,0.0,0.0,0.0,0.0,0.0,1.5586,0.0,0.5195,0.2012,-0.1605,-0.4944,0.0,0.0,0.0,0.0,0.0,0.0,0.0,0.0,0.0,0.0,0.0,0.0,0.0,0.0,0.0,0.0,0.0,0.0,0.0,0.0,0.0,0.0,0.0,0.0,0.0,0.0,0.0,0.0,0.0,0.0,0.0,0.0,0.0,0.0,0.0,0.0,0.0,0.0,0.0,0.0,0.0,0.0,0.0,0.0,0.0,0.0,0.0,0.0,0.0,0.0,0.0,0.0,0.0,0.0,0.0,0.0,0.0,0.0,0.0,0.0,0.0,0.0,0.0,0.0,0.0,0.0,0.0,0.0,0.0,0.0,0.0,0.0,0.0,0.0,0.0,0.0,0.0,0.0,0.0,0.0,0.0,0.0,0.0,0.0,0.0,0.0,0.0,0.0,0.0,0.0,0.0,0.0,0.0,0.0,0.0,0.0,0.0,0.0,0.0,0.0,0.0,0.0,0.0,0.0,0.0,0.0,0.0,0.0,1.6393,1.0207,0.5934,0.2229,-0.119,-0.3857,-0.6276,0.0,0.0,0.0,0.0,0.0,0.0,0.0,0.0,0.0,0.0,0.0,0.0,0.0,0.0,0.0,0.0,0.0,0.0,0.0,0.0,0.0,0.0,0.0,0.0,0.0,0.0,0.0,0.0,0.0,0.0,0.0,0.0,0.0,0.0,0.0,0.0,0.0,0.0,0.0,0.0,0.0,0.0,0.0,0.0,0.0,0.0,0.0,0.0,0.0,0.0,0.0,0.0,0.0,0.0,0.0,0.0,0.0,0.0,0.0,0.0,0.0,0.0,0.0,0.0,0.0,0.0,0.0,0.0,0.0,0.0,0.0,0.0,0.0,0.0,0.0,0.0,0.0,0.0,0.0,0.0,0.0,0.0,0.0,0.0,0.0,0.0,0.0,0.0,0.0,0.0,0.0,0.0,0.0,0.0,0.0,0.0,0.0,0.0,0.0,0.0,0.0,0.0,0.0,0.0,0.0,0.0,0.0,0.0,0.0,0.7906,0.4154,0.0556,-0.2943,-0.5564,-0.7623,0.0,0.0,0.0,0.0,0.0,0.0,0.0,0.0,0.0,0.0,0.0,0.0,0.0,0.0,0.0,0.0,0.0,0.0,0.0,0.0,0.0,0.0,0.0,0.0,0.0,0.0,0.0,0.0,0.0,0.0,0.0,0.0,0.0,0.0,0.0,0.0,0.0,0.0,0.0,0.0,0.0,0.0,0.0,0.0,0.0,0.0,0.0,0.0,0.0,0.0,0.0,0.0,0.0,0.0,0.0,0.0,0.0,0.0,0.0,0.0,0.0,0.0,0.0,0.0,0.0,0.0,0.0,0.0,0.0,0.0,0.0,0.0,0.0,0.0,0.0,0.0,0.0,0.0,0.0,0.0,0.0,0.0,0.0,0.0,0.0,0.0,0.0,0.0,0.0,0.0,0.0,0.0,0.0,0.0,0.0,0.0,0.0,0.0,0.0,0.0,0.0,0.0,0.0,0.0,0.0,0.0,0.0,0.0,0.0,0.5297,0.2361,-0.1049,-0.4874,-0.7019,-0.8788,-1.0086,0.0,0.0,0.0,0.0,0.0,0.0,0.0,0.0,0.0,0.0,0.0,0.0,0.0,0.0,0.0,0.0,0.0,0.0,0.0,0.0,0.0,0.0,0.0,0.0,0.0,0.0,0.0,0.0,0.0,0.0,0.0,0.0,0.0,0.0,0.0,0.0,0.0,0.0,0.0,0.0,0.0,0.0,0.0,0.0,0.0,0.0,0.0,0.0,0.0,0.0,0.0,0.0,0.0,0.0,0.0,0.0,0.0,0.0,0.0,0.0,0.0,0.0,0.0,0.0,0.0,0.0,0.0,0.0,0.0,0.0,0.0,0.0,0.0,0.0,0.0,0.0,0.0,0.0,0.0,0.0,0.0,0.0,0.0,0.0,0.0,0.0,0.0,0.0,0.0,0.0,0.0,0.0,0.0,0.0,0.0,0.0,0.0,0.0,0.0,0.0,0.0,0.0,0.0,0.0,0.0,0.0,0.0,0.0,0.2465,0.0408,-0.262,-0.6671,-0.8338,-0.9846,0.0,0.0,0.0,0.0,0.0,0.0,0.0,0.0,0.0,0.0,0.0,0.0,0.0,0.0,0.0,0.0,0.0,0.0,0.0,0.0,0.0,0.0,0.0,0.0,0.0,0.0,0.0,0.0,0.0,0.0,0.0,0.0,0.0,0.0,0.0,0.0,0.0,0.0,0.0,0.0,0.0,0.0,0.0,0.0,0.0,0.0,0.0,0.0,0.0,0.0,0.0,0.0,0.0,0.0,0.0,0.0,0.0,0.0,0.0,0.0,0.0,0.0,0.0,0.0,0.0,0.0,0.0,0.0,0.0,0.0,0.0,0.0,0.0,0.0,0.0,0.0,0.0,0.0,0.0,0.0,0.0,0.0,0.0,0.0,0.0,0.0,0.0,0.0,0.0,0.0,0.0,0.0,0.0,0.0,0.0,0.0,0.0,0.0,0.0,0.0,0.0,0.0,0.0,0.0,0.0,0.0,0.0,0.0,0.0,0.0603,-0.1541,-0.4398,-0.8105,-0.9413,-1.0846,0.0,0.0,0.0,0.0,0.0,0.0,0.0,0.0,0.0,0.0,0.0,0.0,0.0,0.0,0.0,0.0,0.0,0.0,0.0,0.0,0.0,0.0,0.0,0.0,0.0,0.0,0.0,0.0,0.0,0.0,0.0,0.0,0.0,0.0,0.0,0.0,0.0,0.0,0.0,0.0,0.0,0.0,0.0,0.0,0.0,0.0,0.0,0.0,0.0,0.0,0.0,0.0,0.0,0.0,0.0,0.0,0.0,0.0,0.0,0.0,0.0,0.0,0.0,0.0,0.0,0.0,0.0,0.0,0.0,0.0,0.0,0.0,0.0,0.0,0.0,0.0,0.0,0.0,0.0,0.0,0.0,0.0,0.0,0.0,0.0,0.0,0.0,0.0,0.0,0.0,0.0,0.0,0.0,0.0,0.0,0.0,0.0,0.0,0.0,0.0,0.0,0.0,0.0,0.0,0.0,0.0,0.0,0.0,0.2632,-0.0705,-0.3231,-0.6349,-1.026,-1.0881,-1.192,0.0,0.0,0.0,0.0,0.0,0.0,0.0,0.0,0.0,0.0,0.0,0.0,0.0,0.0,0.0,0.0,0.0,0.0,0.0,0.0,0.0,0.0,0.0,0.0,0.0,0.0,0.0,0.0,0.0,0.0,0.0,0.0,0.0,0.0,0.0,0.0,0.0,0.0,0.0,0.0,0.0,0.0,0.0,0.0,0.0,0.0,0.0,0.0,0.0,0.0,0.0,0.0,0.0,0.0,0.0,0.0,0.0,0.0,0.0,0.0,0.0,0.0,0.0,0.0,0.0,0.0,0.0,0.0,0.0,0.0,0.0,0.0,0.0,0.0,0.0,0.0,0.0,0.0,0.0,0.0,0.0,0.0,0.0,0.0,0.0,0.0,0.0,0.0,0.0,0.0,0.0,0.0,0.0,0.0,0.0,0.0,0.0,0.0,0.0,0.0,0.0,0.0,0.0,0.0,0.0,0.0,0.0,0.0,0.0764,-0.169,-0.4542,-0.8092,-1.2149,-1.2146,-1.2916,0.0,0.0,0.0,0.0,0.0,0.0,0.0,0.0,0.0,0.0,0.0,0.0,0.0,0.0,0.0,0.0,0.0,0.0,0.0,0.0,0.0,0.0,0.0,0.0,0.0,0.0,0.0,0.0,0.0,0.0,0.0,0.0,0.0,0.0,0.0,0.0,0.0,0.0,0.0,0.0,0.0,0.0,0.0,0.0,0.0,0.0,0.0,0.0,0.0,0.0,0.0,0.0,0.0,0.0,0.0,0.0,0.0,0.0,0.0,0.0,0.0,0.0,0.0,0.0,0.0,0.0,0.0,0.0,0.0,0.0,0.0,0.0,0.0,0.0,0.0,0.0,0.0,0.0,0.0,0.0,0.0,0.0,0.0,0.0,0.0,0.0,0.0,0.0,0.0,0.0,0.0,0.0,0.0,0.0,0.0,0.0,0.0,0.0,0.0,0.0,0.0,0.0,0.0,0.0,0.0,0.0,0.0,0.0,0.0174,-0.2734,-0.5029,-0.8191,-1.2274,-1.208,-1.3244,0.0,0.0,0.0,0.0,0.0,0.0,0.0,0.0,0.0,0.0,0.0,0.0,0.0,0.0,0.0,0.0,0.0,0.0,0.0,0.0,0.0,0.0,0.0,0.0,0.0,0.0,0.0,0.0,0.0,0.0,0.0,0.0,0.0,0.0,0.0,0.0,0.0,0.0,0.0,0.0,0.0,0.0,0.0,0.0,0.0,0.0,0.0,0.0,-0.3789,0.0,0.0,0.0,0.0,0.0,0.0,0.0,0.0,0.0,0.0,0.0,0.0,0.0,0.0,0.0,0.0,0.0,0.0,0.0,0.0,0.0,0.0,0.0,0.0,0.0,0.0,0.0,0.0,0.0,0.0,0.0,0.0,0.0,0.0,0.0,0.0,0.0,0.0,0.0,0.0,0.0,0.0,0.0,0.0,0.0,0.0,0.0,0.0,0.0,0.0,0.0,0.0,0.0,0.0,0.0,0.0,0.0,0.0,0.0,-0.0965,-0.3217,-0.5806,-0.8765,-1.2149,-1.2162,-1.3389,0.0,0.0,0.0,0.0,0.0,0.0,0.0,0.0,0.0,0.0,0.0,0.0,0.0,0.0,0.0,0.0,0.0,0.0,0.0,0.0,0.0,0.0,0.0,0.0,0.0,0.0,0.0,0.0,0.0,0.0,0.0,0.0,0.0,0.0,0.0,0.0,0.0,0.0,0.0,0.0,0.0,0.0,0.0,0.0,0.0,0.0,0.0,0.0,0.0,0.0,0.0,0.0,0.0,0.0,0.0,0.0,0.0,0.0,0.0,0.0,0.0,0.0,0.0,0.0,0.0,0.0,0.0,0.0,0.0,0.0,0.0,0.0,0.0,0.0,0.0,0.0,0.0,0.0,0.0,0.0,0.0,0.0,0.0,0.0,0.0,0.0,0.0,0.0,0.0,0.0,0.0,0.0,0.0,0.0,0.0,0.0,0.0,0.0,0.0,0.0,0.0,0.0,0.0,0.0,0.0,0.0,0.0,0.0906,-0.1943,-0.3529,-0.6646,-0.959,-1.2264,-1.2507,-1.3768,-1.6375,0.0,0.0,0.0,0.0,0.0,0.0,0.0,0.0,0.0,0.0,0.0,0.0,0.0,0.0,0.0,0.0,0.0,0.0,0.0,0.0,0.0,0.0,0.0,0.0,0.0,0.0,0.0,0.0,0.0,0.0,0.0,0.0,0.0,0.0,0.0,0.0,0.0,0.0,0.8844,0.7567,0.0,0.0,0.0,0.0,0.0,0.0,0.0,0.0,-0.6449,0.0,0.0,0.0,0.0,0.0,0.0,0.0,0.0,0.0,0.0,0.0,0.0,0.0,0.0,0.0,0.0,0.0,0.0,0.0,0.0,0.0,0.0,0.0,0.0,0.0,0.0,0.0,0.0,0.0,0.0,0.0,0.0,0.0,0.0,0.0,0.0,0.0,0.0,0.0,0.0,0.0,0.0,0.0,0.0,0.0,0.0,0.0,0.0,0.0,0.0,0.0,0.0,0.0,0.0,0.0,0.0,0.4823,0.085,-0.2092,-0.3868,-0.771,-1.0578,-1.2358,-1.3278,-1.4605,-1.6197,0.0,0.0,0.0,0.0,0.0,0.0,0.0,0.0,0.0,0.0,0.0,0.0,0.0,0.0,0.0,0.0,0.0,0.0,0.0,0.0,0.0,0.0,0.0,0.0,0.0,0.0,0.0,0.0,0.0,0.0,0.0,0.0,0.0,0.0,0.0,0.0,0.0,0.0,0.0,0.7736,0.6155,0.0,0.0,0.0,0.0,0.0,0.0,0.0,0.0,-0.8123,0.0,0.0,0.0,0.0,0.0,0.0,0.0,0.0,0.0,0.0,0.0,0.0,0.0,0.0,0.0,0.0,0.0,0.0,0.0,0.0,0.0,0.0,0.0,0.0,0.0,0.0,0.0,0.0,0.0,0.0,0.0,0.0,0.0,0.0,0.0,0.0,0.0,0.0,0.0,0.0,0.0,0.0,0.0,0.0,0.0,0.0,0.0,0.0,0.0,0.0,0.0,0.0,0.0,0.0,0.0,0.456,0.0258,-0.2674,-0.4041,-0.7889,-1.0632,-1.2097,-1.3406,-1.4727,0.0,0.0,0.0,0.0,0.0,0.0,0.0,0.0,0.0,0.0,0.0,0.0,0.0,0.0,0.0,0.0,0.0,0.0,0.0,0.0,0.0,0.0,0.0,0.0,0.0,0.0,0.0,0.0,0.0,0.0,0.0,0.0,0.0,0.0,0.0,0.0,0.0,0.0,0.0,0.0,0.677,0.5337,0.3909,0.0,0.0,0.0,0.0,0.0,0.0,-0.7733,-0.8513,0.0,0.0,0.0,0.0,0.0,0.0,0.0,0.0,0.0,0.0,0.0,0.0,0.0,0.0,0.0,0.0,0.0,0.0,0.0,0.0,0.0,0.0,0.0,0.0,0.0,0.0,0.0,0.0,0.0,0.0,0.0,0.0,0.0,0.0,0.0,0.0,0.0,0.0,0.0,0.0,0.0,0.0,0.0,0.0,0.0,0.0,0.0,0.0,0.0,0.0,0.0,0.0,0.0,0.0,0.0,0.3975,-0.0432,-0.3416,-0.474,-0.8397,-1.0891,-1.2097,-1.3707,-1.5021,0.0,0.0,0.0,0.0,0.0,0.0,0.0,0.0,0.0,0.0,0.0,0.0,0.0,0.0,0.0,0.0,0.0,0.0,0.0,0.0,0.0,0.0,0.0,0.0,0.0,0.0,0.0,0.0,0.0,0.0,0.0,0.0,0.0,0.0,0.0,0.0,0.0,0.0,0.0,0.0,0.0,0.4241,0.2983,0.0668,0.0,0.0,0.0,0.0,-0.7376,-0.832,0.0,0.0,0.0,0.0,0.0,0.0,0.0,0.0,0.0,0.0,0.0,0.0,0.0,0.0,0.0,0.0,0.0,0.0,0.0,0.0,0.0,0.0,0.0,0.0,0.0,0.0,0.0,0.0,0.0,0.0,0.0,0.0,0.0,0.0,0.0,0.0,0.0,0.0,0.0,0.0,0.0,0.0,0.0,0.0,0.0,0.0,0.0,0.0,0.0,0.0,0.0,0.0,0.0,0.0,0.0,0.0,0.2468,-0.0859,-0.3997,-0.6876,-0.9892,-1.1932,-1.2837,-1.5066,-1.613,0.0,0.0,0.0,0.0,0.0,0.0,0.0,0.0,0.0,0.0,0.0,0.0,0.0,0.0,0.0,0.0,0.0,0.0,0.0,0.0,0.0,0.0,0.0,0.0,0.0,0.0,0.0,0.0,0.0,0.0,0.0,0.0,0.0,0.0,0.0,0.0,0.0,0.0,0.0,0.0,0.0,0.311,0.059,-0.0812,-0.2614,0.0,0.0,-0.7517,-0.835,-0.9065,0.0,0.0,0.0,0.0,0.0,0.0,0.0,0.0,0.0,0.0,0.0,0.0,0.0,0.0,0.0,0.0,0.0,0.0,0.0,0.0,0.0,0.0,0.0,0.0,0.0,0.0,0.0,0.0,0.0,0.0,0.0,0.0,0.0,0.0,0.0,0.0,0.0,0.0,0.0,0.0,0.0,0.0,0.0,0.0,0.0,0.0,0.0,0.0,0.0,0.0,0.0,0.0,0.0,0.0,0.0,0.3914,0.1571,-0.1623,-0.451,-0.7224,-0.9987,-1.2286,-1.3891,-1.5616,-1.6629,0.0,0.0,0.0,0.0,0.0,0.0,0.0,0.0,0.0,0.0,0.0,0.0,0.0,0.0,0.0,0.0,0.0,0.0,0.0,0.0,0.0,0.0,0.0,0.0,0.0,0.0,0.0,0.0,0.0,0.0,0.0,0.0,0.0,0.0,0.0,0.0,0.0,0.0,0.0,0.0,0.0,0.0,-0.0844,-0.2883,0.0,0.0,0.0,-0.832,-0.8577,0.0,0.0,0.0,0.0,0.0,0.0,0.0,0.0,0.0,0.0,0.0,0.0,0.0,0.0,0.0,0.0,0.0,0.0,0.0,0.0,0.0,0.0,0.0,0.0,0.0,0.0,0.0,0.0,0.0,0.0,0.0,0.0,0.0,0.0,0.0,0.0,0.0,0.0,0.0,0.0,0.0,0.0,0.0,0.0,0.0,0.0,0.0,0.0,0.0,0.0,0.0,0.0,0.0,0.0,0.0,0.0,0.0,0.0235,-0.2969,-0.57,-0.8068,-1.0481,-1.2756,-1.4825,-1.608,0.0,0.0,0.0,0.0,0.0,0.0,0.0,0.0,0.0,0.0,0.0,0.0,0.0,0.0,0.0,0.0,0.0,0.0,0.0,0.0,0.0,0.0,0.0,0.0,0.0,0.0,0.0,-0.2263,0.0,0.0,0.0,0.0,0.0,0.0,0.0,0.0,0.0,0.0,0.0,0.0,0.0,0.0,-0.1862,-0.2807,-0.4928,-0.6671,0.0,0.0,-0.8966,-0.8912,-0.9285,-0.9361,0.0,0.0,0.0,0.0,0.0,0.0,0.0,0.0,0.0,0.0,0.0,0.0,0.0,0.0,0.0,0.0,0.0,0.0,0.0,0.0,0.0,0.0,0.0,0.0,0.0,0.0,0.0,0.0,0.0,0.0,0.0,0.0,0.0,0.0,0.0,0.0,0.0,0.0,0.0,0.0,0.0,0.0,0.0,0.0,0.0,0.0,0.0,0.0,0.0,0.0,0.0,0.0,0.0,0.0,0.0,-0.2084,-0.5126,-0.7823,-1.0284,-1.2137,-1.385,-1.5543,-1.6846,-1.7473,0.0,0.0,0.0,0.0,0.0,0.0,0.0,0.0,0.0,0.0,0.0,0.0,0.0,0.0,0.0,0.0,0.0,0.0,0.0,0.0,0.0,0.0,0.0,0.0,0.0,0.0,0.0,0.0,0.0,0.0,0.0,0.0,0.0,0.0,0.0,0.0,0.0,0.0,0.0,0.0,0.0,-0.3492,-0.5728,-0.6461,-0.7523,0.0,-0.9539,-0.9346,-0.9295,-0.972,-0.971,-0.8849,0.0,0.0,0.0,0.0,0.0,0.0,0.0,0.0,0.0,0.0,0.0,0.0,0.0,0.0,0.0,0.0,0.0,0.0,0.0,0.0,0.0,0.0,0.0,0.0,0.0,0.0,0.0,0.0,0.0,0.0,0.0,0.0,0.0,0.0,0.0,0.0,0.0,0.0,0.0,0.0,0.0,0.0,0.0,0.0,0.0,0.0,0.0,0.0,0.0,0.0,0.0,0.0,0.0,-0.176,-0.4405,-0.6124,-0.8483,-1.1547,-1.3028,-1.4654,-1.6609,-1.7689,-1.8337,0.0,0.0,0.0,0.0,0.0,0.0,0.0,0.0,0.0,0.0,0.0,0.0,0.0,0.0,0.0,0.0,0.0,0.0,0.0,0.0,0.0,0.0,0.0,0.0,0.0,0.0,0.0,0.0,-0.6163,-0.6881,-0.7673,0.0,0.0,0.0,0.0,0.0,0.0,0.0,0.0,0.0,0.0,-0.5735,-0.6973,-0.8091,0.0,0.0,-0.968,-0.96,-0.9425,-0.9442,-0.9317,-0.8794,-0.8353,0.0,0.0,0.0,0.0,0.0,0.0,0.0,0.0,0.0,0.0,0.0,0.0,0.0,0.0,0.0,0.0,0.0,0.0,0.0,0.0,0.0,0.0,0.0,0.0,0.0,0.0,0.0,0.0,0.0,0.0,0.0,0.0,0.0,0.0,0.0,0.0,0.0,0.0,0.0,0.0,0.0,0.0,0.0,0.0,0.0,0.0,0.0,0.0,0.0,0.0,0.0,0.0,-0.4162,-0.6536,-0.7919,-0.987,-1.2433,-1.3867,-1.5514,-1.7261,-1.8334,-1.9081,0.0,0.0,0.0,0.0,0.0,0.0,0.0,0.0,0.0,0.0,0.0,0.0,0.0,0.0,0.0,0.0,0.0,0.0,0.0,0.0,0.0,0.0,0.0,0.0,0.0,0.0,0.0,0.0,-0.7032,-0.7513,-0.8039,0.0,0.0,0.0,0.0,0.0,0.0,0.0,0.0,0.0,0.0,-0.7293,-0.7891,-0.8994,-0.9652,-0.9554,-0.9547,-0.9486,-0.9279,-0.912,-0.892,-0.8628,0.0,0.0,0.0,0.0,0.0,0.0,0.0,0.0,0.0,0.0,0.0,0.0,0.0,0.0,0.0,0.0,0.0,0.0,0.0,0.0,0.0,0.0,0.0,0.0,0.0,0.0,0.0,0.0,0.0,0.0,-0.4942,0.0,0.0,0.0,0.0,0.0,0.0,0.0,0.0,0.0,0.0,0.0,0.0,0.0,0.0,0.0,0.0,0.0,0.0,0.0,0.0,0.0,0.0,-0.7192,-0.8199,-1.059,-1.2204,-1.2855,-1.496,-1.6423,-1.7367,-1.8667,-1.9546,-1.9837,0.0,0.0,0.0,0.0,0.0,0.0,0.0,0.0,0.0,0.0,0.0,0.0,0.0,0.0,0.0,0.0,0.0,0.0,0.0,0.0,0.0,0.0,0.0,0.0,0.0,0.0,-0.7301,-0.8401,-0.9057,0.0,0.0,0.0,0.0,0.0,0.0,0.0,0.0,0.0,0.0,-0.6918,-0.8016,-0.8256,-0.8948,-0.9381,-0.9381,-0.9144,-0.896,-0.896,-0.8825,-0.8618,0.0,0.0,0.0,0.0,0.0,0.0,0.0,0.0,0.0,0.0,0.0,0.0,0.0,0.0,0.0,0.0,0.0,0.0,0.0,0.0,0.0,0.0,0.0,0.0,0.0,0.0,0.0,-0.7539,-0.7087,0.0,0.0,0.0,0.0,0.0,0.0,0.0,0.0,0.0,0.0,0.0,-0.698,-0.8296,0.0,0.0,0.0,0.0,0.0,0.0,0.0,0.0,0.0,0.0,0.0,0.0,-0.8792,-1.0398,-1.1595,-1.313,-1.4954,-1.6209,-1.7376,-1.8399,-1.9561,-2.011,-1.9932,0.0,0.0,0.0,0.0,0.0,0.0,0.0,0.0,0.0,0.0,0.0,0.0,0.0,0.0,0.0,0.0,0.0,0.0,0.0,0.0,0.0,0.0,0.0,0.0,0.0,-0.7247,0.0,0.0,0.0,0.0,0.0,0.0,0.0,0.0,0.0,0.0,0.0,-0.6372,-0.7214,-0.7943,-0.8419,-0.8736,-0.8903,-0.8971,0.0,0.0,0.0,0.0,0.0,0.0,0.0,0.0,0.0,0.0,0.0,0.0,0.0,0.0,-0.8092,-0.7794,-0.7699,-0.7692,-0.7794,0.0,0.0,0.0,0.0,0.0,0.0,0.0,0.0,0.0,0.0,0.0,0.0,0.0,0.0,-0.8845,0.0,-0.807,0.0,0.0,0.0,0.0,0.0,0.0,0.0,0.0,-0.6,-0.6802,-0.7652,-0.9259,-1.0406,0.0,-1.2533,-1.2569,0.0,0.0,0.0,0.0,0.0,0.0,0.0,0.0,-1.0471,-1.1928,-1.2943,-1.4325,-1.6067,-1.7269,-1.823,-1.8957,-2.0001,-2.013,-1.9174,-1.8091,-1.7178,0.0,0.0,0.0,0.0,0.0,0.0,0.0,0.0,0.0,0.0,0.0,0.0,0.0,0.0,0.0,0.0,0.0,0.0,0.0,0.0,0.0,0.0,0.0,-0.8918,0.0,0.0,0.0,0.0,0.0,0.0,0.0,0.0,0.0,-0.7823,-0.7873,-0.8216,-0.8942,-0.8902,-0.8815,-0.8969,0.0,0.0,0.0,0.0,0.0,0.0,0.0,-0.836,-0.8214,-0.8235,-0.8289,-0.8336,-0.8381,-0.836,-0.8214,0.0,0.0,-0.7953,-0.7974,-0.8062,-0.8109,-0.8079,-0.8062,-0.8109,-0.7997,-0.7875,0.0,0.0,0.0,0.0,0.0,0.0,0.0,0.0,-0.9624,-0.9794,0.0,-0.8308,0.0,0.0,0.0,0.0,0.0,-0.5931,0.0,0.0,-0.7224,-0.8211,-0.9003,-1.0093,-1.1293,-1.2649,-1.3407,-1.3986,-1.4069,-1.2692,0.0,0.0,0.0,0.0,0.0,0.0,-1.2274,-1.2795,-1.4552,-1.5777,-1.6244,-1.7924,-1.8957,-1.9036,-2.0001,-1.963,-1.7893,-1.7831,-1.6809,-1.456,-1.4927,0.0,0.0,0.0,0.0,0.0,0.0,0.0,0.0,0.0,0.0,0.0,0.0,0.0,0.0,0.0,0.0,0.0,0.0,0.0,0.0,-1.0192,0.0,0.0,0.0,0.0,0.0,0.0,0.0,0.0,0.0,0.0,-1.0183,-1.0259,-1.0427,-1.0583,0.0,0.0,0.0,0.0,-0.8265,-0.8275,-0.8143,-0.8099,-0.8255,-0.8269,-0.8214,-0.8065,0.0,0.0,-0.8499,-0.8367,-0.8238,-0.8079,-0.8187,-0.8225,-0.8065,-0.8255,-0.8404,-0.8303,-0.8364,-0.8414,-0.8303,-0.8153,-0.8007,-0.8126,0.0,0.0,0.0,0.0,-0.908,-0.9305,-0.8729,-1.0585,-1.037,-0.8746,-0.8882,0.0,0.0,0.0,0.0,0.0,0.0,-0.6715,-0.7058,-0.7376,-0.7851,-0.8391,-1.0355,-1.1505,-1.1869,-1.3773,-1.4546,-1.4415,-1.38,-1.3118,-1.2408,0.0,0.0,0.0,0.0,-1.3003,-1.351,-1.4196,-1.5464,-1.7283,-1.7606,-1.855,-2.0079,-1.9687,-1.9173,-1.8623,-1.6771,-1.5504,-1.5138,-1.4018,0.0,0.0,0.0,0.0,0.0,0.0,0.0,0.0,0.0,0.0,0.0,0.0,0.0,0.0,0.0,0.0,0.0,0.0,0.0,-1.0641,-1.071,-1.0969,0.0,0.0,0.0,0.0,0.0,0.0,0.0,0.0,0.0,-1.3357,-1.2012,-1.0987,0.0,0.0,-0.9353,-0.9114,-0.8507,-0.8143,-0.8255,-0.814,0.0,0.0,-0.8177,-0.8092,-0.8045,-0.8238,-0.8384,-0.834,-0.8381,-0.8374,-0.8228,-0.8326,-0.834,-0.8106,-0.8194,-0.834,-0.8397,-0.8377,-0.836,-0.8397,-0.8306,-0.8191,-0.8496,-0.8147,-0.7882,-0.787,-0.8048,-0.9304,-0.9473,-0.8972,-1.0596,-1.0359,-0.8964,-0.8917,-0.8434,-0.7594,-0.7227,0.0,0.0,0.0,-0.7243,-0.7541,-0.7594,-0.7734,-0.7952,-0.9841,-1.0997,-1.1553,-1.3266,-1.43,-1.4689,-1.4282,-1.3831,-1.3398,0.0,0.0,-1.2577,-1.3004,-1.3398,-1.3734,-1.4627,-1.5921,-1.7573,-1.7865,-1.8311,-1.9114,-1.862,-1.808,-1.7527,-1.5913,-1.4799,-1.4392,-1.3393,-1.3136,0.0,0.0,0.0,0.0,0.0,0.0,0.0,0.0,0.0,0.0,0.0,-1.2764,-1.2254,0.0,0.0,0.0,-1.033,-1.0745,-1.1666,-1.1721,0.0,0.0,0.0,0.0,0.0,0.0,0.0,-1.2998,-1.3794,-1.4489,-1.4937,-1.3613,-1.2438,-1.2059,-1.0906,-0.9805,-0.9031,0.0,-0.8072,-0.8167,-0.8102,-0.8072,-0.8163,-0.8153,-0.815,-0.8204,-0.8241,-0.8269,-0.8275,-0.8343,-0.8343,-0.8231,-0.8248,-0.8252,-0.8072,-0.8116,-0.8225,-0.8367,-0.8377,-0.837,-0.8397,-0.833,-0.8255,-0.8726,-0.8689,-0.8255,-0.8069,-0.8144,-0.9336,-0.9837,-0.9899,-0.9998,-0.9998,-0.9844,-0.8561,-0.7976,-0.7893,-0.7698,0.0,-0.7417,-0.7675,-0.7726,-0.7617,-0.774,-0.7726,-0.7695,-0.887,-1.0048,-1.1151,-1.2271,-1.3441,-1.4665,-1.4342,-1.4088,-1.4068,-1.352,-1.3247,-1.326,-1.3426,-1.3647,-1.3647,-1.542,-1.6667,-1.7082,-1.8302,-1.8285,-1.6904,-1.699,-1.6525,-1.5355,-1.515,-1.4381,-1.2898,-1.281,-1.2829,-1.265,0.0,0.0,0.0,0.0,0.0,0.0,0.0,0.0,0.0,0.0,0.0,0.0,0.0,0.0,0.0,-1.1818,0.0,-1.2357,-1.2995,0.0,0.0,0.0,-1.3536,-1.3598,-1.3853,-1.408,-1.4409,0.0,0.0,-1.5452,-1.5064,-1.4286,-1.2929,-1.1584,-1.0293,-0.8627,-0.8237,-0.8038,-0.8048,-0.8041,-0.8035,-0.8028,-0.8119,-0.8221,-0.8309,-0.8309,-0.8218,-0.8194,-0.8197,-0.815,-0.8021,-0.8004,-0.8001,-0.8001,-0.7991,-0.8048,-0.8177,-0.8326,-0.8391,-0.8235,-0.8197,-0.816,-0.8882,-0.8852,-0.852,-0.8313,-0.8302,-0.9422,-0.9371,-0.8627,-0.9612,-0.9485,-0.8474,-0.812,-0.7936,-0.7846,-0.7648,-0.7638,-0.7706,-0.7668,-0.7689,-0.7753,-0.7682,-0.7631,-0.7688,-0.8654,-0.9306,-0.975,-1.1488,-1.2629,-1.2948,-1.3711,-1.4088,-1.4068,-1.3721,-1.354,-1.354,-1.3607,-1.3647,-1.3647,-1.3888,-1.4496,-1.542,-1.72,-1.7614,-1.6581,-1.5755,-1.5225,-1.4915,-1.391,-1.3085,-1.2418,-1.1977,-1.188,-1.2164,-1.2431,0.0,0.0,0.0,0.0,0.0,0.0,0.0,0.0,0.0,-1.3737,-1.3644,0.0,-1.3201,0.0,-1.3127,-1.3138,-1.3293,-1.3433,0.0,0.0,-1.3893,-1.3922,-1.4553,-1.4553,-1.4675,-1.5113,-1.5412,-1.5547,-1.573,-1.5642,-1.4688,-1.2407,-1.159,-1.0489,-0.8924,-0.8333,-0.8038,-0.8031,-0.8028,-0.7997,-0.7892,-0.7896,-0.7902,-0.7818,-0.7872,-0.7882,-0.7777,-0.776,-0.7743,-0.7712,-0.7706,-0.7706,-0.7706,-0.7702,-0.7719,-0.777,-0.7963,-0.8065,-0.7818,-0.7848,-0.7882,-0.8794,-0.8716,-0.8486,-0.834,-0.8361,-0.8896,-0.8726,-0.8038,-0.8825,-0.8726,-0.8038,-0.8038,-0.7994,-0.7909,-0.7831,-0.7801,-0.7804,-0.7729,-0.7665,-0.7611,-0.7533,-0.7461,-0.7394,-0.7926,-0.8504,-0.903,-1.0651,-1.1652,-1.2152,-1.3156,-1.3701,-1.3687,-1.3534,-1.3454,-1.3454,-1.3447,-1.3447,-1.3447,-1.375,-1.4057,-1.4306,-1.5778,-1.5935,-1.4873,-1.441,-1.4115,-1.3978,-1.3355,-1.2914,-1.2613,-1.2206,-1.2186,-1.2338,-1.2608,-1.2885,0.0,0.0,0.0,0.0,0.0,0.0,0.0,0.0,0.0,0.0,0.0,-1.4546,-1.4903,-1.4958,-1.4821,-1.4398,-1.4479,-1.4455,-1.4295,-1.421,-1.4202,-1.4771,-1.4797,-1.4896,-1.5219,-1.5352,-1.5444,-1.5438,-1.5444,-1.4689,-1.2686,-1.1747,-1.0541,-0.8788,-0.808,-0.7845,-0.7845,-0.7845,-0.7818,-0.7726,-0.7716,-0.7692,-0.7624,-0.7665,-0.7668,-0.7526,-0.7499,-0.7475,-0.7411,-0.7394,-0.7397,-0.7397,-0.7458,-0.7482,-0.7441,-0.758,-0.7689,-0.7621,-0.7607,-0.7584,-0.8601,-0.8469,-0.833,-0.8272,-0.8255,-0.8106,-0.8038,-0.8038,-0.8038,-0.8038,-0.8038,-0.8038,-0.8031,-0.8011,-0.8011,-0.7929,-0.7787,-0.7763,-0.7617,-0.7377,-0.735,-0.7272,-0.7143,-0.7122,-0.7636,-0.8674,-0.9672,-1.0658,-1.164,-1.2667,-1.3206,-1.3206,-1.3166,-1.3153,-1.3153,-1.3113,-1.3093,-1.3093,-1.4142,-1.4321,-1.355,-1.4298,-1.4004,-1.2864,-1.3172,-1.3256,-1.3003,-1.3216,-1.3152,-1.2931,-1.291,-1.2899,-1.2844,-1.3175,-1.3485,0.0,-1.4215,0.0,0.0,0.0,0.0,0.0,0.0,0.0,0.0,-1.5745,-1.5871,-1.6505,-1.6857,-1.6594,-1.5385,-1.5502,-1.5296,-1.4257,-1.4282,-1.4436,-1.4509,-1.4723,-1.4863,-1.4903,-1.4903,-1.4903,-1.4917,-1.491,-1.4443,-1.3074,-1.185,-1.0407,-0.8404,-0.7736,-0.7621,-0.7597,-0.758,-0.7584,-0.757,-0.757,-0.7553,-0.7519,-0.7512,-0.7478,-0.7299,-0.7272,-0.7238,-0.7115,-0.7085,-0.7085,-0.7082,-0.719,-0.7231,-0.7112,-0.7197,-0.7326,-0.7434,-0.739,-0.7316,-0.8509,-0.8469,-0.833,-0.8272,-0.8258,-0.8102,-0.8038,-0.8038,-0.8038,-0.8038,-0.8038,-0.8038,-0.7974,-0.7858,-0.7855,-0.7777,-0.7634,-0.7512,-0.7424,-0.7366,-0.7241,-0.717,-0.7132,-0.6934,-0.7056,-0.7382,-0.9128,-1.0085,-1.0329,-1.2252,-1.3206,-1.3206,-1.2959,-1.2916,-1.2896,0.0,0.0,0.0,-1.3417,-1.3433,-1.2673,-1.3425,-1.3395,-1.2459,-1.2662,0.0,-1.2917,-1.3131,-1.3135,-1.2984,-1.3153,0.0,0.0,0.0,0.0,0.0,0.0,0.0,0.0,0.0,0.0,0.0,-1.6551,-1.659,-1.7116,-1.7674,-1.7822,-1.7441,-1.7663,-1.7119,-1.5488,-1.5591,-1.5304,-1.4243,-1.3928,-1.3995,-1.4442,-1.4369,-1.4342,-1.4569,-1.4603,-1.4603,-1.4583,-1.4603,-1.4138,-1.2851,-1.1636,-1.0246,-0.8499,-0.7825,-0.758,-0.759,-0.7465,-0.7411,-0.7414,-0.7404,-0.7305,-0.7146,-0.716,-0.7115,-0.6898,-0.6837,-0.6831,-0.6773,-0.6783,-0.6773,-0.6776,-0.681,-0.6817,-0.6787,-0.6807,-0.6875,-0.7021,-0.7034,-0.6976,-0.833,0.0,-0.8187,-0.8157,0.0,-0.8072,-0.8038,-0.8038,-0.8038,-0.8038,-0.8035,-0.796,-0.7882,-0.7807,-0.774,-0.7628,-0.7485,-0.7407,-0.7329,-0.7251,-0.7105,-0.7034,-0.7034,-0.6885,-0.7066,-0.764,-0.8999,-0.993,-1.0486,-1.1897,-1.2545,-1.2538,-1.2245,-1.2091,-1.2091,-1.1944,-1.2011,-1.2298,-1.2813,-1.2806,-1.2378,-1.2732,-1.2806,-1.2298,0.0,0.0,0.0,0.0,0.0,0.0,0.0,0.0,0.0,0.0,0.0,-1.5424,-1.6013,-1.651,-1.6782,-1.674,-1.6882,-1.7432,-1.765,-1.7783,-1.777,-1.8583,-1.8852,-1.8497,-1.8577,-1.7819,-1.6006,-1.589,-1.5298,-1.3879,-1.352,-1.3561,-1.3801,-1.3748,-1.3707,-1.3841,-1.3881,-1.3874,-1.3874,-1.3874,-1.3361,-1.2326,-1.1115,-0.9903,-0.8589,-0.7685,-0.7153,-0.7156,-0.7102,-0.7041,-0.7037,-0.7041,-0.7007,-0.6861,-0.6875,-0.6793,-0.6532,-0.6481,-0.6437,-0.6305,-0.6257,-0.6254,-0.6261,-0.6315,-0.6369,-0.6369,-0.6369,-0.639,-0.6474,-0.6546,-0.658,-0.8153,-0.8038,-0.8038,-0.8038,-0.8038,-0.8038,-0.8038,-0.8038,0.0,0.0,0.0,-0.7879,-0.7797,-0.7763,-0.7624,-0.7465,-0.7299,-0.7295,-0.721,-0.7058,-0.6943,-0.6888,-0.6881,-0.6732,-0.7226,-0.8187,-0.9034,-0.9999,-1.0871,-1.1582,-1.1915,-1.177,-1.1543,-1.143,-1.143,-1.143,-1.1657,-1.2118,-1.2144,-1.2151,-1.2151,-1.2151,-1.2151,-1.2144,-1.2508,-1.3107,-1.395,-1.4253,-1.4812,-1.5643,-1.5661,-1.5731,-1.5885,-1.6136,-1.6283,-1.6186,-1.6402,-1.6713,-1.6975,-1.6658,-1.6828,-1.7744,-1.8105,-1.823,-1.8094,-1.885,-1.9258,-1.918,-1.9238,-1.8442,-1.638,-1.6162,-1.5279,-1.3287,-1.3046,-1.3046,-1.306,-1.3106,-1.3146,-1.3126,-1.3153,-1.3133,-1.3153,-1.3153,-1.2726,-1.1756,-1.0643,-0.9375,-0.8239,-0.7259,-0.6756,-0.6756,-0.677,-0.6722,-0.6705,-0.6688,-0.6654,-0.6627,-0.6593,-0.6481,-0.6338,-0.6179,-0.6078,-0.5898,-0.5806,-0.5823,-0.582,-0.5932,-0.5986,-0.5986,-0.5989,-0.5989,-0.5996,-0.6067,-0.6146,-0.8058,-0.8038,-0.8038,-0.8038,-0.8038,-0.8038,-0.8038,-0.8038,-0.8038,-0.8038,-0.8028,-0.7879,-0.7743,-0.7621,-0.7468,-0.7251,-0.6997,-0.699,-0.6909,0.0,-0.6742,-0.6732,-0.6722,-0.6576,-0.7057,-0.807,-0.8908,-0.9766,-1.0525,-1.1462,-1.1744,-1.151,-1.1443,-1.1423,-1.143,-1.143,-1.1463,-1.1543,-1.155,-1.1543,-1.155,-1.155,-1.155,-1.155,-1.2423,-1.3165,-1.3863,-1.4412,-1.4999,-1.5648,-1.5499,-1.5366,-1.5314,-1.5891,-1.6201,-1.6123,-1.6476,-1.6689,-1.6753,-1.6694,-1.6714,-1.6831,-1.6899,-1.7239,-1.7979,-1.8828,-1.9131,-1.8789,-1.9004,-1.8442,-1.6506,-1.598,-1.4875,-1.2831,-1.2425,-1.2432,-1.2432,-1.2652,-1.2786,-1.2842,-1.2889,-1.2876,-1.2766,-1.2849,-1.2369,-1.1379,-1.0146,-0.8963,-0.7238,-0.6701,-0.6685,-0.6702,-0.6702,-0.6702,-0.6627,-0.6576,-0.6447,-0.6342,-0.622,-0.6101,-0.5922,-0.5874,-0.5844,-0.5803,-0.5749,-0.5755,-0.5766,-0.5813,-0.58,-0.5789,-0.5796,-0.5806,-0.5806,-0.5769,-0.5742,-0.8038,-0.8038,-0.8038,-0.8038,-0.8038,-0.8038,-0.7991,-0.7916,-0.7916,-0.7916,-0.7889,-0.7672,-0.7536,-0.7458,-0.7238,-0.7061,-0.6926,-0.6841,-0.6766,-0.6695,-0.6617,-0.6576,-0.6552,-0.6339,-0.6765,-0.7732,-0.8522,-0.9382,-1.0202,-1.1056,-1.1323,-1.1182,-1.1035,-1.0955,-1.0955,-1.0955,-1.0955,-1.0962,-1.1263,-1.1628,-1.2105,-1.2105,-1.2294,-1.2759,-1.322,-1.3824,-1.4647,-1.4906,-1.542,-1.6207,-1.6113,-1.6053,-1.6008,-1.6306,-1.6345,-1.6103,-1.6025,-1.6123,-1.6357,-1.6592,-1.6426,-1.5771,-1.6338,-1.6572,-1.6269,-1.7275,-1.7812,-1.7627,-1.7793,-1.7114,-1.5275,-1.4915,-1.4057,-1.1979,-1.1824,-1.1824,-1.1857,-1.2091,-1.2198,-1.2084,-1.2251,-1.2211,-1.2051,-1.2031,-1.1657,-1.0627,-0.93,-0.7711,-0.6243,-0.6118,-0.6244,-0.6308,-0.6268,-0.6213,-0.6217,-0.6159,-0.6084,-0.6017,-0.5956,-0.5847,-0.5711,-0.563,-0.5569,-0.5545,-0.5447,-0.5369,-0.542,-0.5369,-0.5362,-0.5426,-0.5437,-0.5457,-0.5518,-0.5504,-0.5498,-0.8038,-0.8038,-0.8038,-0.8038,-0.8035,-0.8001,-0.7919,-0.7811,-0.7743,-0.7692,-0.7631,-0.7451,-0.7353,-0.7292,-0.7044,-0.6892,-0.6817,-0.6702,-0.663,-0.659,-0.6481,-0.6407,-0.6359,-0.6162,-0.6637,-0.7724,-0.8394,-0.9211,-1.0281,-1.0762,-1.0955,-1.0875,-1.0601,-1.0461,-1.0461,-1.045,-1.0485,-1.0629,-1.1053,-1.1678,-1.2417,-1.2491,-1.2871,-1.3648,-1.3752,-1.4243,-1.5168,-1.5223,-1.5545,-1.6354,-1.6348,-1.624,-1.6101,-1.6091,-1.5996,-1.5644,-1.5312,-1.5264,-1.5605,-1.5947,-1.5713,-1.4756,-1.5566,-1.5713,-1.4883,-1.5557,-1.614,-1.6289,-1.6611,-1.6083,-1.4694,-1.4317,-1.3573,-1.1857,-1.1587,-1.154,-1.1356,-1.159,-1.169,-1.1496,-1.163,-1.1683,-1.149,-1.143,-1.0936,-0.9627,-0.7919,-0.6418,-0.5828,-0.5657,-0.5667,-0.5776,-0.5803,-0.5837,-0.5796,-0.5742,-0.5735,-0.5739,-0.565,-0.5555,-0.5454,-0.5355,-0.5274,-0.5243,-0.5094,-0.5026,-0.5064,-0.5016,-0.5006,-0.5098,-0.5088,-0.5206,-0.5355,-0.5338,-0.5335,-0.8038,-0.8038,-0.7935,-0.8038,-0.7912,-0.7791,-0.7724,-0.7767,-0.7529,-0.7333,-0.7138,-0.7319,-0.7282,-0.7153,-0.699,-0.6776,-0.6536,-0.6502,-0.6427,-0.6315,-0.6288,-0.6207,-0.6095,-0.6249,-0.7057,-0.8293,-0.8652,-0.9491,-1.0711,-1.0916,-1.0848,-1.0595,-1.0307,-1.016,-1.0134,-0.9907,-1.011,-1.066,-1.0711,-1.1145,-1.1824,-1.1862,-1.2235,-1.3046,-1.344,-1.4073,-1.4887,-1.4895,-1.5079,-1.5459,-1.5186,-1.4795,-1.4418,-1.434,-1.4321,-1.4346,-1.4243,-1.4223,-1.4326,-1.4346,-1.4311,-1.4165,-1.4272,-1.434,-1.4189,-1.4316,-1.4561,-1.5019,-1.6025,-1.5961,-1.4854,-1.4631,-1.389,-1.2213,-1.1977,-1.1855,-1.1213,-1.1289,-1.145,-1.1436,-1.1356,-1.1443,-1.1303,-1.1208,-1.0473,-0.8663,-0.6876,-0.5607,-0.5428,-0.523,-0.5135,-0.5281,-0.5515,-0.5742,-0.5722,-0.5559,-0.5474,-0.5528,-0.5267,-0.5142,-0.5142,-0.5081,-0.4969,-0.5036,-0.4935,-0.4894,-0.4921,-0.4918,-0.4904,-0.4935,-0.503,-0.5165,-0.5294,-0.5247,-0.5206,-0.7537,-0.6825,-0.6851,-0.6772,-0.6599,-0.5873,-0.5913,-0.6494,-0.6321,-0.6077,-0.6046,-0.6637,-0.6939,-0.6871,-0.6725,-0.6586,-0.6468,-0.6383,-0.6268,-0.6132,-0.6122,-0.604,-0.5905,-0.6432,-0.6982,-0.7674,-0.8601,-0.9426,-0.9959,-1.0308,-1.0414,-1.0274,-1.0007,-0.986,-0.9846,-0.9746,-0.9853,-1.007,-1.0128,-1.0646,-1.1787,-1.2233,-1.2817,-1.3557,-1.3802,-1.4025,-1.4383,-1.4405,-1.4482,-1.4629,-1.4482,-1.4316,-1.4097,-1.4087,-1.4087,-1.4087,-1.4087,-1.3863,-1.3428,-1.3848,-1.3916,-1.3437,-1.3857,-1.3893,-1.3477,-1.3838,-1.4033,-1.3828,-1.46,-1.4744,-1.3847,-1.3705,-1.3048,-1.1682,-1.1331,-1.1052,-1.0343,-1.0481,-1.0595,-1.0448,-1.0555,-1.0588,-1.0378,-1.0013,-0.9005,-0.7453,-0.6166,-0.5585,-0.5203,-0.4992,-0.4955,-0.5009,-0.5176,-0.5257,-0.5284,-0.5196,-0.5145,-0.5145,-0.505,-0.4962,-0.4958,-0.488,-0.4813,-0.4894,-0.4775,-0.4721,-0.4772,-0.4704,-0.4667,-0.4762,-0.4901,-0.503,-0.5091,-0.505,-0.505,-0.7125,-0.6023,-0.5942,-0.5862,-0.5782,-0.5188,-0.5308,-0.5929,-0.5899,-0.567,-0.56,-0.6309,-0.6556,-0.6508,-0.6441,-0.6393,-0.6335,-0.62,-0.6078,-0.5973,-0.5966,-0.5884,-0.5813,-0.6305,-0.6821,-0.7333,-0.8382,-0.918,-0.9479,-0.9829,-1.0,-0.996,-0.9713,-0.9559,-0.9552,-0.9499,-0.9552,-0.9707,-0.9721,-1.0357,-1.1497,-1.2253,-1.3074,-1.3985,-1.3801,-1.3792,-1.4077,-1.397,-1.3965,-1.3912,-1.3965,-1.3906,-1.3747,-1.3789,-1.3789,-1.3789,-1.3789,-1.3525,-1.292,-1.3447,-1.3535,-1.3018,-1.3477,-1.3535,-1.3135,-1.3437,-1.3496,-1.3086,-1.3437,-1.3576,-1.3201,-1.3186,-1.2575,-1.1295,-1.1012,-1.0686,-0.9894,-0.9886,-0.994,-0.974,-0.9947,-0.9927,-0.9616,-0.8891,-0.7779,-0.6821,-0.6049,-0.5545,-0.4967,-0.4785,-0.4782,-0.4792,-0.4796,-0.4843,-0.4891,-0.4897,-0.4874,-0.4884,-0.487,-0.4785,-0.483,-0.4724,-0.4636,-0.4677,-0.4538,-0.4563,-0.4599,-0.4594,-0.4577,-0.465,-0.4755,-0.4847,-0.4945,-0.4894,-0.4884,-0.6948,-0.58,-0.5792,-0.568,-0.5771,-0.6492,-0.7011,-0.6678,-0.6727,-0.6599,-0.6267,-0.6349,-0.6203,-0.6095,-0.62,-0.6183,-0.6044,-0.5908,-0.5837,-0.5813,-0.581,-0.5735,-0.5613,-0.5792,-0.6591,-0.7722,-0.8159,-0.891,-0.9958,-0.9787,-0.9699,-0.9679,-0.9406,-0.9203,-0.9176,-0.9025,-0.9169,-0.9678,-0.9783,-1.0141,-1.0845,-1.1504,-1.2531,-1.3787,-1.3146,-1.3118,-1.3888,-1.374,-1.3535,-1.3535,-1.3535,-1.3369,-1.3008,-1.2978,-1.2998,-1.2988,-1.2978,-1.2959,-1.29,-1.2969,-1.2959,-1.29,-1.2969,-1.2949,-1.291,-1.2988,-1.2998,-1.29,-1.2969,-1.3124,-1.3343,-1.3475,-1.3121,-1.1867,-1.1734,-1.1071,-0.9819,-0.9613,-0.9693,-0.9646,-0.9639,-0.9568,-0.951,-0.8218,-0.7296,-0.6606,-0.5586,-0.4619,-0.4584,-0.4567,-0.4518,-0.4521,-0.4535,-0.4585,-0.4826,-0.4785,-0.4772,-0.4782,-0.468,-0.4555,-0.4582,-0.4592,-0.4541,-0.456,-0.4536,-0.4525,-0.4529,-0.4553,-0.4538,-0.4582,-0.4611,-0.4629,-0.4775,-0.4748,-0.4741,-0.4522,-0.3351,-0.34,-0.3356,-0.3218,-0.2891,-0.3454,-0.4706,-0.452,-0.4851,-0.5394,-0.5909,-0.6081,-0.5949,-0.5884,-0.585,-0.5878,-0.5823,-0.5755,-0.5674,-0.5664,-0.5535,-0.538,-0.5873,-0.6621,-0.7526,-0.8175,-0.8938,-0.9722,-0.9539,-0.9399,-0.9352,-0.9112,-0.8965,-0.8891,-0.8858,-0.8962,-0.9159,-0.9562,-1.0115,-1.072,-1.1015,-1.1885,-1.319,-1.2984,-1.2924,-1.333,-1.3184,-1.3115,-1.3105,-1.3105,-1.3037,-1.29,-1.2891,-1.2891,-1.2891,-1.2891,-1.2891,-1.2891,-1.2891,-1.2891,-1.2891,-1.2891,-1.2891,-1.2891,-1.2891,-1.2891,-1.2891,-1.2891,-1.2978,-1.2968,-1.2871,-1.2247,-1.1358,-1.0796,-1.0249,-0.9384,-0.9125,-0.9125,-0.9118,-0.9125,-0.879,-0.8011,-0.7141,-0.6433,-0.5592,-0.4879,-0.4577,-0.4463,-0.4463,-0.4463,-0.4463,-0.4522,-0.4556,-0.4582,-0.4585,-0.4562,-0.4575,-0.4528,-0.4507,-0.4514,-0.4524,-0.4539,-0.4539,-0.4463,-0.4463,-0.4522,-0.4529,-0.4518,-0.4507,-0.4529,-0.4511,-0.4602,-0.4606,-0.4602,-0.2736,-0.197,-0.1941,-0.1913,-0.1714,-0.1352,-0.2006,-0.3307,-0.3234,-0.3744,-0.4631,-0.5187,-0.559,-0.5775,-0.5627,-0.5566,-0.5654,-0.5657,-0.5606,-0.5518,-0.5467,-0.5328,-0.5279,-0.5892,-0.6594,-0.7359,-0.8335,-0.9068,-0.9449,-0.9245,-0.905,-0.9024,-0.8898,-0.8804,-0.8804,-0.8804,-0.8804,-0.891,-0.9263,-0.9762,-1.0415,-1.072,-1.1334,-1.2403,-1.2774,-1.2891,-1.2891,-1.2891,-1.2891,-1.2891,-1.2891,-1.2891,-1.2891,-1.2891,-1.2891,-1.2891,-1.2891,-1.2891,-1.2891,-1.2891,-1.2891,-1.2891,-1.2891,-1.2891,-1.2891,-1.2891,-1.2891,-1.2891,-1.2891,-1.2891,-1.2774,-1.2246,-1.1516,-1.0914,-1.0415,-0.9769,-0.8956,-0.8818,-0.8824,-0.8785,-0.8579,-0.7955,-0.7128,-0.6583,-0.5882,-0.4893,-0.4677,-0.4515,-0.4463,-0.4463,-0.4463,-0.4463,-0.4463,-0.4519,-0.4504,-0.4504,-0.4549,-0.4497,-0.4504,-0.4473,-0.4463,-0.4463,-0.4463,-0.4463,-0.4463,-0.4463,-0.4463,-0.4463,-0.4463,-0.4463,-0.4463,-0.4487,-0.4504,-0.4484,-0.4507,-0.1801,-0.1688,-0.1761,-0.1679,-0.1759,-0.2496,-0.3296,-0.3222,-0.3229,-0.354,-0.4288,-0.4369,-0.4789,-0.5372,-0.5464,-0.5442,-0.5376,-0.5449,-0.5379,-0.5352,-0.5226,-0.5145,-0.5084,-0.5632,-0.6382,-0.7272,-0.8551,-0.919,-0.9163,-0.8985,-0.8851,-0.8831,-0.8824,-0.8804,-0.8804,-0.8804,-0.8804,-0.891,-0.9008,-0.9316,-0.9806,-1.0568,-1.1266,-1.1922,-1.2559,-1.2891,-1.2891,-1.2891,-1.2891,-1.2891,-1.2891,-1.2891,-1.2891,-1.2891,-1.2891,-1.2891,-1.2891,-1.2891,-1.2891,-1.2891,-1.2891,-1.2891,-1.2891,-1.2891,-1.2891,-1.2891,-1.2891,-1.2891,-1.2891,-1.2891,-1.2774,-1.2344,-1.1625,-1.0922,-1.072,-1.0064,-0.9211,-0.8804,-0.8804,-0.8699,-0.8315,-0.7783,-0.7396,-0.6578,-0.5655,-0.5273,-0.4842,-0.4463,-0.4463,-0.4463,-0.4463,-0.4463,-0.4463,-0.4463,-0.4463,-0.4463,-0.4463,-0.4467,-0.447,-0.4463,-0.4463,-0.4463,-0.4463,-0.4463,-0.4463,-0.4463,-0.4463,-0.4463,-0.4463,-0.4463,-0.4463,-0.4463,-0.4463,-0.4463,-0.4463,-0.0592,-0.0588,-0.0579,-0.0575,-0.0572,-0.0952,-0.1478,-0.2157,-0.2106,-0.2665,-0.3507,-0.4038,-0.4397,-0.4714,-0.5155,-0.5301,-0.5209,-0.5203,-0.5203,-0.5189,-0.5145,-0.4954,-0.4913,-0.5015,-0.5682,-0.691,-0.8275,-0.8945,-0.8931,-0.8851,-0.8804,-0.8804,-0.8804,-0.8804,-0.8804,-0.8804,-0.9008,-0.9458,-0.9458,-1.0012,-1.1065,-1.1366,-1.1823,-1.2501,-1.2774,-1.2891,-1.2891,-1.2891,-1.2891,-1.2891,-1.2891,-1.2891,-1.2891,-1.2891,-1.2891,-1.2891,-1.2891,-1.2891,-1.2891,-1.2891,-1.2891,-1.2891,-1.2891,-1.2891,-1.2891,-1.2891,-1.2891,-1.2891,-1.2891,-1.2891,-1.2881,-1.2715,-1.2246,-1.1566,-1.0661,-1.0012,-0.9465,-0.9061,-0.8804,-0.8804,-0.8586,-0.8049,-0.7182,-0.6312,-0.5819,-0.5007,-0.4625,-0.4519,-0.4463,-0.4463,-0.4463,-0.4463,-0.4463,-0.4463,-0.4463,-0.4463,-0.4463,-0.4463,-0.4463,-0.4463,-0.4463,-0.4463,-0.4463,-0.4463,-0.4463,-0.4463,-0.4463,-0.4463,-0.4463,-0.4463,-0.4463,-0.4463,-0.4463,-0.4463,-0.4463,0.0,0.0,0.0,0.0,0.0,0.0,-0.0373,-0.0964,-0.1006,-0.1555,-0.2382,-0.2914,-0.3533,-0.4053,-0.4582,-0.4887,-0.4991,-0.4988,-0.4961,-0.4975,-0.4965,-0.4857,-0.4803,-0.525,-0.5956,-0.6993,-0.8209,-0.8804,-0.8804,-0.8804,-0.8804,-0.8804,-0.8804,-0.8804,-0.8804,-0.8804,-0.9106,-0.9718,-0.9821,-1.0466,-1.1516,-1.1814,-1.2138,-1.2774,-1.2891,-1.2891,-1.2891,-1.2891,-1.2891,-1.2891,-1.2891,-1.2891,-1.2891,-1.2891,-1.2891,-1.2891,-1.2891,-1.2891,-1.2891,-1.2891,-1.2891,-1.2891,-1.2891,-1.2891,-1.2891,-1.2891,-1.2891,-1.2891,-1.2891,-1.2891,-1.2891,-1.2891,-1.2666,-1.2246,-1.1023,-1.0012,-0.9562,-0.9061,-0.8804,-0.8752,-0.8533,-0.7824,-0.6966,-0.6258,-0.5769,-0.4736,-0.4463,-0.4463,-0.4463,-0.4463,-0.4463,-0.4463,-0.4463,-0.4463,-0.4463,-0.4463,-0.4463,-0.4463,-0.4463,-0.4463,-0.4463,-0.4463,-0.4463,-0.4463,-0.4463,-0.4463,-0.4463,-0.4463,-0.4463,-0.4463,-0.4463,-0.4463,-0.4463,-0.4463,-0.4463,0.0,0.0,0.0,0.0,0.0,0.0,0.0,0.0,0.0,-0.0538,-0.1189,-0.1528,-0.2233,-0.3395,-0.3791,-0.4265,-0.4722,-0.4904,-0.4826,-0.4728,-0.4697,-0.4728,-0.4923,-0.587,-0.6781,-0.7622,-0.8427,-0.8752,-0.8804,-0.8804,-0.8804,-0.8804,-0.891,-0.8857,-0.8956,-0.891,-0.9361,-0.9865,-0.9917,-1.0568,-1.1715,-1.1814,-1.2129,-1.2881,-1.2891,-1.2891,-1.2891,-1.2891,-1.2891,-1.2891,-1.2891,-1.2891,-1.2891,-1.2891,-1.2891,-1.2891,-1.2891,-1.2891,-1.2891,-1.2891,-1.2891,-1.2891,-1.2891,-1.2891,-1.2891,-1.2891,-1.2891,-1.2891,-1.2891,-1.2891,-1.2891,-1.2891,-1.2822,-1.2569,-1.1384,-1.0269,-0.9061,-0.8811,-0.8804,-0.8646,-0.8156,-0.745,-0.6696,-0.6036,-0.5332,-0.4736,-0.4463,-0.4463,-0.4463,-0.4463,-0.4463,-0.4463,-0.4463,-0.4463,-0.4463,-0.4463,-0.4463,-0.4463,-0.4463,-0.4463,-0.4463,-0.4463,-0.4463,-0.4463,-0.4463,-0.4463,-0.4463,-0.4463,-0.4463,-0.4463,-0.4463,-0.4463,-0.4463,-0.4463,-0.4463,0.0,0.0,0.0,0.0,0.0,0.0,0.0,0.0,0.0,0.0,-0.0442,-0.1056,-0.1533,-0.2089,-0.3252,-0.3887,-0.4056,-0.4513,-0.4667,-0.4597,-0.4524,-0.4853,-0.5345,-0.6182,-0.702,-0.7723,-0.8427,-0.8804,-0.8804,-0.8804,-0.8804,-0.8804,-0.9211,-0.9458,-0.9555,-0.9917,-1.032,-1.0517,-1.0517,-1.0914,-1.1665,-1.1814,-1.2187,-1.2832,-1.2891,-1.2891,-1.2891,-1.2891,-1.2891,-1.2891,-1.2891,-1.2891,-1.2891,-1.2891,-1.2891,-1.2891,-1.2891,-1.2891,-1.2891,-1.2891,-1.2891,-1.2891,-1.2891,-1.2891,-1.2891,-1.2891,-1.2891,-1.2891,-1.2891,-1.2871,-1.2871,-1.2861,-1.2452,-1.1484,-1.0973,-1.0218,-0.9159,-0.8804,-0.8804,-0.8699,-0.8103,-0.7396,-0.6637,-0.5928,-0.5273,-0.4677,-0.4463,-0.4463,-0.4463,-0.4463,-0.4463,-0.4463,-0.4463,-0.4463,-0.4463,-0.4463,-0.4463,-0.4463,-0.4463,-0.4463,-0.4463,-0.4463,-0.4463,-0.4463,-0.4463,-0.4463,-0.4463,-0.4463,-0.4463,-0.4463,-0.4463,-0.4463,-0.4463,-0.4463,-0.4463,0.0,0.0,0.0,0.0,0.0,0.0,0.0,0.0,0.0,0.0,0.0,-0.0477,-0.0948,-0.1361,-0.2538,-0.3273,-0.3561,-0.4248,-0.4545,-0.4484,-0.4467,-0.4846,-0.5601,-0.6524,-0.7289,-0.7723,-0.848,-0.8752,-0.8804,-0.8804,-0.8804,-0.8857,-0.9218,-0.951,-0.9762,-1.0167,-1.0712,-1.1116,-1.1216,-1.1566,-1.2197,-1.2286,-1.2452,-1.2832,-1.2891,-1.2891,-1.2891,-1.2891,-1.2891,-1.2891,-1.2891,-1.2891,-1.2891,-1.2891,-1.2891,-1.2891,-1.2891,-1.2891,-1.2891,-1.2891,-1.2891,-1.2891,-1.2891,-1.2891,-1.2891,-1.2891,-1.2891,-1.2891,-1.2734,-1.2627,-1.256,-1.2359,-1.1777,-1.1032,-1.0568,-0.9961,-0.891,-0.8804,-0.8646,-0.8374,-0.7937,-0.7283,-0.6308,-0.576,-0.5214,-0.4677,-0.4463,-0.4463,-0.4463,-0.4463,-0.4463,-0.4463,-0.4463,-0.4463,-0.4463,-0.4463,-0.4463,-0.4463,-0.4463,-0.4463,-0.4463,-0.4463,-0.4463,-0.4463,-0.4463,-0.4463,-0.4463,-0.4463,-0.4463,-0.4463,-0.4463,-0.4463,-0.4463,-0.4463,-0.4463,0.0,0.0,0.0,0.0,0.0,0.0,0.0,0.0,0.0,0.0,0.0,0.0,0.0,-0.1006,-0.1922,-0.2573,-0.3236,-0.4092,-0.4418,-0.457,-0.4787,-0.5222,-0.5814,-0.6794,-0.7557,-0.7943,-0.8533,-0.8752,-0.8804,-0.8804,-0.8857,-0.9061,-0.9113,-0.9465,-1.0167,-1.032,-1.0771,-1.1566,-1.1873,-1.2089,-1.251,-1.2657,-1.2832,-1.2881,-1.2891,-1.2891,-1.2891,-1.2939,-1.2929,-1.3017,-1.292,-1.2881,-1.2891,-1.2891,-1.2891,-1.2891,-1.2891,-1.2891,-1.2861,-1.2822,-1.2783,-1.2754,-1.2715,-1.2841,-1.2725,-1.2666,-1.2675,-1.2725,-1.2402,-1.2246,-1.2192,-1.1668,-1.1222,-1.0772,-1.0269,-0.9562,-0.8956,-0.8804,-0.8533,-0.7771,-0.767,-0.6907,-0.6027,-0.5362,-0.514,-0.4615,-0.4443,-0.4416,-0.4436,-0.4463,-0.4463,-0.4463,-0.4463,-0.4463,-0.4463,-0.4463,-0.4463,-0.4463,-0.4463,-0.4463,-0.4463,-0.4463,-0.4463,-0.4463,-0.4463,-0.4463,-0.4463,-0.4463,-0.4463,-0.4463,-0.4463,-0.4463,-0.4463,-0.4463,-0.4463,0.0,0.0,0.0,0.0,0.0,0.0,0.0,0.0,0.0,0.0,0.0,0.0,0.0,0.0,-0.1563,-0.2286,-0.2674,-0.379,-0.4463,-0.4629,-0.5719,-0.6154,-0.6367,-0.6799,-0.7509,-0.8268,-0.8699,-0.8804,-0.8804,-0.8857,-0.9061,-0.9517,-0.9917,-1.0661,-1.1166,-1.1557,-1.199,-1.1963,-1.2325,-1.2327,-1.2153,-1.257,-1.2812,-1.2842,-1.2852,-1.2871,-1.2881,-1.2891,-1.3152,-1.3372,-1.3122,-1.288,-1.3017,-1.2978,-1.2978,-1.2978,-1.2929,-1.2891,-1.2832,-1.2607,-1.2383,-1.2393,-1.2158,-1.1992,-1.2324,-1.207,-1.208,-1.2178,-1.1973,-1.1855,-1.1933,-1.1565,-1.1055,-1.0615,-1.0077,-0.9496,-0.8956,-0.8804,-0.848,-0.783,-0.7182,-0.6529,-0.5588,-0.4881,-0.4628,-0.4477,-0.4402,-0.4362,-0.4382,-0.4416,-0.4419,-0.4395,-0.4416,-0.4416,-0.4463,-0.4463,-0.4463,-0.4463,-0.4463,-0.4463,-0.4463,-0.4463,-0.4463,-0.4463,-0.4463,-0.4463,-0.4463,-0.4463,-0.4463,-0.4463,-0.4463,-0.4463,-0.4463,-0.4463,-0.4463,0.0393,0.0,0.0,0.0,0.0,0.0,0.0,0.0,0.0,0.0,0.0,0.0,0.0,0.0,-0.1173,-0.184,-0.251,-0.379,-0.4463,-0.4736,-0.5605,-0.6204,-0.6696,-0.702,-0.7723,-0.8692,-0.8804,-0.8804,-0.8804,-0.8798,-0.8962,-0.9368,-0.9997,-1.0517,-1.1256,-1.1905,-1.1948,-1.2025,-1.2147,-1.2061,-1.1855,-1.2051,-1.2412,-1.2539,-1.2598,-1.2646,-1.2861,-1.2891,-1.3065,-1.314,-1.2914,-1.3,-1.3532,-1.3478,-1.3334,-1.3286,-1.3017,-1.2929,-1.2783,-1.25,-1.22,-1.2217,-1.1816,-1.1758,-1.1826,-1.1714,-1.1724,-1.1758,-1.1572,-1.1281,-1.1195,-1.0757,-1.032,-1.0081,-0.9539,-0.9057,-0.8869,-0.8804,-0.8533,-0.7777,-0.7079,-0.6367,-0.555,-0.4672,-0.4319,-0.4324,-0.4212,-0.4168,-0.4165,-0.4206,-0.428,-0.4294,-0.4334,-0.4372,-0.444,-0.4463,-0.4463,-0.4463,-0.4463,-0.4463,-0.4463,-0.4463,-0.4463,-0.4463,-0.4463,-0.4463,-0.4463,-0.4463,-0.4463,-0.4463,-0.4463,-0.4463,-0.4463,-0.4463,-0.4463,0.0946,0.0185,0.0185,0.0,0.0,0.0,0.0,0.0,0.0,0.0,0.0,0.0,0.0,0.0,-0.1006,-0.173,-0.2788,-0.368,-0.4463,-0.4625,-0.5221,-0.5946,-0.6548,-0.7184,-0.7838,-0.8678,-0.8791,-0.8791,-0.8731,-0.8783,-0.8889,-0.9057,-0.9489,-1.0343,-1.0868,-1.1146,-1.1584,-1.1943,-1.1801,-1.1689,-1.1616,-1.167,-1.1875,-1.2217,-1.2432,-1.2588,-1.2832,-1.2929,-1.2997,-1.3004,-1.2702,-1.3317,-1.4103,-1.3932,-1.3726,-1.37,-1.3324,-1.3238,-1.327,-1.2822,-1.2388,-1.2236,-1.1733,-1.1502,-1.1492,-1.139,-1.1371,-1.127,-1.1071,-1.0654,-1.0167,-0.9829,-0.9586,-0.9343,-0.882,-0.8561,-0.8724,-0.8699,-0.8209,-0.7557,-0.6907,-0.6244,-0.5383,-0.4527,-0.4341,-0.4137,-0.407,-0.4005,-0.4012,-0.4056,-0.4161,-0.4184,-0.4284,-0.4236,-0.428,-0.43,-0.4321,-0.4345,-0.4368,-0.4389,-0.4395,-0.4392,-0.4389,-0.4453,-0.4463,-0.4463,-0.4463,-0.4463,-0.4463,-0.4463,-0.4463,-0.4463,-0.4463,-0.4463,-0.4463,0.1606,0.0924,0.0923,0.0547,0.0,0.0,0.0,0.0,0.0,0.0,0.0,0.0,0.0,0.0,-0.1451,-0.2728,-0.3536,-0.4187,-0.4426,-0.4566,-0.5079,-0.5742,-0.6501,-0.707,-0.7704,-0.8311,-0.8611,-0.8624,-0.8484,-0.8494,-0.8785,-0.936,-0.9659,-1.0267,-1.1068,-1.1503,-1.1483,-1.166,-1.1538,-1.1469,-1.1469,-1.1498,-1.1685,-1.2061,-1.2305,-1.2588,-1.2802,-1.2919,-1.3172,-1.366,-1.363,-1.4047,-1.425,-1.3334,-1.3099,-1.3632,-1.3705,-1.3695,-1.3925,-1.3401,-1.2893,-1.2373,-1.1654,-1.1126,-1.1003,-1.0802,-1.0842,-1.085,-1.0672,-1.0288,-1.0113,-0.9459,-0.9263,-0.9144,-0.8792,-0.8501,-0.856,-0.8246,-0.7641,-0.6966,-0.6567,-0.6172,-0.5226,-0.4485,-0.4168,-0.4039,-0.3921,-0.3934,-0.4002,-0.4009,-0.4097,-0.4157,-0.42,-0.4117,-0.4097,-0.41,-0.4111,-0.4134,-0.4165,-0.4216,-0.4233,-0.4214,-0.4247,-0.4334,-0.4412,-0.4463,-0.4463,-0.446,-0.4463,-0.4463,-0.4463,-0.446,-0.4463,-0.4463,-0.4463,0.2436,0.1641,0.1289,0.1105,0.1089,0.0688,0.0795,0.1064,0.0783,0.0559,0.0445,0.0,0.0,0.0,-0.064,-0.1852,-0.3074,-0.402,-0.418,-0.4365,-0.4876,-0.5572,-0.6304,-0.6847,-0.7492,-0.799,-0.8277,-0.8297,-0.8156,-0.815,-0.8556,-0.9081,-0.9512,-1.0193,-1.0906,-1.1123,-1.125,-1.1191,-1.1077,-1.0969,-1.0969,-1.0969,-1.1162,-1.1504,-1.1768,-1.1963,-1.227,-1.2508,-1.2703,-1.2979,-1.3081,-1.3436,-1.3454,-1.3253,-1.2925,-1.3928,-1.4048,-1.3958,-1.4072,-1.339,-1.2671,-1.237,-1.1531,-1.103,-1.0852,-1.0626,-1.044,-1.0429,-1.012,-0.975,-0.9353,-0.896,-0.8677,-0.8429,-0.8222,-0.8252,-0.8167,-0.769,-0.7042,-0.6364,-0.6004,-0.5628,-0.5115,-0.4507,-0.4084,-0.3887,-0.3771,-0.3836,-0.3955,-0.3988,-0.4036,-0.4063,-0.4083,-0.4056,-0.3972,-0.3958,-0.3944,-0.3958,-0.3978,-0.4029,-0.408,-0.4117,-0.4093,-0.4172,-0.4273,-0.4395,-0.4508,-0.4505,-0.4512,-0.445,-0.4501,-0.4498,-0.4457,-0.4463,-0.4463,0.3256,0.2397,0.1785,0.1786,0.2063,0.1552,0.1603,0.1986,0.1479,0.1145,0.0982,0.0,0.0,-0.0105,-0.0462,-0.121,-0.2313,-0.353,-0.3996,-0.4186,-0.4677,-0.5344,-0.6062,-0.6599,-0.7177,-0.7715,-0.7742,-0.7782,-0.7883,-0.7976,-0.8307,-0.8798,-0.9359,-0.9925,-1.0471,-1.0743,-1.076,-1.0674,-1.0528,-1.0332,-1.0332,-1.0381,-1.0557,-1.0898,-1.0986,-1.1332,-1.1884,-1.2175,-1.2446,-1.2589,-1.2633,-1.2754,-1.2975,-1.2844,-1.336,-1.4334,-1.4182,-1.4027,-1.3895,-1.3409,-1.2919,-1.2675,-1.1714,-1.1233,-1.0878,-1.0574,-1.0254,-1.0079,-0.9804,-0.9239,-0.8717,-0.835,-0.8107,-0.7857,-0.7829,-0.7795,-0.7643,-0.723,-0.6509,-0.5927,-0.551,-0.5079,-0.4614,-0.4334,-0.3928,-0.3785,-0.367,-0.3717,-0.3812,-0.3792,-0.3819,-0.3849,-0.3873,-0.3897,-0.387,-0.3846,-0.3829,-0.3816,-0.3836,-0.3866,-0.3921,-0.3972,-0.4002,-0.4046,-0.4161,-0.428,-0.4409,-0.4429,-0.4307,-0.429,-0.4426,-0.4402,-0.4379,-0.4423,-0.4463,0.3916,0.3176,0.306,0.273,0.2272,0.2,0.1923,0.2023,0.1866,0.1376,0.1081,0.0814,0.0457,-0.0151,-0.1256,-0.2153,-0.2901,-0.3581,-0.3965,-0.4042,-0.4439,-0.506,-0.5864,-0.618,-0.6765,-0.7282,-0.7251,-0.7308,-0.7558,-0.7971,-0.8361,-0.8772,-0.9247,-0.982,-1.0314,-1.0428,-1.0352,-1.0352,-1.0351,-1.0322,-1.0371,-1.0586,-1.0771,-1.0937,-1.1204,-1.1509,-1.1836,-1.2111,-1.2388,-1.2826,-1.295,-1.3055,-1.3215,-1.3679,-1.3864,-1.4112,-1.4114,-1.4189,-1.4438,-1.3962,-1.3372,-1.2904,-1.2181,-1.156,-1.0981,-1.0534,-1.0127,-0.9597,-0.9478,-0.9039,-0.8316,-0.7957,-0.7888,-0.776,-0.7629,-0.7607,-0.7418,-0.7044,-0.6282,-0.5738,-0.539,-0.473,-0.4149,-0.3961,-0.3768,-0.367,-0.3605,-0.3653,-0.368,-0.3676,-0.368,-0.3724,-0.3727,-0.3748,-0.3761,-0.3737,-0.3731,-0.3704,-0.3714,-0.3731,-0.3775,-0.3832,-0.3894,-0.3951,-0.405,-0.4073,-0.408,-0.408,-0.4073,-0.4138,-0.4222,-0.4256,-0.4267,-0.4338,-0.4399,0.4,0.3684,0.3263,0.3159,0.3151,0.2745,0.2729,0.2975,0.2633,0.2263,0.19,0.1179,0.058,-0.0191,-0.132,-0.2022,-0.2541,-0.3345,-0.3771,-0.3771,-0.407,-0.4468,-0.5029,-0.5502,-0.6093,-0.6656,-0.6937,-0.7108,-0.7373,-0.7774,-0.8268,-0.8725,-0.9248,-0.9762,-1.0244,-1.0322,-1.0322,-1.0332,-1.0322,-1.0322,-1.0371,-1.0449,-1.0557,-1.0566,-1.0802,-1.1054,-1.1308,-1.1805,-1.2042,-1.2461,-1.2756,-1.3165,-1.3229,-1.3423,-1.3596,-1.3574,-1.3556,-1.3803,-1.4225,-1.386,-1.3421,-1.2878,-1.2167,-1.1452,-1.0802,-1.039,-1.0049,-0.9558,-0.9199,-0.8683,-0.7987,-0.7572,-0.7454,-0.7402,-0.7468,-0.7367,-0.7155,-0.6754,-0.6255,-0.5769,-0.5283,-0.4773,-0.4284,-0.3997,-0.3859,-0.3639,-0.3588,-0.3609,-0.3626,-0.3622,-0.3629,-0.3646,-0.3632,-0.3615,-0.3629,-0.3629,-0.3646,-0.3632,-0.3632,-0.3646,-0.3649,-0.3697,-0.3758,-0.3758,-0.3768,-0.3785,-0.3792,-0.389,-0.3988,-0.4036,-0.4077,-0.4097,-0.407,-0.4134,-0.4209,0.3944,0.3869,0.3386,0.3518,0.3913,0.3383,0.3415,0.3811,0.3326,0.2975,0.2521,0.1515,0.0553,-0.009,-0.1023,-0.1635,-0.185,-0.2873,-0.3294,-0.3466,-0.368,-0.3964,-0.4481,-0.4978,-0.5593,-0.6127,-0.655,-0.6823,-0.716,-0.7628,-0.8191,-0.8724,-0.9239,-0.9755,-1.0157,-1.0322,-1.0322,-1.0322,-1.0322,-1.0322,-1.0332,-1.0332,-1.0351,-1.0342,-1.0322,-1.0438,-1.0764,-1.1325,-1.1808,-1.2401,-1.2839,-1.3179,-1.3223,-1.3261,-1.3286,-1.3286,-1.3291,-1.3403,-1.3672,-1.3473,-1.298,-1.2496,-1.1836,-1.1132,-1.0273,-1.0088,-0.9765,-0.9039,-0.8756,-0.8234,-0.7739,-0.7238,-0.722,-0.7264,-0.7288,-0.7128,-0.6965,-0.6653,-0.6209,-0.567,-0.534,-0.5305,-0.4789,-0.4264,-0.3949,-0.3694,-0.3578,-0.3578,-0.3581,-0.3588,-0.3725,-0.3739,-0.3643,-0.3663,-0.3836,-0.3796,-0.3707,-0.3578,-0.3578,-0.3585,-0.3605,-0.3605,-0.3636,-0.3605,-0.3588,-0.3612,-0.3687,-0.3809,-0.391,-0.3883,-0.3877,-0.3938,-0.3968,-0.3982,-0.4036,0.3731,0.3632,0.3852,0.3903,0.3992,0.3815,0.3758,0.3799,0.3631,0.3179,0.2502,0.1485,0.0541,-0.0089,-0.069,-0.127,-0.1642,-0.2294,-0.2768,-0.3228,-0.366,-0.3881,-0.4253,-0.4707,-0.5373,-0.5844,-0.6348,-0.6719,-0.7021,-0.7447,-0.8111,-0.8675,-0.9015,-0.9679,-1.007,-1.0128,-1.0127,-1.0107,-1.0088,-1.0165,-1.0195,-1.0224,-1.0263,-1.0244,-1.0341,-1.0697,-1.159,-1.1811,-1.2138,-1.2803,-1.306,-1.3198,-1.321,-1.321,-1.321,-1.321,-1.321,-1.3286,-1.3311,-1.3311,-1.2967,-1.2389,-1.1568,-1.0591,-0.9834,-0.9597,-0.9079,-0.8357,-0.8201,-0.7773,-0.7356,-0.7041,-0.7121,-0.7181,-0.7165,-0.7052,-0.6877,-0.6631,-0.6191,-0.5609,-0.552,-0.5757,-0.561,-0.5152,-0.4341,-0.3991,-0.3622,-0.3578,-0.3578,-0.3626,-0.384,-0.3888,-0.3714,-0.3792,-0.4136,-0.4049,-0.3707,-0.3578,-0.3578,-0.3578,-0.3585,-0.3578,-0.3578,-0.3609,-0.3619,-0.3598,-0.3629,-0.369,-0.3741,-0.368,-0.3687,-0.3775,-0.3853,-0.3894,-0.3941,0.4147,0.4108,0.4191,0.4064,0.3748,0.3687,0.3659,0.3656,0.3602,0.3037,0.2138,0.1295,0.0574,-0.0043,-0.0595,-0.0989,-0.1289,-0.2137,-0.2498,-0.2845,-0.3234,-0.3467,-0.387,-0.4508,-0.5334,-0.5577,-0.6151,-0.6725,-0.7021,-0.7252,-0.7521,-0.7968,-0.8454,-0.8956,-0.9346,-0.9751,-0.9729,-0.957,-0.9521,-0.9502,-0.9551,-0.9775,-0.9883,-0.9893,-1.0578,-1.0857,-1.1356,-1.1945,-1.2354,-1.2756,-1.306,-1.3176,-1.321,-1.321,-1.321,-1.321,-1.321,-1.321,-1.321,-1.3129,-1.2873,-1.1945,-1.0885,-0.9942,-0.9478,-0.9239,-0.8724,-0.816,-0.7878,-0.753,-0.7147,-0.7021,-0.7061,-0.7128,-0.7069,-0.6963,-0.6809,-0.6636,-0.6681,-0.632,-0.6464,-0.6756,-0.6452,-0.6088,-0.5167,-0.4336,-0.3935,-0.3578,-0.3578,-0.3667,-0.388,-0.4008,-0.384,-0.384,-0.4136,-0.3924,-0.3622,-0.3578,-0.3578,-0.3595,-0.3598,-0.3578,-0.3585,-0.3619,-0.3646,-0.3626,-0.3612,-0.365,-0.365,-0.3653,-0.3615,-0.3643,-0.3717,-0.3792,-0.3836,0.4561,0.4387,0.4387,0.4092,0.3622,0.3578,0.3578,0.3578,0.3581,0.2923,0.1794,0.13,0.068,0.0041,-0.0403,-0.0754,-0.0995,-0.1541,-0.2018,-0.2403,-0.2697,-0.2924,-0.3352,-0.3885,-0.4549,-0.4994,-0.5836,-0.6465,-0.6677,-0.6809,-0.7024,-0.7229,-0.7506,-0.8024,-0.8821,-0.9164,-0.9252,-0.9082,-0.9004,-0.9004,-0.9082,-0.9601,-0.9902,-1.0055,-1.0761,-1.1335,-1.1653,-1.2174,-1.2544,-1.2803,-1.3025,-1.3176,-1.321,-1.321,-1.321,-1.321,-1.321,-1.321,-1.3163,-1.2838,-1.2437,-1.1531,-1.0639,-0.9785,-0.9239,-0.8886,-0.8472,-0.7704,-0.7572,-0.744,-0.6972,-0.6979,-0.7021,-0.7032,-0.7032,-0.6976,-0.697,-0.6872,-0.7091,-0.714,-0.7224,-0.7057,-0.6691,-0.6213,-0.5356,-0.4499,-0.3935,-0.3622,-0.3578,-0.3711,-0.3924,-0.4012,-0.3928,-0.4012,-0.4096,-0.384,-0.3667,-0.3578,-0.3588,-0.3629,-0.3632,-0.3605,-0.3626,-0.3693,-0.3704,-0.3663,-0.3629,-0.3643,-0.3633,-0.3626,-0.3592,-0.3605,-0.3615,-0.3687,-0.3704,0.4957,0.443,0.443,0.4132,0.3697,0.3578,0.3578,0.3551,0.3453,0.2861,0.1878,0.1536,0.0951,0.0195,-0.0076,-0.0334,-0.0617,-0.0839,-0.1235,-0.1841,-0.2202,-0.2378,-0.281,-0.3346,-0.4191,-0.4283,-0.5296,-0.6204,-0.6307,-0.6641,-0.6713,-0.6656,-0.6863,-0.7255,-0.8339,-0.8809,-0.9004,-0.8975,-0.8906,-0.8867,-0.8993,-0.9589,-0.9946,-1.0211,-1.0965,-1.1532,-1.2012,-1.2271,-1.2634,-1.3047,-1.3129,-1.321,-1.321,-1.321,-1.321,-1.321,-1.321,-1.321,-1.3129,-1.233,-1.1653,-1.1084,-1.0293,-0.9588,-0.8958,-0.8553,-0.8177,-0.7321,-0.7147,-0.7105,-0.6972,-0.6972,-0.6972,-0.6972,-0.6972,-0.6972,-0.6972,-0.6979,-0.7194,-0.7355,-0.7188,-0.6956,-0.6617,-0.6147,-0.5376,-0.4613,-0.3972,-0.3755,-0.3796,-0.402,-0.4324,-0.4449,-0.4454,-0.4542,-0.4538,-0.3983,-0.3711,-0.3667,-0.3588,-0.3619,-0.3636,-0.3615,-0.3663,-0.3758,-0.3744,-0.3693,-0.3636,-0.3585,-0.3581,-0.3578,-0.3578,-0.3585,-0.3585,-0.3598,-0.3639,0.5782,0.5567,0.5173,0.4795,0.4413,0.3843,0.3524,0.3334,0.2909,0.2435,0.1961,0.1374,0.0882,0.0449,0.0147,-0.0107,-0.0242,-0.0652,-0.1043,-0.118,-0.1759,-0.2097,-0.2568,-0.3553,-0.432,-0.4914,-0.571,-0.6198,-0.6518,-0.66,-0.6591,-0.6507,-0.6684,-0.7061,-0.7612,-0.8109,-0.8486,-0.8172,-0.8104,-0.8154,-0.8254,-0.896,-0.9487,-0.9551,-1.0609,-1.1442,-1.2009,-1.2261,-1.2691,-1.3113,-1.321,-1.321,-1.321,-1.321,-1.321,-1.321,-1.321,-1.2873,-1.2354,-1.1653,-1.1234,-1.0705,-1.0011,-0.927,-0.8716,-0.7931,-0.7391,-0.7147,-0.7014,-0.6972,-0.6972,-0.6972,-0.6972,-0.6972,-0.6972,-0.6972,-0.6979,-0.7027,-0.7114,-0.7261,-0.7221,-0.7068,-0.6761,-0.6386,-0.5696,-0.5303,-0.4792,-0.4574,-0.4613,-0.4767,-0.5038,-0.5159,-0.5192,-0.5232,-0.5079,-0.4397,-0.3972,-0.388,-0.3751,-0.3588,-0.3598,-0.3639,-0.3693,-0.3785,-0.3754,-0.3717,-0.3663,-0.3615,-0.3588,-0.3578,-0.3598,-0.3592,-0.3581,-0.3602,-0.3639,0.6349,0.6136,0.5787,0.5308,0.4815,0.4087,0.3623,0.338,0.2917,0.2508,0.2085,0.1459,0.095,0.0677,0.0389,0.007,0.0,-0.0269,-0.0805,-0.0911,-0.1522,-0.1987,-0.2742,-0.37,-0.4205,-0.4919,-0.5668,-0.6302,-0.6196,-0.6442,-0.6467,-0.6512,-0.6807,-0.7121,-0.7467,-0.7867,-0.8057,-0.7822,-0.7812,-0.7793,-0.8019,-0.8471,-0.9014,-0.94,-1.0188,-1.1168,-1.17,-1.2172,-1.2609,-1.2998,-1.3185,-1.3185,-1.3198,-1.3198,-1.321,-1.321,-1.3141,-1.2733,-1.1993,-1.1627,-1.1244,-1.0677,-0.9588,-0.8958,-0.8635,-0.7979,-0.744,-0.7112,-0.7021,-0.6972,-0.6972,-0.6972,-0.6972,-0.6972,-0.6972,-0.6972,-0.6979,-0.7021,-0.7034,-0.7181,-0.7208,-0.7088,-0.6979,-0.6598,-0.6087,-0.5867,-0.5653,-0.5518,-0.5346,-0.5453,-0.5614,-0.5738,-0.5632,-0.5463,-0.5213,-0.4697,-0.4364,-0.4136,-0.3884,-0.3629,-0.3676,-0.3734,-0.3771,-0.3785,-0.3734,-0.3697,-0.368,-0.3694,-0.3626,-0.3629,-0.3649,-0.3629,-0.3588,-0.3622,-0.3673,0.6683,0.6221,0.6215,0.5711,0.4944,0.4351,0.3976,0.3796,0.3614,0.3029,0.2233,0.2073,0.1533,0.0879,0.0708,0.0439,0.0101,0.0,-0.0436,-0.0971,-0.1321,-0.1847,-0.2493,-0.3353,-0.3985,-0.4365,-0.5012,-0.5803,-0.5725,-0.5939,-0.6161,-0.6379,-0.665,-0.698,-0.7326,-0.7557,-0.7675,-0.7676,-0.7695,-0.7695,-0.7871,-0.8548,-0.8884,-0.9294,-1.0045,-1.0898,-1.1458,-1.1861,-1.2414,-1.2797,-1.3073,-1.311,-1.3148,-1.3185,-1.3198,-1.3176,-1.3141,-1.2579,-1.1957,-1.17,-1.1169,-1.0485,-0.9746,-0.9199,-0.8675,-0.8021,-0.7405,-0.7105,-0.6972,-0.6972,-0.6972,-0.6972,-0.6972,-0.6972,-0.6972,-0.6972,-0.6972,-0.6979,-0.6979,-0.7018,-0.7061,-0.7021,-0.7105,-0.6816,-0.6562,-0.6471,-0.6252,-0.6081,-0.591,-0.5776,-0.5993,-0.6284,-0.6066,-0.5609,-0.5285,-0.5004,-0.4535,-0.4268,-0.3895,-0.3657,-0.3717,-0.3809,-0.3826,-0.3805,-0.3717,-0.3707,-0.3819,-0.3778,-0.367,-0.3687,-0.3808,-0.3714,-0.369,-0.37,-0.3741,0.6901,0.6713,0.6103,0.5835,0.5738,0.5157,0.4627,0.4082,0.3625,0.3172,0.2929,0.2295,0.1847,0.1611,0.0974,0.0706,0.0403,0.0168,-0.0067,-0.0503,-0.1039,-0.1406,-0.2076,-0.302,-0.377,-0.4417,-0.4961,-0.5437,-0.5676,-0.5757,-0.5769,-0.5951,-0.6435,-0.6749,-0.6993,-0.7157,-0.7442,-0.7656,-0.7725,-0.7754,-0.7918,-0.8506,-0.8706,-0.9025,-0.9693,-1.0406,-1.0786,-1.1087,-1.1547,-1.2027,-1.2434,-1.2597,-1.2622,-1.2947,-1.3129,-1.2733,-1.2662,-1.2401,-1.1847,-1.1431,-1.0933,-1.0205,-0.946,-0.8999,-0.8472,-0.7897,-0.7238,-0.6979,-0.6979,-0.6979,-0.6937,-0.693,-0.6972,-0.6972,-0.6972,-0.6972,-0.6985,-0.7081,-0.7081,-0.7215,-0.7215,-0.7273,-0.7321,-0.7154,-0.6937,-0.6937,-0.6852,-0.6598,-0.6428,-0.6295,-0.6325,-0.6613,-0.6563,-0.611,-0.5821,-0.5551,-0.4916,-0.4355,-0.3865,-0.3569,-0.3765,-0.3839,-0.3863,-0.3911,-0.3927,-0.3979,-0.403,-0.4024,-0.4033,-0.3965,-0.3979,-0.39,-0.3795,-0.3863,-0.3877,0.6687,0.6613,0.6096,0.5952,0.5925,0.551,0.5028,0.4549,0.3869,0.3523,0.3225,0.2606,0.2181,0.1914,0.1444,0.1041,0.0639,0.0437,0.0101,-0.0504,-0.0804,-0.1331,-0.2011,-0.276,-0.3568,-0.4262,-0.481,-0.5216,-0.5486,-0.5635,-0.5674,-0.6099,-0.64,-0.6665,-0.7008,-0.7314,-0.7471,-0.7686,-0.7841,-0.7928,-0.8176,-0.8505,-0.8551,-0.8717,-0.9384,-0.9803,-1.012,-1.0404,-1.0838,-1.146,-1.2008,-1.2262,-1.2406,-1.2872,-1.3151,-1.2873,-1.2838,-1.2473,-1.192,-1.159,-1.0857,-1.004,-0.9182,-0.8716,-0.8144,-0.7565,-0.7063,-0.6683,-0.6852,-0.6937,-0.6894,-0.6852,-0.693,-0.6972,-0.6972,-0.6972,-0.7074,-0.7148,-0.7296,-0.7482,-0.756,-0.7608,-0.7579,-0.7405,-0.7231,-0.7063,-0.6979,-0.6888,-0.6803,-0.6719,-0.6751,-0.6894,-0.6838,-0.663,-0.6267,-0.5733,-0.5009,-0.4208,-0.3478,-0.3358,-0.3636,-0.3804,-0.3804,-0.3978,-0.4189,-0.4383,-0.4762,-0.4576,-0.4548,-0.4531,-0.4588,-0.4553,-0.4436,-0.4105,-0.4146,0.6209,0.6216,0.6169,0.5945,0.5658,0.5391,0.5291,0.5214,0.4377,0.3826,0.3425,0.294,0.2543,0.2278,0.1945,0.1477,0.1041,0.0739,0.0269,-0.0572,-0.0706,-0.1127,-0.1724,-0.2521,-0.3099,-0.3866,-0.4376,-0.4655,-0.5121,-0.537,-0.5742,-0.6435,-0.6405,-0.6669,-0.7285,-0.7403,-0.7539,-0.7725,-0.8052,-0.8308,-0.8365,-0.8617,-0.8855,-0.8883,-0.9267,-0.9665,-0.9944,-1.024,-1.0578,-1.1204,-1.1752,-1.1984,-1.2548,-1.2885,-1.3101,-1.3129,-1.3025,-1.2697,-1.215,-1.1774,-1.0912,-0.9992,-0.903,-0.8431,-0.7814,-0.7398,-0.6894,-0.6725,-0.6852,-0.6894,-0.6852,-0.6894,-0.6972,-0.7025,-0.7101,-0.7025,-0.7061,-0.7164,-0.7382,-0.751,-0.7539,-0.7594,-0.7704,-0.753,-0.7189,-0.7063,-0.6972,-0.6972,-0.7021,-0.7021,-0.7083,-0.7123,-0.6976,-0.6745,-0.611,-0.5522,-0.4854,-0.4091,-0.337,-0.3337,-0.3817,-0.3837,-0.3745,-0.4412,-0.5097,-0.5334,-0.5544,-0.5435,-0.5415,-0.5622,-0.564,-0.544,-0.5143,-0.4801,-0.444,0.6196,0.6169,0.5912,0.5645,0.5397,0.5342,0.5309,0.5246,0.473,0.4403,0.414,0.3523,0.3068,0.2867,0.2278,0.1814,0.1611,0.1075,0.0639,0.0101,-0.0269,-0.075,-0.1199,-0.1873,-0.2499,-0.2988,-0.3499,-0.4125,-0.4738,-0.5138,-0.5522,-0.6006,-0.6129,-0.6587,-0.7305,-0.7373,-0.7471,-0.7725,-0.8223,-0.8439,-0.8421,-0.8855,-0.9182,-0.9155,-0.9378,-0.9444,-0.9646,-0.9806,-1.0112,-1.0554,-1.1282,-1.2058,-1.2947,-1.3123,-1.3,-1.2803,-1.3025,-1.2803,-1.2437,-1.1957,-1.1164,-1.0147,-0.9147,-0.8203,-0.7558,-0.7189,-0.6979,-0.6894,-0.6852,-0.681,-0.6836,-0.6921,-0.7117,-0.7197,-0.7228,-0.7161,-0.7081,-0.7235,-0.7468,-0.7603,-0.7553,-0.7635,-0.7795,-0.7655,-0.7231,-0.7063,-0.7014,-0.6972,-0.7021,-0.7063,-0.7147,-0.7174,-0.7041,-0.6725,-0.6039,-0.5453,-0.4893,-0.4353,-0.3681,-0.3764,-0.3959,-0.4485,-0.4916,-0.5641,-0.6236,-0.6343,-0.6369,-0.6317,-0.6385,-0.6676,-0.6514,-0.6312,-0.6187,-0.591,-0.5263,0.5903,0.6047,0.6076,0.5862,0.5606,0.5554,0.5491,0.5277,0.5023,0.4928,0.473,0.3844,0.3294,0.3229,0.261,0.2147,0.1981,0.1546,0.1041,0.0571,0.0202,-0.0343,-0.0821,-0.1257,-0.1983,-0.2498,-0.3185,-0.388,-0.4496,-0.4858,-0.5232,-0.5975,-0.6191,-0.6526,-0.7216,-0.7364,-0.7432,-0.7725,-0.8326,-0.8495,-0.8523,-0.9089,-0.9502,-0.9528,-0.9528,-0.9516,-0.9518,-0.9647,-0.9824,-1.027,-1.0973,-1.2089,-1.286,-1.3185,-1.3082,-1.2978,-1.3012,-1.3012,-1.2567,-1.2079,-1.1376,-1.0214,-0.9476,-0.8634,-0.7349,-0.6979,-0.6768,-0.6683,-0.6894,-0.6901,-0.6874,-0.6962,-0.7623,-0.7957,-0.7809,-0.7627,-0.7521,-0.7465,-0.8111,-0.8845,-0.8681,-0.8365,-0.8561,-0.8756,-0.8259,-0.753,-0.7398,-0.7189,-0.7147,-0.7308,-0.7349,-0.7391,-0.7391,-0.6888,-0.6173,-0.5636,-0.5101,-0.4529,-0.4008,-0.3988,-0.4182,-0.528,-0.619,-0.6725,-0.7047,-0.7036,-0.7101,-0.7283,-0.7503,-0.7735,-0.7482,-0.7101,-0.7074,-0.7009,-0.6455,0.5701,0.6037,0.6344,0.6252,0.5913,0.5882,0.5672,0.534,0.5309,0.5277,0.5119,0.4038,0.3519,0.3266,0.2878,0.2477,0.2114,0.188,0.1444,0.1108,0.0807,0.0272,-0.024,-0.0689,-0.1446,-0.2259,-0.3025,-0.375,-0.4447,-0.4698,-0.5226,-0.6206,-0.6639,-0.6867,-0.7421,-0.7695,-0.7695,-0.7783,-0.8138,-0.8439,-0.8899,-0.9437,-0.9686,-0.9816,-0.9854,-0.9712,-0.9605,-0.9643,-0.9742,-1.0302,-1.0943,-1.2053,-1.2679,-1.3025,-1.3012,-1.2931,-1.2943,-1.2791,-1.2579,-1.2425,-1.1302,-1.0262,-0.9759,-0.8899,-0.766,-0.7063,-0.6852,-0.6732,-0.6943,-0.7009,-0.6981,-0.7206,-0.7941,-0.8527,-0.8279,-0.8334,-0.8179,-0.799,-0.8767,-0.9751,-0.9416,-0.9061,-0.9165,-0.9399,-0.8967,-0.8283,-0.7821,-0.7614,-0.7523,-0.7758,-0.7915,-0.7998,-0.7998,-0.7377,-0.6634,-0.5832,-0.5316,-0.4826,-0.437,-0.4288,-0.4545,-0.5918,-0.6956,-0.7551,-0.7824,-0.7978,-0.8296,-0.8554,-0.8732,-0.889,-0.8823,-0.8593,-0.8231,-0.8119,-0.7641,0.6305,0.6397,0.6488,0.6275,0.5944,0.5913,0.5672,0.534,0.5309,0.5309,0.5151,0.473,0.421,0.3826,0.301,0.258,0.2447,0.2214,0.2047,0.1744,0.1341,0.0845,0.0272,-0.0407,-0.1019,-0.1853,-0.2692,-0.334,-0.4151,-0.4505,-0.5074,-0.6037,-0.6427,-0.676,-0.7187,-0.7442,-0.7695,-0.7802,-0.8004,-0.8336,-0.8561,-0.9074,-0.9593,-0.9776,-0.988,-0.9463,-0.9217,-0.9345,-0.9533,-1.0165,-1.1232,-1.2205,-1.2669,-1.2803,-1.2826,-1.2873,-1.2873,-1.2826,-1.272,-1.2743,-1.1768,-1.0887,-1.0309,-0.9533,-0.8504,-0.7807,-0.7523,-0.7021,-0.7154,-0.7181,-0.7214,-0.7524,-0.8094,-0.8535,-0.861,-0.9228,-0.9522,-0.9172,-0.9338,-0.9589,-0.9452,-0.9316,-0.9417,-0.9429,-0.9122,-0.8545,-0.8234,-0.8021,-0.8177,-0.8325,-0.8569,-0.8651,-0.8757,-0.83,-0.7739,-0.634,-0.5641,-0.5142,-0.4935,-0.5112,-0.5663,-0.6753,-0.7664,-0.8302,-0.8876,-0.9235,-0.9503,-0.9599,-0.9902,-1.0005,-1.0312,-1.0202,-0.9688,-0.9228,-0.8744]}]]